[[{"header":{"parameterUnit":"m.s-1","parameterCategory":1,"la1":31.0,"la2":29.5877,"lo1":-88.7671,"lo2":-86.6584,"dx":0.0162,"dy":0.0185,"nx":115,"ny":88,"refTime":"2022-12-16T06:00:00:Z","depth":0,"parameterNumber":2,"parameterNumberName":"U-component_of_WINDS"},"data":[0.0,0.0,0.0,0.0,0.0,0.0,0.0,0.0,0.0,0.0,0.0,0.0,0.0,0.0,0.0,0.0,0.0,0.0,0.0,0.0,0.0,0.0,0.0,0.0,0.0,0.0,0.0,0.0,0.0,0.0,0.0,0.0,0.0,0.0,0.0,0.0,0.0,0.0,0.0,0.0,0.0,0.0,0.0,0.0,0.0,0.0,0.0,0.0,0.0,0.0,0.0,0.0,0.0,0.0,0.0,0.0,0.0,0.0,0.0,0.0,0.0,0.0,0.0,0.0,0.0,0.0,0.0,0.0,0.0,0.0,0.0,0.0,0.0,0.0,0.0,0.0,0.0,0.0,0.0,0.0,0.0,0.0,0.0,0.0,0.0,0.0,0.0,0.0,0.0,0.0,0.0,0.0,0.0,0.0,0.0,0.0,0.0,0.0,0.0,0.0,0.0,0.0,0.0,0.0,0.0,0.0,0.0,0.0,0.0,0.0,0.0,0.0,0.0,0.0,0.0,0.0,0.0,0.0,0.0,0.0,0.0,0.0,0.0,0.0,0.0,0.0,0.0,0.0,0.0,0.0,0.0,0.0,0.0,0.0,0.0,0.0,0.0,0.0,0.0,0.0,0.0,0.0,0.0,0.0,0.0,0.0,0.0,0.0,0.0,0.0,0.0,0.0,0.0,0.0,0.0,0.0,0.0,0.0,0.0,0.0,0.0,0.0,0.0,0.0,0.0,0.0,0.0,0.0,0.0,0.0,0.0,0.0,0.0,0.0,0.0,0.0,0.0,0.0,0.0,0.0,0.0,0.0,0.0,0.0,0.0,0.0,0.0,0.0,0.0,0.0,0.0,0.0,0.0,0.0,0.0,0.0,0.0,0.0,0.0,0.0,0.0,0.0,0.0,0.0,0.0,0.0,0.0,0.0,0.0,0.0,0.0,0.0,0.0,0.0,0.0,0.0,0.0,0.0,0.0,0.0,0.0,0.0,0.0,0.0,0.0,0.0,0.0,0.0,0.0,0.0,0.0,0.0,0.0,0.0,0.0,0.0,0.0,0.0,0.0,0.0,0.0,0.0,0.0,0.0,0.0,0.0,0.0,0.0,0.0,0.0,0.0,0.0,0.0,0.0,0.0,0.0,0.0,0.0,0.0,0.0,0.0,0.0,0.0,0.0,0.0,0.0,0.0,0.0,0.0,0.0,0.0,0.0,0.0,0.0,0.0,0.0,0.0,0.0,0.0,0.0,0.0,0.0,0.0,0.0,0.0,0.0,0.0,0.0,0.0,0.0,0.0,0.0,0.0,0.0,0.0,0.0,0.0,0.0,0.0,0.0,0.0,0.0,0.0,0.0,0.0,0.0,0.0,0.0,0.0,0.0,0.0,0.0,0.0,0.0,0.0,0.0,0.0,0.0,0.0,0.0,0.0,0.0,0.0,0.0,0.0,0.0,0.0,0.0,0.0,0.0,0.0,0.0,0.0,0.0,0.0,0.0,0.0,0.0,0.0,0.0,0.0,0.0,0.0,0.0,0.0,0.0,0.0,0.0,0.0,0.0,0.0,0.0,0.0,0.0,0.0,0.0,0.0,0.0,0.0,0.0,0.0,0.0,0.0,0.0,0.0,0.0,0.0,0.0,0.0,0.0,0.0,0.0,0.0,0.0,0.0,0.0,0.0,0.0,0.0,0.0,0.0,0.0,0.0,0.0,0.0,0.0,0.0,0.0,0.0,0.0,0.0,0.0,0.0,0.0,0.0,0.0,0.0,0.0,0.0,0.0,0.0,0.0,0.0,0.0,0.0,0.0,0.0,0.0,0.0,0.0,0.0,0.0,0.0,0.0,0.0,0.0,0.0,0.0,0.0,0.0,0.0,0.0,0.0,0.0,0.0,0.0,0.0,0.0,0.0,0.0,0.0,0.0,0.0,0.0,0.0,0.0,0.0,0.0,0.0,0.0,0.0,0.0,0.0,0.0,0.0,0.0,0.0,0.0,0.0,0.0,0.0,0.0,0.0,0.0,0.0,0.0,0.0,0.0,0.0,0.0,0.0,0.0,0.0,0.0,0.0,0.0,0.0,0.0,0.0,0.0,0.0,0.0,0.0,0.0,0.0,0.0,0.0,0.0,0.0,0.0,0.0,0.0,0.0,0.0,0.0,0.0,0.0,0.0,0.0,0.0,0.0,0.0,0.0,0.0,0.0,0.0,0.0,0.0,0.0,0.0,0.0,0.0,0.0,0.0,0.0,0.0,0.0,0.0,0.0,0.0,0.0,0.0,0.0,0.0,0.0,0.0,0.0,0.0,0.0,0.0,0.0,0.0,0.0,0.0,0.0,0.0,0.0,0.0,0.0,0.0,0.0,0.0,0.0,0.0,0.0,0.0,0.0,0.0,0.0,0.0,0.0,0.0,0.0,0.0,0.0,0.0,0.0,0.0,0.0,0.0,0.0,0.0,0.0,0.0,0.0,0.0,0.0,0.0,0.0,0.0,0.0,0.0,0.0,0.0,0.0,0.0,0.0,0.0,0.0,0.0,0.0,0.0,0.0,0.0,0.0,0.0,0.0,0.0,0.0,0.0,0.0,0.0,0.0,0.0,0.0,0.0,0.0,0.0,0.0,0.0,0.0,0.0,0.0,0.0,0.0,0.0,0.0,0.0,0.0,0.0,0.0,0.0,0.0,0.0,0.0,0.0,0.0,0.0,0.0,0.0,0.0,0.0,0.0,0.0,0.0,0.0,0.0,0.0,0.0,0.0,0.0,0.0,0.0,0.0,0.0,0.0,0.0,0.0,0.0,0.0,0.0,0.0,0.0,0.0,0.0,0.0,0.0,0.0,0.0,0.0,0.0,0.0,0.0,0.0,0.0,0.0,0.0,0.0,0.0,0.0,0.0,0.0,0.0,0.0,0.0,0.0,0.0,0.0,0.0,0.0,0.0,0.0,0.0,0.0,0.0,0.0,0.0,0.0,0.0,0.0,0.0,0.0,0.0,0.0,0.0,0.0,0.0,0.0,0.0,0.0,0.0,0.0,0.0,0.0,0.0,0.0,0.0,0.0,0.0,0.0,0.0,0.0,0.0,0.0,0.0,0.0,0.0,0.0,0.0,0.0,0.0,0.0,0.0,0.0,0.0,0.0,0.0,0.0,0.0,0.0,0.0,0.0,0.0,0.0,0.0,0.0,0.0,0.0,0.0,0.0,0.0,0.0,0.0,0.0,0.0,0.0,0.0,0.0,0.0,0.0,0.0,0.0,0.0,0.0,0.0,0.0,0.0,0.0,0.0,0.0,0.0,0.0,0.0,0.0,0.0,0.0,0.0,0.0,0.0,0.0,0.0,0.0,0.0,0.0,0.0,0.0,0.0,0.0,0.0,0.0,0.0,0.0,0.0,0.0,0.0,0.0,0.0,0.0,0.0,0.0,0.0,0.0,0.0,0.0,0.0,0.0,0.0,0.0,0.0,0.0,0.0,0.0,0.0,0.0,0.0,0.0,0.0,0.0,0.0,0.0,0.0,0.0,0.0,0.0,0.0,0.0,0.0,0.0,0.0,0.0,0.0,0.0,0.0,0.0,0.0,0.0,0.0,0.0,0.0,0.0,0.0,0.0,0.0,0.0,0.0,0.0,0.0,0.0,0.0,0.0,0.0,0.0,0.0,0.0,0.0,0.0,0.0,0.0,0.0,0.0,0.0,0.0,0.0,0.0,0.0,0.0,0.0,0.0,0.0,0.0,0.0,0.0,0.0,0.0,0.0,0.0,0.0,0.0,0.0,0.0,0.0,0.0,0.0,0.0,0.0,0.0,0.0,0.0,0.0,0.0,0.0,0.0,0.0,0.0,0.0,0.0,0.0,0.0,0.0,0.0,0.0,0.0,0.0,0.0,0.0,0.0,0.0,0.0,0.0,0.0,0.0,0.0,0.0,0.0,0.0,0.0,0.0,0.0,0.0,0.0,0.0,0.0,0.0,0.0,0.0,0.0,0.0,0.0,0.0,0.0,0.0,0.0,0.0,0.0,0.0,0.0,0.0,0.0,0.0,0.0,0.0,0.0,0.0,0.0,0.0,0.0,0.0,0.0,0.0,0.0,0.0,0.0,0.0,0.0,0.0,0.0,0.0,0.0,0.0,0.0,0.0,0.0,0.0,0.0,0.0,0.0,0.0,0.0,0.0,0.0,0.0,0.0,0.0,0.0,0.0,0.0,0.0,0.0,0.0,0.0,0.0,0.0,0.0,0.0,0.0,0.0,0.0,0.0,0.0,0.0,0.0,0.0,1.2915,0.0,0.0,0.0,1.2915,0.0,0.0,0.0,0.0,0.0,0.0,0.0,0.0,0.0,0.0,0.0,0.0,0.0,0.0,0.0,0.0,0.0,0.0,0.0,0.0,0.0,0.0,0.0,0.0,0.0,0.0,0.0,0.0,0.0,0.0,0.0,0.0,0.0,0.0,0.0,0.0,0.0,0.0,0.0,0.0,0.0,0.0,0.0,0.0,0.0,0.0,0.0,0.0,0.0,0.0,0.0,0.0,0.0,0.0,0.0,0.0,0.0,0.0,0.0,0.0,0.0,0.0,0.0,0.0,0.0,0.0,0.0,0.0,0.0,0.0,0.0,0.0,0.0,0.0,0.0,0.0,0.0,0.0,0.0,0.0,0.0,0.0,0.0,0.0,0.0,0.0,0.0,0.0,0.0,0.0,0.0,0.0,0.0,0.0,0.0,0.0,0.0,0.0,0.0,0.0,0.0,0.0,0.0,0.0,0.0,0.0,0.0,0.0,0.0,0.0,1.2915,1.2915,1.2915,1.2915,1.2915,0.0,0.0,0.0,0.0,0.0,0.0,0.0,0.0,0.0,0.0,0.0,0.0,0.0,0.0,0.0,0.0,0.0,0.0,0.0,0.0,0.0,0.0,0.0,0.0,0.0,0.0,0.0,0.0,0.0,0.0,0.0,0.0,0.0,0.0,0.0,0.0,0.0,0.0,0.0,0.0,0.0,0.0,0.0,0.0,0.0,0.0,0.0,0.0,0.0,0.0,0.0,0.0,0.0,0.0,0.0,0.0,0.0,0.0,0.0,0.0,0.0,0.0,0.0,0.0,0.0,0.0,0.0,0.0,0.0,0.0,0.0,0.0,0.0,0.0,0.0,0.0,0.0,0.0,0.0,0.0,0.0,0.0,0.0,0.0,0.0,0.0,0.0,0.0,0.0,0.0,0.0,0.0,0.0,0.0,0.0,0.0,0.0,0.0,0.0,0.0,0.0,0.0,0.0,0.0,0.0,0.0,0.0,0.0,0.0,0.0,0.0,0.0,1.2915,1.2915,1.2915,0.0,0.0,0.0,0.0,0.0,0.0,0.0,0.0,0.0,0.0,0.0,0.0,0.0,0.0,0.0,0.0,0.0,0.0,0.0,0.0,0.0,0.0,0.0,0.0,0.0,0.0,0.0,0.0,0.0,0.0,0.0,0.0,0.0,0.0,0.0,0.0,0.0,0.0,0.0,0.0,0.0,0.0,0.0,0.0,0.0,0.0,0.0,0.0,0.0,0.0,0.0,0.0,0.0,0.0,0.0,0.0,0.0,0.0,0.0,0.0,0.0,0.0,0.0,0.0,0.0,0.0,0.0,0.0,0.0,0.0,0.0,0.0,0.0,0.0,0.0,0.0,0.0,0.0,0.0,0.0,0.0,0.0,0.0,0.0,0.0,0.0,0.0,0.0,0.0,0.0,0.0,0.0,0.0,0.0,0.0,0.0,0.0,0.0,0.0,0.0,0.0,0.0,0.0,0.0,0.0,0.0,0.0,0.0,0.0,0.0,1.2915,1.2915,1.2915,0.0,1.2915,0.0,0.0,0.0,0.0,0.0,0.0,0.0,0.0,0.0,0.0,0.0,0.0,0.0,0.0,0.0,0.0,0.0,0.0,0.0,0.0,0.0,0.0,0.0,0.0,0.0,0.0,0.0,0.0,0.0,0.0,0.0,0.0,0.0,0.0,0.0,0.0,0.0,0.0,0.0,0.0,0.0,0.0,0.0,0.0,0.0,0.0,0.0,0.0,0.0,0.0,0.0,0.0,0.0,0.0,0.0,0.0,0.0,0.0,0.0,0.0,0.0,0.0,0.0,0.0,0.0,0.0,0.0,0.0,0.0,0.0,0.0,0.0,0.0,0.0,0.0,0.0,0.0,0.0,0.0,0.0,0.0,0.0,0.0,0.0,0.0,0.0,0.0,0.0,0.0,0.0,0.0,0.0,0.0,0.0,0.0,0.0,0.0,0.0,0.0,0.0,0.0,0.0,0.0,0.0,0.0,0.0,0.0,0.0,0.0,0.0,1.2915,1.2915,1.2915,1.2915,0.0,0.0,0.0,0.0,0.0,0.0,0.0,0.0,0.0,0.0,0.0,0.0,0.0,0.0,0.0,0.0,0.0,0.0,0.0,0.0,0.0,0.0,0.0,0.0,0.0,0.0,0.0,0.0,0.0,0.0,0.0,0.0,0.0,0.0,0.0,0.0,0.0,0.0,0.0,0.0,0.0,0.0,0.0,0.0,0.0,0.0,0.0,0.0,0.0,0.0,0.0,0.0,0.0,0.0,0.0,0.0,0.0,0.0,0.0,0.0,0.0,0.0,0.0,0.0,0.0,0.0,0.0,0.0,0.0,0.0,0.0,0.0,0.0,0.0,0.0,0.0,0.0,0.0,0.0,0.0,0.0,0.0,0.0,0.0,0.0,0.0,0.0,0.0,0.0,0.0,0.0,0.0,0.0,0.0,0.0,0.0,0.0,0.0,0.0,0.0,0.0,0.0,0.0,0.0,0.0,0.0,0.0,0.0,0.0,0.0,1.3164,1.3223,1.3223,1.3118,1.3071,1.3059,0.0,0.0,0.0,0.0,0.0,0.0,0.0,0.0,0.0,0.0,0.0,0.0,0.0,0.0,0.0,0.0,0.0,0.0,0.0,0.0,0.0,0.0,0.0,0.0,0.0,0.0,0.0,0.0,0.0,0.0,0.0,0.0,0.0,0.0,0.0,0.0,0.0,0.0,0.0,0.0,0.0,0.0,0.0,0.0,0.0,0.0,0.0,0.0,0.0,0.0,0.0,0.0,0.0,0.0,0.0,0.0,0.0,0.0,0.0,0.0,0.0,0.0,0.0,0.0,0.0,0.0,0.0,0.0,0.0,0.0,0.0,0.0,0.0,0.0,0.0,0.0,0.0,0.0,0.0,0.0,0.0,0.0,0.0,0.0,0.0,0.0,0.0,0.0,0.0,0.0,0.0,0.0,0.0,0.0,0.0,0.0,0.0,0.0,0.0,0.0,0.0,0.0,0.0,0.0,0.0,0.0,0.0,0.0,1.3483,1.3841,1.4055,1.4036,1.3678,1.3464,0.0,0.0,0.0,0.0,0.0,0.0,0.0,0.0,0.0,0.0,0.0,0.0,0.0,0.0,0.0,0.0,0.0,0.0,0.0,0.0,0.0,0.0,0.0,0.0,0.0,0.0,0.0,0.0,0.0,0.0,0.0,0.0,0.0,0.0,0.0,0.0,0.0,0.0,0.0,0.0,0.0,0.0,0.0,0.0,0.0,0.0,0.0,0.0,0.0,0.0,0.0,0.0,0.0,0.0,0.0,0.0,0.0,0.0,0.0,0.0,0.0,0.0,0.0,0.0,0.0,0.0,0.0,0.0,0.0,0.0,0.0,0.0,0.0,0.0,0.0,0.0,0.0,0.0,0.0,0.0,0.0,0.0,0.0,0.0,0.0,0.0,0.0,0.0,0.0,0.0,0.0,0.0,0.0,0.0,0.0,0.0,0.0,0.0,0.0,0.0,0.0,0.0,0.0,0.0,0.0,0.0,0.0,0.0,0.0,1.388,1.4049,1.41,1.4094,1.3958,1.388,0.0,0.0,0.0,0.0,0.0,0.0,0.0,0.0,0.0,0.0,0.0,0.0,0.0,0.0,0.0,0.0,0.0,0.0,0.0,0.0,0.0,0.0,0.0,0.0,0.0,0.0,0.0,0.0,0.0,0.0,0.0,0.0,0.0,0.0,0.0,0.0,0.0,0.0,0.0,0.0,0.0,0.0,0.0,0.0,0.0,0.0,0.0,0.0,0.0,0.0,0.0,0.0,0.0,0.0,0.0,0.0,0.0,0.0,0.0,0.0,0.0,0.0,0.0,0.0,0.0,0.0,0.0,0.0,0.0,0.0,0.0,0.0,0.0,0.0,0.0,0.0,0.0,0.0,0.0,0.0,0.0,0.0,0.0,0.0,0.0,0.0,0.0,0.0,0.0,0.0,0.0,0.0,0.0,0.0,0.0,0.0,0.0,0.0,0.0,0.0,0.0,0.0,0.0,0.0,0.0,0.0,0.0,0.0,0.0,1.4899,1.4938,1.4938,1.4933,1.466,1.4523,0.0,0.0,0.0,0.0,0.0,0.0,0.0,0.0,0.0,0.0,0.0,0.0,0.0,0.0,0.0,0.0,0.0,0.0,0.0,0.0,0.0,0.0,0.0,0.0,0.0,0.0,0.0,0.0,0.0,0.0,0.0,0.0,0.0,0.0,0.0,0.0,0.0,0.0,0.0,0.0,0.0,0.0,0.0,0.0,0.0,0.0,0.0,0.0,0.0,0.0,0.0,0.0,0.0,0.0,0.0,0.0,0.0,0.0,0.0,0.0,0.0,0.0,0.0,0.0,0.0,0.0,0.0,0.0,0.0,0.0,0.0,0.0,0.0,0.0,0.0,0.0,0.0,0.0,0.0,0.0,0.0,0.0,0.0,0.0,0.0,0.0,0.0,0.0,0.0,0.0,0.0,0.0,0.0,0.0,0.0,0.0,0.0,0.0,0.0,0.0,0.0,0.0,0.0,0.0,0.0,0.0,0.0,0.0,1.5844,1.6664,1.6668,1.6629,1.6652,1.5864,1.5415,0.0,0.0,0.0,0.0,0.0,0.0,0.0,0.0,0.0,0.0,0.0,0.0,0.0,0.0,0.0,0.0,0.0,0.0,0.0,0.0,0.0,0.0,0.0,0.0,0.0,0.0,0.0,0.0,0.0,0.0,0.0,0.0,0.0,0.0,0.0,0.0,0.0,0.0,0.0,0.0,0.0,0.0,0.0,0.0,0.0,0.0,0.0,0.0,0.0,0.0,0.0,0.0,0.0,0.0,0.0,0.0,0.0,0.0,0.0,0.0,0.0,0.0,0.0,0.0,0.0,0.0,0.0,0.0,0.0,0.0,0.0,0.0,0.0,0.0,0.0,0.0,0.0,0.0,0.0,0.0,0.0,0.0,0.0,0.0,0.0,0.0,0.0,0.0,0.0,0.0,0.0,0.0,0.0,0.0,0.0,0.0,0.0,0.0,0.0,0.0,0.0,0.0,0.0,0.0,0.0,0.0,0.0,0.0,0.0,1.7168,1.7187,1.7204,1.7168,1.693,1.65,0.0,0.0,0.0,0.0,0.0,0.0,0.0,0.0,0.0,0.0,0.0,0.0,0.0,0.0,0.0,0.0,0.0,0.0,0.0,0.0,0.0,0.0,0.0,0.0,0.0,0.0,0.0,0.0,0.0,0.0,0.0,0.0,0.0,0.0,0.0,0.0,0.0,0.0,0.0,0.0,0.0,0.0,0.0,0.0,0.0,0.0,0.0,0.0,0.0,0.0,0.0,0.0,0.0,0.0,0.0,0.0,0.0,0.0,0.0,0.0,0.0,0.0,0.0,0.0,0.0,0.0,0.0,0.0,0.0,0.0,0.0,0.0,0.0,0.0,0.0,0.0,0.0,0.0,0.0,0.0,0.0,0.0,0.0,0.0,0.0,0.0,0.0,0.0,0.0,0.0,0.0,0.0,0.0,0.0,0.0,0.0,0.0,0.0,0.0,0.0,0.0,0.0,0.0,0.0,0.0,0.0,0.0,0.0,0.0,1.9277,1.8984,1.8809,1.8828,1.8496,1.7868,1.6852,0.0,0.0,0.0,0.0,0.0,0.0,0.0,0.0,0.0,0.0,0.0,0.0,0.0,0.0,0.0,0.0,0.0,0.0,0.0,0.0,0.0,0.0,0.0,0.0,0.0,0.0,0.0,0.0,0.0,0.0,0.0,0.0,0.0,0.0,0.0,0.0,0.0,0.0,0.0,0.0,0.0,0.0,0.0,0.0,0.0,0.0,0.0,0.0,0.0,0.0,0.0,0.0,0.0,0.0,0.0,0.0,0.0,0.0,0.0,0.0,0.0,0.0,0.0,0.0,0.0,0.0,0.0,0.0,0.0,0.0,0.0,0.0,0.0,0.0,0.0,0.0,0.0,0.0,0.0,0.0,0.0,0.0,0.0,0.0,0.0,0.0,0.0,0.0,0.0,0.0,0.0,0.0,0.0,0.0,0.0,0.0,0.0,0.0,0.0,0.0,0.0,0.0,0.0,0.0,0.0,0.0,0.0,0.0,2.2569,2.193,2.1581,2.1444,2.0547,1.9454,0.0,0.0,0.0,0.0,0.0,0.0,0.0,0.0,0.0,0.0,0.0,0.0,0.0,0.0,0.0,0.0,0.0,0.0,0.0,0.0,0.0,0.0,0.0,0.0,0.0,0.0,0.0,0.0,0.0,0.0,0.0,0.0,0.0,0.0,0.0,0.0,0.0,0.0,0.0,0.0,0.0,0.0,0.0,0.0,0.0,0.0,0.0,0.0,0.0,0.0,0.0,0.0,0.0,0.0,0.0,0.0,0.0,0.0,0.0,0.0,0.0,0.0,0.0,0.0,0.0,0.0,0.0,0.0,0.0,0.0,0.0,0.0,0.0,0.0,0.0,0.0,0.0,0.0,0.0,0.0,0.0,0.0,0.0,0.0,0.0,0.0,0.0,0.0,0.0,0.0,0.0,0.0,0.0,0.0,0.0,0.0,0.0,0.0,0.0,0.0,0.0,0.0,0.0,0.0,0.0,0.0,0.0,0.0,0.0,2.3558,2.5413,2.5815,2.4547,2.2771,2.1346,0.0,0.0,0.0,0.0,0.0,0.0,0.0,0.0,0.0,0.0,0.0,0.0,0.0,0.0,0.0,0.0,0.0,0.0,0.0,0.0,0.0,0.0,0.0,0.0,0.0,0.0,0.0,0.0,0.0,0.0,0.0,0.0,0.0,0.0,0.0,0.0,0.0,0.0,0.0,0.0,0.0,0.0,0.0,0.0,0.0,0.0,0.0,0.0,0.0,0.0,0.0,0.0,0.0,0.0,0.0,0.0,0.0,0.0,0.0,0.0,0.0,0.0,0.0,0.0,0.0,0.0,0.0,0.0,0.0,0.0,0.0,0.0,0.0,0.0,0.0,0.0,0.0,0.0,0.0,0.0,0.0,0.0,0.0,0.0,0.0,0.0,0.0,0.0,0.0,0.0,0.0,0.0,0.0,0.0,0.0,0.0,0.0,0.0,0.0,0.0,0.0,0.0,0.0,0.0,0.0,0.0,0.0,0.0,2.4636,2.4491,2.8208,2.9707,2.8703,2.4866,2.2582,0.0,0.0,0.0,0.0,0.0,0.0,0.0,0.0,0.0,0.0,0.0,0.0,0.0,0.0,0.0,0.0,0.0,0.0,0.0,0.0,0.0,0.0,0.0,0.0,0.0,0.0,0.0,0.0,0.0,0.0,0.0,0.0,0.0,0.0,0.0,0.0,0.0,0.0,0.0,0.0,0.0,0.0,0.0,0.0,0.0,0.0,0.0,0.0,0.0,0.0,0.0,0.0,0.0,0.0,0.0,0.0,0.0,0.0,0.0,0.0,0.0,0.0,0.0,0.0,0.0,0.0,0.0,0.0,0.0,0.0,0.0,0.0,0.0,0.0,0.0,0.0,0.0,0.0,0.0,0.0,0.0,0.0,0.0,0.0,0.0,0.0,0.0,0.0,0.0,0.0,0.0,0.0,0.0,0.0,0.0,0.0,0.0,0.0,0.0,0.0,0.0,0.0,0.0,0.0,0.0,0.0,0.0,0.0,2.6491,2.5611,3.0332,3.2832,3.2625,2.6891,2.3631,0.0,0.0,0.0,0.0,0.0,0.0,0.0,0.0,0.0,0.0,0.0,0.0,0.0,0.0,0.0,0.0,0.0,0.0,0.0,0.0,0.0,0.0,0.0,0.0,0.0,0.0,0.0,0.0,0.0,0.0,0.0,0.0,0.0,0.0,0.0,0.0,0.0,0.0,0.0,0.0,0.0,0.0,0.0,0.0,0.0,0.0,0.0,0.0,0.0,0.0,0.0,0.0,0.0,0.0,0.0,0.0,0.0,0.0,0.0,0.0,0.0,0.0,0.0,0.0,0.0,0.0,0.0,0.0,0.0,0.0,0.0,0.0,0.0,0.0,0.0,0.0,0.0,0.0,0.0,0.0,0.0,0.0,0.0,0.0,0.0,0.0,0.0,0.0,0.0,0.0,0.0,0.0,0.0,0.0,0.0,0.0,0.0,0.0,0.0,0.0,0.0,0.0,0.0,0.0,0.0,0.0,0.0,0.0,2.6984,2.7758,3.1347,3.3094,3.2793,2.8525,2.606,0.0,0.0,0.0,0.0,0.0,0.0,0.0,0.0,0.0,0.0,0.0,0.0,0.0,0.0,0.0,0.0,0.0,0.0,0.0,0.0,0.0,0.0,0.0,0.0,0.0,0.0,0.0,0.0,0.0,0.0,0.0,0.0,0.0,0.0,0.0,0.0,0.0,0.0,0.0,0.0,0.0,0.0,0.0,0.0,0.0,0.0,0.0,0.0,1.8324,0.0,0.0,0.0,0.0,0.0,0.0,0.0,0.0,0.0,0.0,0.0,0.0,0.0,0.0,0.0,0.0,0.0,0.0,0.0,0.0,0.0,0.0,0.0,0.0,0.0,0.0,0.0,0.0,0.0,0.0,0.0,0.0,0.0,0.0,0.0,0.0,0.0,0.0,0.0,0.0,0.0,0.0,0.0,0.0,0.0,0.0,0.0,0.0,0.0,0.0,0.0,0.0,0.0,0.0,0.0,0.0,0.0,0.0,0.0,2.808,2.9061,3.2509,3.4141,3.3613,3.0918,2.8601,0.0,0.0,0.0,0.0,0.0,0.0,0.0,0.0,0.0,0.0,0.0,0.0,0.0,0.0,0.0,0.0,0.0,0.0,0.0,0.0,0.0,0.0,0.0,0.0,0.0,0.0,0.0,0.0,0.0,0.0,0.0,0.0,0.0,0.0,0.0,0.0,0.0,0.0,0.0,0.0,0.0,0.0,0.0,0.0,0.0,0.0,0.0,0.0,0.0,0.0,0.0,0.0,0.0,0.0,0.0,0.0,0.0,0.0,0.0,0.0,0.0,0.0,0.0,0.0,0.0,0.0,0.0,0.0,0.0,0.0,0.0,0.0,0.0,0.0,0.0,0.0,0.0,0.0,0.0,0.0,0.0,0.0,0.0,0.0,0.0,0.0,0.0,0.0,0.0,0.0,0.0,0.0,0.0,0.0,0.0,0.0,0.0,0.0,0.0,0.0,0.0,0.0,0.0,0.0,0.0,0.0,0.0,2.6971,2.9279,3.0316,3.3743,3.5371,3.4883,3.3156,3.0634,2.7298,0.0,0.0,0.0,0.0,0.0,0.0,0.0,0.0,0.0,0.0,0.0,0.0,0.0,0.0,0.0,0.0,0.0,0.0,0.0,0.0,0.0,0.0,0.0,0.0,0.0,0.0,0.0,0.0,0.0,0.0,0.0,0.0,0.0,0.0,0.0,0.0,0.0,0.0,1.7675,1.7505,0.0,0.0,0.0,0.0,0.0,0.0,0.0,0.0,1.872,0.0,0.0,0.0,0.0,0.0,0.0,0.0,0.0,0.0,0.0,0.0,0.0,0.0,0.0,0.0,0.0,0.0,0.0,0.0,0.0,0.0,0.0,0.0,0.0,0.0,0.0,0.0,0.0,0.0,0.0,0.0,0.0,0.0,0.0,0.0,0.0,0.0,0.0,0.0,0.0,0.0,0.0,0.0,0.0,0.0,0.0,0.0,0.0,0.0,0.0,0.0,0.0,0.0,0.0,0.0,0.0,2.3681,2.6873,2.9831,3.2616,3.5143,3.625,3.5762,3.3469,3.0908,2.8164,0.0,0.0,0.0,0.0,0.0,0.0,0.0,0.0,0.0,0.0,0.0,0.0,0.0,0.0,0.0,0.0,0.0,0.0,0.0,0.0,0.0,0.0,0.0,0.0,0.0,0.0,0.0,0.0,0.0,0.0,0.0,0.0,0.0,0.0,0.0,0.0,0.0,0.0,0.0,1.8813,1.9336,0.0,0.0,0.0,0.0,0.0,0.0,0.0,0.0,1.9951,0.0,0.0,0.0,0.0,0.0,0.0,0.0,0.0,0.0,0.0,0.0,0.0,0.0,0.0,0.0,0.0,0.0,0.0,0.0,0.0,0.0,0.0,0.0,0.0,0.0,0.0,0.0,0.0,0.0,0.0,0.0,0.0,0.0,0.0,0.0,0.0,0.0,0.0,0.0,0.0,0.0,0.0,0.0,0.0,0.0,0.0,0.0,0.0,0.0,0.0,0.0,0.0,0.0,0.0,0.0,2.496,2.6945,2.9225,3.1768,3.3374,3.4413,3.4892,3.2544,3.0543,0.0,0.0,0.0,0.0,0.0,0.0,0.0,0.0,0.0,0.0,0.0,0.0,0.0,0.0,0.0,0.0,0.0,0.0,0.0,0.0,0.0,0.0,0.0,0.0,0.0,0.0,0.0,0.0,0.0,0.0,0.0,0.0,0.0,0.0,0.0,0.0,0.0,0.0,0.0,0.0,2.0307,2.0879,2.2333,0.0,0.0,0.0,0.0,0.0,0.0,2.2279,2.0437,0.0,0.0,0.0,0.0,0.0,0.0,0.0,0.0,0.0,0.0,0.0,0.0,0.0,0.0,0.0,0.0,0.0,0.0,0.0,0.0,0.0,0.0,0.0,0.0,0.0,0.0,0.0,0.0,0.0,0.0,0.0,0.0,0.0,0.0,0.0,0.0,0.0,0.0,0.0,0.0,0.0,0.0,0.0,0.0,0.0,0.0,0.0,0.0,0.0,0.0,0.0,0.0,0.0,0.0,0.0,2.5697,2.7125,2.8678,3.0449,3.1981,3.3116,3.3807,3.1597,2.9983,0.0,0.0,0.0,0.0,0.0,0.0,0.0,0.0,0.0,0.0,0.0,0.0,0.0,0.0,0.0,0.0,0.0,0.0,0.0,0.0,0.0,0.0,0.0,0.0,0.0,0.0,0.0,0.0,0.0,0.0,0.0,0.0,0.0,0.0,0.0,0.0,0.0,0.0,0.0,0.0,0.0,2.2484,2.3778,2.4346,0.0,0.0,0.0,0.0,2.5213,2.3214,0.0,0.0,0.0,0.0,0.0,0.0,0.0,0.0,0.0,0.0,0.0,0.0,0.0,0.0,0.0,0.0,0.0,0.0,0.0,0.0,0.0,0.0,0.0,0.0,0.0,0.0,0.0,0.0,0.0,0.0,0.0,0.0,0.0,0.0,0.0,0.0,0.0,0.0,0.0,0.0,0.0,0.0,0.0,0.0,0.0,0.0,0.0,0.0,0.0,0.0,0.0,0.0,0.0,0.0,0.0,0.0,2.4597,2.7421,2.9308,3.0298,3.3995,3.5243,3.3498,3.1294,2.9397,0.0,0.0,0.0,0.0,0.0,0.0,0.0,0.0,0.0,0.0,0.0,0.0,0.0,0.0,0.0,0.0,0.0,0.0,0.0,0.0,0.0,0.0,0.0,0.0,0.0,0.0,0.0,0.0,0.0,0.0,0.0,0.0,0.0,0.0,0.0,0.0,0.0,0.0,0.0,0.0,0.0,2.4043,2.6563,2.642,2.6208,0.0,0.0,2.7479,2.6445,2.6245,0.0,0.0,0.0,0.0,0.0,0.0,0.0,0.0,0.0,0.0,0.0,0.0,0.0,0.0,0.0,0.0,0.0,0.0,0.0,0.0,0.0,0.0,0.0,0.0,0.0,0.0,0.0,0.0,0.0,0.0,0.0,0.0,0.0,0.0,0.0,0.0,0.0,0.0,0.0,0.0,0.0,0.0,0.0,0.0,0.0,0.0,0.0,0.0,0.0,0.0,0.0,0.0,0.0,0.0,0.0,2.4095,2.4637,2.6563,2.7889,2.8518,3.036,3.1403,3.1523,2.8284,2.6852,0.0,0.0,0.0,0.0,0.0,0.0,0.0,0.0,0.0,0.0,0.0,0.0,0.0,0.0,0.0,0.0,0.0,0.0,0.0,0.0,0.0,0.0,0.0,0.0,0.0,0.0,0.0,0.0,0.0,0.0,0.0,0.0,0.0,0.0,0.0,0.0,0.0,0.0,0.0,0.0,0.0,0.0,2.6832,2.7696,0.0,0.0,0.0,2.8392,2.6567,0.0,0.0,0.0,0.0,0.0,0.0,0.0,0.0,0.0,0.0,0.0,0.0,0.0,0.0,0.0,0.0,0.0,0.0,0.0,0.0,0.0,0.0,0.0,0.0,0.0,0.0,0.0,0.0,0.0,0.0,0.0,0.0,0.0,0.0,0.0,0.0,0.0,0.0,0.0,0.0,0.0,0.0,0.0,0.0,0.0,0.0,0.0,0.0,0.0,0.0,0.0,0.0,0.0,0.0,0.0,0.0,0.0,2.481,2.5994,2.6867,2.7296,2.7976,2.8726,2.9537,2.6655,0.0,0.0,0.0,0.0,0.0,0.0,0.0,0.0,0.0,0.0,0.0,0.0,0.0,0.0,0.0,0.0,0.0,0.0,0.0,0.0,0.0,0.0,0.0,0.0,0.0,0.0,0.0,1.4472,0.0,0.0,0.0,0.0,0.0,0.0,0.0,0.0,0.0,0.0,0.0,0.0,0.0,0.0,2.7122,2.7001,2.8476,2.9281,0.0,0.0,2.8876,2.6822,2.7157,2.6621,0.0,0.0,0.0,0.0,0.0,0.0,0.0,0.0,0.0,0.0,0.0,0.0,0.0,0.0,0.0,0.0,0.0,0.0,0.0,0.0,0.0,0.0,0.0,0.0,0.0,0.0,0.0,0.0,0.0,0.0,0.0,0.0,0.0,0.0,0.0,0.0,0.0,0.0,0.0,0.0,0.0,0.0,0.0,0.0,0.0,0.0,0.0,0.0,0.0,0.0,0.0,0.0,0.0,0.0,2.4778,2.4843,2.6416,2.7255,2.7363,2.9818,3.0244,2.8421,2.8385,2.7753,0.0,0.0,0.0,0.0,0.0,0.0,0.0,0.0,0.0,0.0,0.0,0.0,0.0,0.0,0.0,0.0,0.0,0.0,0.0,0.0,0.0,0.0,0.0,0.0,0.0,0.0,0.0,0.0,0.0,0.0,0.0,0.0,0.0,0.0,0.0,0.0,0.0,0.0,0.0,0.0,0.0,2.8897,2.788,2.8645,2.9204,0.0,2.9132,2.8901,2.7752,2.8596,2.8379,2.5395,0.0,0.0,0.0,0.0,0.0,0.0,0.0,0.0,0.0,0.0,0.0,0.0,0.0,0.0,0.0,0.0,0.0,0.0,0.0,0.0,0.0,0.0,0.0,0.0,0.0,0.0,0.0,0.0,0.0,0.0,0.0,0.0,0.0,0.0,0.0,0.0,0.0,0.0,0.0,0.0,0.0,0.0,0.0,0.0,0.0,0.0,0.0,0.0,0.0,0.0,0.0,0.0,0.0,2.5014,2.5486,2.6495,2.7161,2.7563,2.8593,2.8717,2.7911,2.7006,2.6056,0.0,0.0,0.0,0.0,0.0,0.0,0.0,0.0,0.0,0.0,0.0,0.0,0.0,0.0,0.0,0.0,0.0,0.0,0.0,0.0,0.0,0.0,0.0,0.0,0.0,0.0,0.0,0.0,1.9648,1.9765,1.8689,0.0,0.0,0.0,0.0,0.0,0.0,0.0,0.0,0.0,0.0,2.8436,2.9725,3.0237,0.0,0.0,3.0388,3.0234,2.835,2.9149,2.8875,2.561,2.4945,0.0,0.0,0.0,0.0,0.0,0.0,0.0,0.0,0.0,0.0,0.0,0.0,0.0,0.0,0.0,0.0,0.0,0.0,0.0,0.0,0.0,0.0,0.0,0.0,0.0,0.0,0.0,0.0,0.0,0.0,0.0,0.0,0.0,0.0,0.0,0.0,0.0,0.0,0.0,0.0,0.0,0.0,0.0,0.0,0.0,0.0,0.0,0.0,0.0,0.0,0.0,0.0,2.5329,2.6055,2.6537,2.7067,2.7696,2.7615,2.7615,2.7655,2.6413,2.5523,2.5027,0.0,0.0,0.0,0.0,0.0,0.0,0.0,0.0,0.0,0.0,0.0,0.0,0.0,0.0,0.0,0.0,0.0,0.0,0.0,0.0,0.0,0.0,0.0,0.0,0.0,0.0,0.0,2.1211,2.1035,1.9823,0.0,0.0,0.0,0.0,0.0,0.0,0.0,0.0,0.0,0.0,2.8947,3.0323,3.0743,3.0681,3.0094,3.0586,3.0387,2.8748,2.9238,2.8933,2.6294,0.0,0.0,0.0,0.0,0.0,0.0,0.0,0.0,0.0,0.0,0.0,0.0,0.0,0.0,0.0,0.0,0.0,0.0,0.0,0.0,0.0,0.0,0.0,0.0,0.0,0.0,0.0,2.1894,0.0,0.0,2.1876,0.0,0.0,0.0,0.0,0.0,0.0,0.0,0.0,0.0,0.0,0.0,0.0,0.0,0.0,0.0,0.0,0.0,0.0,0.0,0.0,0.0,0.0,2.5771,2.6499,2.6725,2.7108,2.7669,2.7469,2.7469,2.7669,2.7416,2.703,2.6627,0.0,0.0,0.0,0.0,0.0,0.0,0.0,0.0,0.0,0.0,0.0,0.0,0.0,0.0,0.0,0.0,0.0,0.0,0.0,0.0,0.0,0.0,0.0,0.0,0.0,0.0,1.8401,1.9647,2.0664,0.0,0.0,0.0,0.0,0.0,0.0,0.0,0.0,0.0,2.5322,2.8999,3.1077,2.9274,2.9724,3.0163,2.9755,2.9352,2.9012,2.8937,2.8937,2.8633,0.0,0.0,0.0,0.0,0.0,0.0,0.0,0.0,0.0,0.0,0.0,0.0,0.0,0.0,0.0,0.0,0.0,0.0,0.0,0.0,0.0,0.0,0.0,0.0,0.0,0.0,0.0,2.4263,2.3978,0.0,0.0,0.0,0.0,0.0,0.0,0.0,0.0,0.0,0.0,0.0,2.4982,2.4329,0.0,0.0,0.0,0.0,0.0,0.0,0.0,0.0,0.0,0.0,0.0,0.0,2.6389,2.6892,2.7074,2.7308,2.7682,2.7602,2.7602,2.7696,2.7456,2.7124,2.6714,0.0,0.0,0.0,0.0,0.0,0.0,0.0,0.0,0.0,0.0,0.0,0.0,0.0,0.0,0.0,0.0,0.0,0.0,0.0,0.0,0.0,0.0,0.0,0.0,0.0,2.1582,0.0,0.0,0.0,0.0,0.0,0.0,0.0,0.0,0.0,0.0,2.4697,2.6393,2.7891,2.8905,2.9778,3.0517,3.0898,3.1298,0.0,0.0,0.0,0.0,0.0,0.0,0.0,0.0,0.0,0.0,0.0,0.0,0.0,2.5879,2.4863,2.2852,2.3086,2.3552,2.3552,0.0,0.0,0.0,0.0,0.0,0.0,0.0,0.0,0.0,0.0,0.0,0.0,0.0,0.0,2.5285,2.4676,2.5076,0.0,0.0,0.0,0.0,0.0,0.0,0.0,0.0,2.3811,2.4535,2.5978,2.5439,2.5517,2.6161,2.5765,2.4838,0.0,0.0,0.0,0.0,0.0,0.0,0.0,0.0,2.6999,2.7054,2.7297,2.7615,2.7989,2.7802,2.7709,2.7696,2.7321,2.7038,2.6904,2.5533,2.4656,0.0,0.0,0.0,0.0,0.0,0.0,0.0,0.0,0.0,0.0,0.0,0.0,0.0,0.0,0.0,0.0,0.0,0.0,0.0,0.0,0.0,0.0,0.0,2.3594,0.0,0.0,0.0,0.0,0.0,0.0,0.0,0.0,0.0,2.498,2.6426,2.8086,2.9618,2.9961,3.0391,3.1191,0.0,0.0,0.0,0.0,0.0,0.0,0.0,2.9735,2.873,2.8594,2.8652,2.8789,2.8887,2.8965,2.8965,0.0,0.0,2.5737,2.5547,2.5698,2.5698,2.3895,2.2579,2.3319,2.1699,2.0465,0.0,0.0,0.0,0.0,2.6157,0.0,0.0,0.0,2.5797,2.5188,0.0,2.5313,0.0,0.0,0.0,0.0,2.4524,2.4589,0.0,0.0,2.677,2.6947,2.5784,2.6265,2.6386,2.6065,2.5032,2.4983,2.5865,2.5832,2.5761,0.0,0.0,0.0,0.0,0.0,2.7474,2.6998,2.7506,2.8043,2.8591,2.807,2.7762,2.7709,2.7175,2.7001,2.7256,2.688,2.6482,2.602,2.5763,0.0,0.0,0.0,0.0,0.0,0.0,0.0,0.0,0.0,0.0,0.0,0.0,0.0,0.0,0.0,0.0,0.0,0.0,0.0,0.0,2.4316,0.0,0.0,0.0,0.0,0.0,0.0,0.0,0.0,0.0,2.737,2.6152,2.875,3.0723,3.0293,0.0,0.0,0.0,0.0,3.2031,3.0106,3.0087,3.0215,2.9911,3.0478,3.1094,3.1416,0.0,0.0,3.2276,3.1142,3.0247,3.0237,2.942,2.8618,2.8312,2.6875,2.5848,2.5793,2.4401,2.317,2.3045,2.2228,2.1365,2.8373,0.0,0.0,0.0,0.0,2.6536,2.6625,2.714,2.714,2.6881,2.647,2.6803,0.0,0.0,0.0,0.0,0.0,0.0,2.5339,2.6635,2.7176,2.7843,2.8657,2.8831,2.8858,2.8764,2.823,2.8132,2.8426,2.8151,2.7246,2.5664,0.0,0.0,0.0,0.0,2.7487,2.8114,2.8689,2.9058,2.9232,2.9072,2.87,2.8072,2.7898,2.7643,2.7309,2.6958,2.677,2.6777,2.6061,0.0,0.0,0.0,0.0,0.0,0.0,0.0,0.0,0.0,0.0,0.0,0.0,0.0,0.0,0.0,0.0,0.0,0.0,0.0,2.5571,2.7376,2.7923,0.0,0.0,0.0,0.0,0.0,0.0,0.0,0.0,0.0,2.9941,3.0137,3.0586,0.0,0.0,3.1074,3.0918,3.1738,3.2344,3.2324,3.2391,0.0,3.3164,3.2676,3.2285,3.2402,3.2891,3.3172,3.3086,3.215,3.1419,3.1368,3.0057,2.8873,2.8757,2.7891,2.7146,2.7003,2.5786,2.476,2.4842,2.3648,2.2468,2.9172,2.8133,2.7748,2.7832,2.8167,2.7569,2.7635,2.8219,2.8372,2.8107,2.7647,2.8195,2.7791,2.6715,2.6694,0.0,0.0,0.0,2.6961,2.854,2.8767,2.9459,3.0581,3.0849,3.0902,3.0782,3.0774,3.0515,3.0167,2.9526,2.8386,2.6841,0.0,2.6344,2.6445,2.7479,2.8153,2.8456,2.9238,2.9713,2.9878,2.9606,2.9276,2.8741,2.8366,2.8018,2.767,2.7321,2.712,2.699,2.6569,2.5785,0.0,0.0,0.0,0.0,0.0,0.0,0.0,0.0,0.0,0.0,0.0,2.093,2.061,0.0,0.0,0.0,2.4379,2.5454,2.7295,2.8293,0.0,0.0,0.0,0.0,0.0,0.0,0.0,2.7484,3.0305,3.2413,3.2266,3.2109,3.2168,3.2715,3.248,3.2305,3.2383,0.0,3.375,3.3906,3.3926,3.4101,3.4609,3.4355,3.418,3.4531,3.4054,3.3723,3.3727,3.2537,3.153,3.1237,2.9816,2.8392,2.8392,2.7385,2.6637,2.704,2.5838,2.4807,2.4958,2.4059,2.3348,2.99,2.9622,2.8679,2.8865,2.9581,2.8112,2.811,2.9152,2.9432,2.8951,2.807,2.9379,2.8778,2.6787,2.676,0.0,2.8433,2.8473,2.9249,3.06,3.1129,3.1543,3.1824,3.2433,3.2541,3.2211,3.2514,3.2144,3.1303,3.0234,2.9352,2.8741,2.938,2.8921,2.7517,2.8848,2.921,2.8408,2.9472,3.0194,3.0493,2.9887,2.9566,2.9499,2.8741,2.8272,2.8205,2.7938,2.7482,2.6974,2.7245,2.6889,2.5647,0.0,0.0,0.0,0.0,0.0,0.0,0.0,0.0,0.0,0.0,0.0,0.0,0.0,0.0,2.3438,2.4636,0.0,2.8847,2.7752,0.0,0.0,0.0,2.8428,2.5968,2.9036,3.0653,2.8852,0.0,0.0,3.3078,3.3829,3.4487,3.4716,3.5095,3.5195,3.4805,3.5391,3.5723,3.498,3.4737,3.4638,3.4594,3.4941,3.5471,3.6332,3.5329,3.3911,3.3732,3.2047,3.0723,3.0565,2.8816,2.7326,2.7326,2.5974,2.5006,2.6152,2.5045,2.3906,2.3991,2.3919,2.3915,3.1209,3.1182,3.0917,3.0458,2.9798,2.9461,2.9579,3.0047,3.0172,3.0159,3.0087,3.0434,3.0274,2.9753,2.998,3.0234,3.0515,3.0955,3.1524,3.2099,3.2625,3.2933,3.3013,3.3387,3.3414,3.307,3.2959,3.2701,3.2273,3.173,3.0849,2.9646,2.9775,2.9231,2.8044,2.8562,2.9222,2.9864,3.0814,3.1336,3.139,3.0782,3.0274,2.982,2.9392,2.8951,2.8511,2.8245,2.8005,2.7857,2.7297,2.6425,2.5279,2.4587,0.0,0.0,0.0,0.0,0.0,0.0,0.0,0.0,0.0,2.2704,2.239,0.0,2.603,0.0,2.7227,2.8742,2.8693,2.8693,0.0,0.0,2.7268,2.7295,2.6681,2.861,2.9513,2.8312,2.9884,3.1027,3.077,3.1144,3.2399,3.4902,3.504,3.4941,3.5195,3.563,3.6074,3.6128,3.5218,3.433,3.4279,3.3144,3.3066,3.4665,3.3277,3.1949,3.1949,3.0319,2.8976,2.8864,2.7355,2.6123,2.602,2.5556,2.5402,2.5602,2.4989,2.4399,2.4422,2.4386,2.4412,3.2652,3.2666,3.2799,3.2465,3.1824,3.1183,3.1062,3.139,3.151,3.1671,3.177,3.1904,3.1957,3.1998,3.2278,3.2412,3.2438,3.2879,3.324,3.3547,3.4002,3.4269,3.4402,3.471,3.4776,3.4603,3.4442,3.4119,3.3598,3.3424,3.2666,3.149,3.1476,3.1142,3.052,2.9112,2.8791,2.9579,3.0702,3.1577,3.2072,3.1537,3.0849,3.0127,2.9446,2.8751,2.8072,2.763,2.7349,2.7202,2.6734,2.6026,2.5141,2.4203,2.3562,0.0,0.0,0.0,0.0,0.0,0.0,0.0,0.0,0.0,0.0,0.0,2.632,2.642,2.7252,2.7722,2.7621,2.7831,2.7454,2.6389,2.7627,2.805,2.6846,2.9073,3.0151,2.8738,3.0281,3.1448,3.1195,3.1472,3.2454,3.4487,3.4489,3.5116,3.7245,3.8047,3.8398,3.8596,3.7017,3.5328,3.4419,3.3162,3.2719,3.3558,3.2134,3.0615,3.0561,2.8804,2.7326,2.7235,2.6312,2.5518,2.5518,2.5518,2.5518,2.5464,2.5251,2.5013,2.4986,2.5024,2.4986,3.3948,3.3961,3.4255,3.4376,3.4282,3.3066,3.2639,3.2835,3.3089,3.3173,3.3227,3.3507,3.3641,3.363,3.3948,3.4055,3.4068,3.4362,3.4564,3.4831,3.5204,3.5485,3.5698,3.5992,3.6167,3.6126,3.6126,3.5685,3.4895,3.4869,3.4295,3.3334,3.3307,3.324,3.2923,3.0065,2.8754,2.9179,3.0247,3.1303,3.238,3.1711,3.0962,3.0186,2.9098,2.8177,2.7456,2.6854,2.6426,2.6185,2.6091,2.585,2.5396,2.3991,2.3605,0.0,2.3258,0.0,0.0,0.0,0.0,0.0,0.0,0.0,0.0,2.4675,2.5873,2.7764,2.6326,2.5667,2.6495,2.6481,2.621,2.5837,2.8327,2.913,2.691,2.9508,3.0917,2.9139,3.0747,3.2028,3.1824,3.241,3.2786,3.3338,3.3491,3.4954,3.8808,3.9622,3.9621,4.0276,3.8317,3.5367,3.396,3.3242,3.2889,3.297,3.1229,2.9665,2.9512,2.7743,2.6263,2.6236,2.605,2.5785,2.5692,2.5705,2.5692,2.5678,2.5651,2.5585,2.5491,2.5464,2.5518,3.4242,3.4269,3.4563,3.4683,3.4748,3.4883,3.4589,3.3988,3.4042,3.4202,3.4494,3.4736,3.4857,3.487,3.4923,3.495,3.4963,3.5257,3.5351,3.5431,3.6019,3.6166,3.6019,3.6286,3.6299,3.614,3.6126,3.5738,3.5124,3.511,3.4295,3.2795,3.2755,3.2286,3.1316,0.0,0.0,0.0,3.1249,3.1009,3.1396,2.9967,2.9112,2.8938,2.8526,0.0,2.8018,2.7629,2.7321,2.7068,2.66,0.0,0.0,0.0,0.0,0.0,0.0,0.0,0.0,0.0,0.0,0.0,2.4497,2.4709,2.5007,2.5062,2.6061,2.8314,2.7295,2.676,2.7391,2.7418,2.7162,2.668,2.7127,2.7301,2.68,2.7453,2.7722,2.7742,2.8108,2.8378,2.8542,2.8589,2.9623,3.1549,3.2148,3.3488,3.6128,3.5925,3.535,3.518,3.3855,3.2241,3.1816,3.048,3.013,3.0621,2.9563,2.8194,2.7893,2.7581,2.7041,2.7015,2.7015,2.6827,2.66,2.6573,2.6466,2.6266,2.6226,2.6079,2.5611,2.5518,2.5518,3.475,3.4763,3.491,3.5057,0.0,3.5511,3.5458,3.5191,3.5177,3.5271,3.5471,3.5565,3.5631,3.5631,3.5778,3.5845,3.5859,3.6139,3.6218,3.6245,3.658,3.6633,3.65,3.6647,3.6647,3.65,3.65,3.6206,3.5658,3.5631,3.503,3.3919,3.3905,3.3561,3.2986,3.2826,3.2808,3.2808,3.2086,3.1944,3.2465,3.1383,3.0488,2.9913,2.9325,0.0,0.0,0.0,0.0,0.0,0.0,0.0,0.0,2.6198,2.6128,2.7301,2.6654,2.643,2.6874,2.6766,2.6509,2.6197,2.6466,2.6459,2.6065,2.651,2.7365,2.8562,2.8192,2.8001,2.831,2.8243,2.803,2.7736,2.7562,2.7535,2.7669,2.7709,2.7816,2.8083,2.815,2.8136,2.815,2.8123,2.8747,3.0169,3.0368,3.0864,3.2274,3.387,3.4547,3.3496,3.2589,3.1496,3.0496,2.9444,2.8794,2.9522,2.8688,2.7752,2.755,2.7403,2.7309,2.7309,2.7309,2.7242,2.7094,2.7041,2.7001,2.6867,2.6867,2.6787,2.6413,2.6159,2.5945,3.5204,3.5204,3.5257,3.5378,3.5565,3.5658,3.5992,3.6299,3.6247,0.0,0.0,3.6206,3.6219,3.6246,3.6473,3.658,3.6593,3.6779,3.6885,3.6885,3.6885,3.6885,3.6885,3.6885,3.6885,3.6885,3.6885,3.6647,3.614,3.6126,3.5778,3.5244,3.5204,3.5204,3.5177,3.4963,3.4293,3.3116,3.2755,3.2929,3.3521,3.2929,3.2024,3.0976,3.0247,2.9499,2.8791,2.847,2.8312,2.8259,2.7804,2.759,2.767,2.6961,2.6613,2.6747,2.6546,2.676,2.7697,2.7376,2.7523,2.8446,2.85,2.811,2.7241,2.8163,2.8764,2.8764,2.8988,2.9148,2.9148,2.8938,2.8764,2.8764,2.8526,2.8404,2.8631,2.8684,2.8724,2.8948,2.8935,2.8988,2.8935,2.8748,2.8871,2.9316,2.9222,2.8764,2.9371,3.1959,3.3369,3.1972,3.1523,3.1296,3.0008,2.9303,2.9068,2.9038,2.8446,2.7936,2.7776,2.7617,2.7483,2.751,2.7469,2.7456,2.7403,2.7376,2.7362,2.7322,2.7309,2.7309,2.7269,2.6921,2.6547,3.5204,3.5217,3.5458,3.5444,3.5324,3.6059,3.67,3.7141,3.666,3.6446,3.646,3.6714,3.6765,3.6765,3.6805,3.6819,3.6832,3.6914,3.6885,3.6885,3.6885,3.6885,3.6885,3.6885,3.6885,3.6885,3.6885,3.6633,3.6126,3.6126,3.5778,3.5257,3.5204,3.5204,3.5191,3.5151,3.503,3.479,3.337,3.2527,3.2332,3.1336,3.0587,3.0114,2.978,2.9499,2.9366,2.9085,2.8761,2.8551,2.8457,2.8644,2.9125,2.8818,2.8938,2.9704,2.9744,2.9646,2.9553,2.97,2.9798,2.9673,2.9673,2.9348,2.8761,2.9112,2.9366,2.9366,2.9606,2.9748,2.978,2.9513,2.9339,2.9339,2.9085,2.8895,2.8948,2.8948,2.8975,2.9028,2.9001,2.9015,2.9041,2.8975,2.9055,2.9352,2.9205,2.8948,2.9025,2.9091,2.9282,2.9176,2.9199,2.9271,2.9454,2.9503,2.9312,2.9028,2.8895,2.8591,2.8219,2.8112,2.8072,2.8058,2.8045,2.7951,2.7722,2.7642,2.7562,2.7429,2.7376,2.7362,2.7376,2.7201,2.7041,3.5284,3.5444,3.5578,3.5738,3.5952,3.6513,3.6981,3.7355,3.7101,3.7074,3.7221,3.7299,3.7366,3.7366,3.7408,3.7366,3.7408,3.7422,3.7408,3.7408,3.7366,3.7408,3.7366,3.7352,3.7408,3.7352,3.7248,3.6874,3.634,3.6153,3.5765,3.5231,3.5204,3.5204,3.5191,3.5044,3.4963,3.495,3.4374,3.3761,3.3307,3.2625,3.2099,3.1597,3.135,3.1189,3.1189,3.1009,3.0889,3.0755,3.0581,3.0635,3.0875,3.0635,3.0581,3.0808,3.0835,3.0702,3.0408,3.0413,3.0234,2.994,2.9913,2.9806,2.9495,2.9633,2.9713,2.9713,2.9847,2.9913,2.9913,2.9793,2.9726,2.9713,2.9579,2.9468,2.9468,2.9468,2.9468,2.9468,2.9513,2.9468,2.9468,2.9379,2.9392,2.9633,2.9472,2.9232,2.9028,2.8831,2.8684,2.8831,2.8978,2.9259,2.9619,2.9566,2.9499,2.9455,2.9202,2.8921,2.8657,2.8617,2.8617,2.8617,2.8511,2.8364,2.819,2.8043,2.7938,2.7844,2.7777,2.7777,2.7777,2.767,2.7402,3.5525,3.5725,3.5725,3.6032,3.6513,3.6685,3.7088,3.7462,3.7475,3.7689,3.7983,3.7876,3.7809,3.7809,3.7809,3.7809,3.7809,3.7809,3.7809,3.7809,3.7809,3.7809,3.7809,3.7809,3.7809,3.7782,3.7529,3.7114,3.6607,3.6246,3.5765,3.5244,3.5124,3.5097,3.5097,3.4817,3.467,3.4683,3.4883,3.475,3.4242,3.4002,3.3614,3.3106,3.2835,3.2688,3.2688,3.2634,3.2594,3.2581,3.238,3.2198,3.2198,3.2045,3.173,3.1463,3.1423,3.133,3.1102,3.0942,3.0734,3.0341,3.0314,3.0261,3.0127,3.0114,3.0047,2.994,2.9913,2.994,3.0007,2.994,2.994,2.9993,3.002,3.0007,3.0007,3.002,3.002,3.002,2.9953,2.99,2.9873,2.9713,2.9673,2.9806,2.9713,2.9486,2.9242,2.9188,2.9188,2.9215,2.9339,2.9446,2.974,2.9713,2.9659,2.982,2.9526,2.9188,2.9041,2.8975,2.8988,2.8935,2.8845,2.8711,2.8671,2.8524,2.8393,2.8299,2.8245,2.8245,2.8138,2.7991,2.7669,3.5938,3.6032,3.5803,3.6206,3.6281,3.6376,3.6743,3.7476,3.7712,3.8103,3.8113,3.8006,3.7722,3.7809,3.7836,3.7849,3.7836,3.7823,3.7836,3.7836,3.7823,3.7809,3.7849,3.7836,3.7809,3.7796,3.7529,3.7221,3.6805,3.6326,3.5778,3.5231,3.4989,3.4869,3.4842,3.4509,3.4362,3.4362,3.4389,3.4242,3.3948,3.3908,3.3721,3.3387,3.3093,3.2995,3.2933,3.2741,3.2594,3.2594,3.2581,3.2554,3.2505,3.2527,3.238,3.1942,3.1963,3.2011,3.1936,3.226,3.1928,3.1631,3.1187,3.0915,3.0511,3.055,3.0429,2.9848,2.9792,3.006,3.0306,3.01,3.0074,3.0287,3.036,3.036,3.036,3.036,3.036,3.036,3.0127,2.9913,2.998,2.9927,2.9887,2.9953,2.9887,2.9806,2.9753,2.9695,2.974,2.97,2.9459,2.9285,2.9539,2.9753,2.982,2.9673,2.974,2.9562,2.9295,2.9108,2.9015,2.9161,2.9015,2.8961,2.8948,2.8908,2.8831,2.8604,2.8524,2.847,2.8272,2.8152,2.7924,3.2427,3.1005,3.095,3.1154,3.1383,3.1394,3.1726,3.2264,3.2287,3.2631,3.3008,3.2915,3.4833,3.8242,3.8344,3.8286,3.8299,3.8357,3.8344,3.8344,3.8357,3.8286,3.8357,3.8357,3.8263,3.8063,3.7782,3.7395,3.6914,3.6353,3.5952,3.5738,3.5257,3.5069,3.4977,3.4389,3.4068,3.4055,3.3881,3.3721,3.3654,3.3788,3.3734,3.344,3.3293,3.324,3.3227,3.312,3.3066,3.3053,3.3053,3.2296,3.0777,3.2197,3.2087,3.0252,3.1146,3.1234,2.9758,2.9746,2.8934,2.7143,2.685,2.661,2.6232,2.6187,2.6095,2.6214,2.8553,3.0488,3.0536,3.0501,3.0488,3.0595,3.0667,3.0562,3.0621,3.0621,3.0621,3.0608,3.0515,3.0421,3.0408,3.0287,3.0194,3.0154,3.0047,2.994,2.9927,2.9913,2.9913,2.9887,2.9655,2.9713,2.9927,3.0132,3.0167,3.0221,3.0194,3.002,2.986,2.9646,2.9522,2.9495,2.9406,2.9312,2.9299,2.9095,2.8935,2.8801,2.8641,2.8564,2.8486,2.8312,2.8072,2.9365,2.7657,2.7554,2.7655,2.7863,2.7874,2.8076,2.8409,2.848,2.8763,2.9188,2.936,3.1863,3.5787,3.6186,3.6199,3.6199,3.6186,3.6207,3.6158,3.6145,3.6588,3.7283,3.7309,3.7643,3.8166,3.7863,3.7382,3.6834,3.642,3.6153,3.6006,3.5485,3.4808,3.4017,3.3214,3.2366,3.1563,3.1301,3.1151,3.1126,3.1414,3.2099,3.3227,3.3414,3.305,3.2284,3.2284,3.1919,3.1151,3.1151,3.0281,2.8444,3.0079,2.9988,2.7813,2.8764,2.8922,2.7097,2.6969,2.6091,2.4166,2.3712,2.3531,2.3302,2.3252,2.3252,2.3643,2.6744,2.8758,2.8672,2.866,2.866,2.866,2.8709,2.8759,2.8619,2.925,2.9775,2.9868,3.0287,3.0795,3.0755,3.0608,3.052,3.0448,3.0301,3.0154,3.014,3.0114,3.0074,3.0127,3.01,3.0114,3.036,3.0373,3.0533,3.0541,3.048,3.0346,3.0319,3.002,2.9869,2.9726,2.9659,2.9619,2.9606,2.9362,2.9043,2.895,2.8404,2.7689,2.7404,2.7071,2.6375,2.7957,2.7787,2.7797,2.7513,2.776,2.76,2.7891,2.7692,2.8092,2.8529,2.8712,2.8941,2.9502,2.9946,2.9936,3.0037,3.0219,3.0501,3.0518,3.0411,3.0232,3.1478,3.397,3.3863,3.5263,3.724,3.6814,3.6515,3.6128,3.6226,3.634,3.5897,3.5019,3.3619,3.1336,3.0314,2.8614,2.6628,2.6284,2.584,2.584,2.5861,2.8376,3.2435,3.32,3.1882,2.9825,2.9471,2.8342,2.5727,2.5932,2.5676,2.541,2.5553,2.5368,2.4917,2.4799,2.4724,2.4569,2.4682,2.4465,2.4066,2.3533,2.3856,2.3033,2.3004,2.3004,2.3635,2.3756,2.4044,2.3565,2.413,2.4099,2.4041,2.3902,2.4138,2.4053,2.6362,2.7322,2.7724,2.9012,2.9855,3.0406,3.0795,3.0492,3.0492,3.065,3.0702,3.0635,3.0474,3.0415,3.0371,3.0364,3.0368,3.029,3.0501,3.052,3.056,3.0568,3.0327,3.0087,2.9927,2.9869,2.9869,2.986,2.9833,2.9873,2.9672,2.9259,2.8499,2.6604,2.5842,2.5542,2.3511,2.2984,2.3834,2.2128,2.207,2.207,2.2086,2.2198,2.2342,2.251,2.2627,2.2834,2.3126,2.3302,2.3353,2.3416,2.3466,2.5764,2.9349,2.9592,2.9542,2.9542,2.9542,3.0084,3.0883,3.0827,3.1065,3.1813,3.1738,3.1353,3.1048,3.1014,3.089,3.0596,3.009,2.9181,2.8177,2.744,2.6536,2.5635,2.545,2.5412,2.5168,2.5313,2.6335,2.7986,2.8127,2.772,2.67,2.67,2.6188,2.5215,2.5215,2.4375,2.2654,2.2153,2.2757,2.4127,2.4162,2.3366,2.1961,2.1736,2.0952,1.9367,1.9121,1.9182,1.8928,1.8912,1.8912,1.8977,1.896,1.8789,1.9404,2.1536,2.3654,2.363,2.3602,2.3507,2.3855,2.458,2.511,2.5244,2.5946,2.6343,2.6941,2.7641,2.8499,2.8721,2.9822,3.0498,3.0736,3.0688,2.9925,2.9018,2.9677,2.9746,2.6208,2.9211,3.0869,3.0862,3.0808,3.0445,3.02,2.9429,2.9247,2.8861,2.9118,2.9034,2.8661,2.7768,2.7693,2.7002,2.517,2.3558,2.3268,2.1601,2.1348,2.0801,1.908,1.8905,1.8963,1.8977,1.9013,1.9115,1.9217,1.9366,1.9515,1.9732,1.9813,1.9956,1.9956,2.0058,2.224,2.6255,2.6491,2.6516,2.6462,2.6462,2.6901,2.7661,2.764,2.7884,2.8404,2.8275,2.8062,2.7884,2.7874,2.7799,2.7678,2.7146,2.6315,2.5352,2.4699,2.4065,2.3267,2.2947,2.2892,2.2828,2.2819,2.2782,2.2662,2.2635,2.3065,2.3775,2.3878,2.3362,2.27,2.2545,2.163,1.9747,1.9221,1.9775,2.1434,2.1461,2.0718,1.9205,1.8778,1.8034,1.6469,1.6194,1.6133,1.6133,1.613,1.613,1.611,1.6185,1.6205,1.6771,1.9411,2.147,2.1397,2.1401,2.1401,2.145,2.2077,2.2994,2.3821,2.4151,2.4054,2.4054,2.5292,2.6031,2.6211,2.7688,2.8499,2.858,2.8401,2.8026,2.6462,2.7251,2.6869,2.5158,2.6684,2.7747,2.7819,2.8135,2.86,2.8833,2.8294,2.7999,2.7826,2.7686,2.7591,2.7012,2.6003,2.5355,2.4934,2.3094,2.1185,2.0691,2.0043,1.9499,1.9249,1.9176,1.9196,1.9169,1.9162,1.9196,1.9203,1.9244,1.9379,1.9535,1.9732,1.98,1.9915,2.0044,2.0044,2.032,2.085,2.109,2.104,2.0893,2.0701,2.2062,2.4296,2.4179,2.5253,2.7426,2.7685,2.7496,2.7078,2.6879,2.6865,2.7117,2.6424,2.4744,2.2566,2.2046,2.0596,1.886,1.838,1.7979,1.7473,1.8058,1.8141,1.7794,1.7826,1.8903,2.1024,2.1111,2.0027,1.7856,1.7496,1.706,1.7096,1.6872,1.6639,1.689,1.6557,1.6338,1.6331,1.6381,1.6523,1.6153,1.6133,1.6133,1.6096,1.6205,1.6239,1.6171,1.63,1.6388,1.6171,1.6699,1.7028,1.6309,1.7013,1.7062,1.7154,1.8566,2.0853,2.2711,2.3004,2.3627,2.3676,2.3655,2.3781,2.3868,2.439,2.4853,2.5014,2.4886,2.3984,2.3797,2.4563,2.4598,2.4166,2.3954,2.3887,2.3946,2.4359,2.479,2.5199,2.5021,2.508,2.4957,2.494,2.4839,2.4714,2.373,2.2887,2.2086,2.0253,1.8913,1.8408,1.7813,1.6749,1.9203,1.9203,1.9203,1.9203,1.9217,1.9312,1.9359,1.9373,1.9522,1.9677,1.9725,1.9766,1.9814,1.9793,1.98,1.9861,1.98,1.9807,1.9875,1.9997,2.0024,2.0429,2.1178,2.1146,2.1354,2.1825,2.1852,2.1727,2.1774,2.1607,2.1343,2.1179,2.1119,2.0445,1.9582,1.9196,1.8555,1.795,1.7751,1.7684,1.7534,1.7521,1.7446,1.7372,1.7344,1.775,1.8383,1.8326,1.7863,1.7031,1.6978,1.6863,1.6625,1.6456,1.6307,1.6171,1.611,1.6133,1.6133,1.6133,1.6133,1.6133,1.6133,1.6133,1.6146,1.6225,1.6286,1.6239,1.6327,1.632,1.6259,1.6178,1.6137,1.6133,1.6133,1.6133,1.6175,1.6864,1.7543,1.8278,1.8525,1.8525,1.8961,1.9839,2.1196,2.1392,2.2507,2.354,2.3665,2.3227,2.281,2.1707,2.2406,2.2245,2.103,2.0662,2.1083,2.1189,2.1474,2.1779,2.2018,2.204,2.2105,2.2092,2.2086,2.2008,2.1876,2.1345,2.0417,1.9491,1.8081,1.7165,1.6471,1.5896,1.5313,1.9373,1.9373,1.9373,1.9373,1.9379,1.9481,1.9515,1.9529,1.9617,1.9725,1.9725,1.9725,1.9725,1.9725,1.9725,1.9725,1.9725,1.9725,1.9759,1.9915,1.9936,1.9881,1.978,1.9644,1.9413,1.9115,1.9072,1.8877,1.8674,1.8572,1.843,1.8247,1.8138,1.8127,1.7936,1.7915,1.7915,1.7915,1.7915,1.7819,1.7751,1.7724,1.7656,1.7473,1.7507,1.7426,1.7283,1.7141,1.7032,1.6978,1.6931,1.6775,1.6486,1.6388,1.6246,1.6167,1.6133,1.6133,1.6133,1.6133,1.6133,1.6133,1.6133,1.6133,1.6167,1.6259,1.6354,1.6246,1.6334,1.6347,1.6232,1.6151,1.6133,1.6133,1.6133,1.6133,1.6133,1.6133,1.6175,1.6424,1.6325,1.6133,1.6566,1.7204,1.8517,1.8862,1.9929,2.1009,2.1009,2.0862,1.988,1.9273,1.9536,1.8708,1.7113,1.7322,1.8161,1.856,1.888,1.9247,1.9602,1.9345,1.9242,1.9038,1.8961,1.8802,1.8627,1.8308,1.7577,1.6654,1.6382,1.6018,1.569,1.5549,1.516,1.9718,1.9725,1.9718,1.9698,1.9698,1.9711,1.9705,1.9718,1.9725,1.9725,1.9725,1.9725,1.9725,1.9725,1.9725,1.9725,1.9725,1.9725,1.9732,1.9759,1.9766,1.9759,1.9732,1.9556,1.9386,1.9189,1.9054,1.883,1.8565,1.8484,1.8312,1.8131,1.8077,1.8009,1.7942,1.7915,1.7915,1.7915,1.7915,1.7915,1.7902,1.7908,1.7792,1.7609,1.7582,1.7514,1.7433,1.729,1.7134,1.6992,1.6849,1.6648,1.6479,1.6388,1.6239,1.6146,1.6133,1.6133,1.6133,1.6133,1.6133,1.6133,1.6133,1.6139,1.6144,1.6334,1.6415,1.6225,1.6374,1.6402,1.6191,1.6096,1.6133,1.6133,1.6133,1.6133,1.6133,1.6133,1.6133,1.6133,1.6133,1.6133,1.6133,1.6325,1.6424,1.6474,1.6765,1.7112,1.7162,1.7501,1.6573,1.675,1.754,1.7206,1.6291,1.6481,1.7235,1.7321,1.747,1.7605,1.7789,1.7489,1.7208,1.687,1.6671,1.6229,1.6042,1.6218,1.6159,1.592,1.5627,1.5268,1.5181,1.5181,1.5181,1.9725,1.9725,1.9725,1.9725,1.9725,1.9725,1.9718,1.9725,1.9725,1.9725,1.9725,1.9725,1.9725,1.9725,1.9725,1.9725,1.9725,1.9725,1.9725,1.9725,1.9725,1.9725,1.9725,1.9617,1.9454,1.921,1.904,1.883,1.8474,1.8321,1.8179,1.8097,1.7982,1.7907,1.7922,1.7915,1.7915,1.7915,1.7915,1.7915,1.7915,1.7915,1.7846,1.7806,1.7656,1.7582,1.7521,1.7439,1.7236,1.6992,1.6836,1.6628,1.6466,1.6381,1.6232,1.616,1.6133,1.6133,1.6133,1.6133,1.6133,1.6133,1.6133,1.613,1.6246,1.6415,1.6469,1.6415,1.649,1.6442,1.6266,1.6144,1.609,1.6133,1.6133,1.6133,1.6133,1.6133,1.6133,1.6133,1.6133,1.6133,1.6133,1.6133,1.6133,1.6133,1.6133,1.6133,1.6133,1.6133,1.6133,1.6123,1.6557,1.64,1.6171,1.6252,1.636,1.6357,1.6452,1.6608,1.67,1.6588,1.6397,1.6172,1.6328,1.6042,1.5897,1.5918,1.5629,1.5486,1.5384,1.5309,1.5221,1.5187,1.5181,1.9563,1.9556,1.9495,1.9501,1.9563,1.9563,1.9529,1.9508,1.9671,1.9617,1.959,1.9698,1.9725,1.9725,1.9725,1.9725,1.9725,1.9725,1.9725,1.9711,1.959,1.9596,1.963,1.9603,1.9406,1.9122,1.8966,1.8687,1.8375,1.8165,1.807,1.7989,1.7963,1.7922,1.7922,1.7915,1.7915,1.7915,1.7915,1.7915,1.7915,1.7915,1.7915,1.7908,1.7772,1.7724,1.7588,1.7446,1.7283,1.7019,1.6829,1.6608,1.6442,1.6293,1.6178,1.6133,1.6133,1.6133,1.6133,1.6133,1.6133,1.6133,1.6133,1.6164,1.6279,1.6395,1.6435,1.6422,1.6435,1.6361,1.6239,1.613,1.6139,1.6133,1.6133,1.6133,1.6133,1.6133,1.6133,1.6133,1.6133,1.6133,1.6133,1.6133,1.6133,1.6133,1.6133,1.6133,1.6133,1.6133,1.6133,1.6117,1.6137,1.6123,1.6117,1.6178,1.6205,1.6153,1.6133,1.6133,1.6133,1.6133,1.6126,1.6049,1.603,1.5983,1.5935,1.5832,1.5744,1.5635,1.5513,1.5398,1.5309,1.5221,1.5208,1.9406,1.9393,1.9257,1.9278,1.94,1.9406,1.9339,1.9278,1.9474,1.9515,1.9454,1.9549,1.959,1.9698,1.9576,1.961,1.9691,1.9617,1.9624,1.9583,1.9522,1.9495,1.9535,1.9413,1.9217,1.8966,1.8803,1.8498,1.8206,1.8084,1.7996,1.7963,1.7929,1.7922,1.7915,1.7915,1.7915,1.7915,1.7915,1.7915,1.7915,1.7915,1.7915,1.7908,1.7812,1.7745,1.7588,1.746,1.7331,1.7046,1.687,1.6615,1.6402,1.6225,1.611,1.6133,1.6133,1.6133,1.6133,1.6133,1.6133,1.6133,1.6103,1.6171,1.632,1.6402,1.6415,1.6388,1.6341,1.6279,1.6137,1.6133,1.6133,1.6133,1.6133,1.6133,1.6133,1.6133,1.6133,1.6133,1.6133,1.6133,1.6133,1.6133,1.6133,1.6133,1.6133,1.6133,1.6133,1.6133,1.6133,1.6139,1.6139,1.6139,1.6133,1.6139,1.6153,1.6133,1.6133,1.6133,1.6133,1.6133,1.6133,1.6105,1.6071,1.6071,1.6029,1.5961,1.5879,1.5833,1.5704,1.5527,1.5404,1.5309,1.5269,1.925,1.9244,1.9217,1.9223,1.925,1.925,1.923,1.9203,1.9271,1.9298,1.9264,1.9291,1.9379,1.9474,1.9379,1.9366,1.9468,1.9481,1.9481,1.9474,1.9454,1.9366,1.9298,1.9142,1.8986,1.8782,1.8538,1.8301,1.8104,1.8031,1.7956,1.7929,1.7915,1.7915,1.7915,1.7915,1.7915,1.7915,1.7915,1.7915,1.7915,1.7915,1.7915,1.7902,1.7751,1.7629,1.7602,1.7561,1.7507,1.7311,1.7087,1.687,1.6581,1.6381,1.6212,1.6117,1.6133,1.6133,1.6133,1.6133,1.6133,1.6139,1.6185,1.632,1.6463,1.652,1.6564,1.651,1.6469,1.6334,1.6173,1.6133,1.6133,1.6133,1.6133,1.6133,1.6133,1.6133,1.6133,1.6133,1.6133,1.6133,1.6133,1.6133,1.6133,1.6133,1.6133,1.6133,1.6133,1.6133,1.6133,1.6133,1.6133,1.6133,1.6133,1.6133,1.6133,1.6133,1.6133,1.6133,1.6133,1.6133,1.6133,1.6133,1.6126,1.6083,1.6083,1.6069,1.5981,1.5935,1.584,1.5662,1.5533,1.5425,1.5323,1.9101,1.9094,1.9027,1.9033,1.9094,1.9101,1.9067,1.9033,1.9156,1.9162,1.9128,1.9162,1.925,1.9318,1.9244,1.9257,1.9305,1.9325,1.9318,1.9305,1.9257,1.9135,1.8966,1.8796,1.8647,1.8593,1.8355,1.8138,1.7996,1.797,1.7922,1.7915,1.7915,1.7915,1.7915,1.7915,1.7915,1.7915,1.7915,1.7915,1.7915,1.7915,1.7812,1.7751,1.7568,1.7487,1.748,1.7487,1.748,1.7433,1.7372,1.7114,1.6716,1.6425,1.6286,1.6205,1.611,1.6139,1.6133,1.6133,1.6133,1.6133,1.6225,1.6368,1.6483,1.6554,1.6605,1.653,1.6442,1.632,1.6167,1.6133,1.6133,1.6133,1.6133,1.6133,1.6133,1.6133,1.6133,1.6133,1.6133,1.6133,1.6133,1.6133,1.6133,1.6133,1.6133,1.6133,1.6133,1.6133,1.6133,1.6133,1.6133,1.6133,1.6133,1.6133,1.6133,1.6133,1.6133,1.6133,1.6133,1.6133,1.6133,1.6133,1.6133,1.6133,1.6126,1.6076,1.6069,1.6044,1.5942,1.5778,1.5655,1.5533,1.5425,1.8959,1.8945,1.8816,1.8837,1.8945,1.8952,1.8891,1.8823,1.902,1.904,1.8993,1.9088,1.9115,1.9156,1.9128,1.9135,1.9169,1.9169,1.9169,1.9156,1.9081,1.8932,1.8735,1.8525,1.8396,1.843,1.8186,1.7989,1.7963,1.7915,1.7915,1.7915,1.7915,1.7915,1.7915,1.7915,1.7915,1.7915,1.7915,1.7915,1.7915,1.7915,1.7806,1.7717,1.7534,1.748,1.7426,1.7419,1.7494,1.7582,1.7595,1.7318,1.6919,1.6558,1.6334,1.632,1.6164,1.609,1.6133,1.6133,1.609,1.611,1.6259,1.6408,1.653,1.6527,1.6571,1.6483,1.6388,1.6225,1.6146,1.6133,1.6133,1.6133,1.6133,1.6133,1.6133,1.6133,1.6133,1.6133,1.6133,1.6133,1.6133,1.6133,1.6133,1.6133,1.6133,1.6133,1.6133,1.6133,1.6133,1.6133,1.6133,1.6133,1.6133,1.6133,1.6133,1.6133,1.6133,1.6133,1.6133,1.6133,1.6133,1.6133,1.6133,1.6133,1.6133,1.6126,1.6119,1.6105,1.6051,1.5893,1.5764,1.5628,1.5533,1.8796,1.8796,1.8834,1.8841,1.8854,1.8861,1.8847,1.8827,1.8888,1.8881,1.8875,1.8888,1.8932,1.8972,1.8884,1.8911,1.9006,1.902,1.9027,1.902,1.8959,1.8823,1.8565,1.8382,1.8267,1.8138,1.7996,1.7956,1.7929,1.7915,1.7915,1.7915,1.7915,1.7915,1.7915,1.7915,1.7915,1.7915,1.7915,1.7915,1.7915,1.7915,1.7895,1.7758,1.7548,1.748,1.7473,1.7426,1.7494,1.7575,1.7595,1.7527,1.7311,1.6892,1.6547,1.6361,1.6178,1.6133,1.6133,1.609,1.6151,1.6266,1.6408,1.6486,1.6601,1.6642,1.6567,1.6463,1.6286,1.616,1.6139,1.6133,1.6133,1.6133,1.6133,1.6133,1.6133,1.6133,1.6133,1.6133,1.6133,1.6133,1.6133,1.6133,1.6133,1.6133,1.6133,1.6133,1.6133,1.6133,1.6133,1.6133,1.6133,1.6133,1.6133,1.6133,1.6133,1.6133,1.6133,1.6133,1.6133,1.6133,1.6133,1.6133,1.6133,1.6133,1.6133,1.6133,1.6126,1.6119,1.6085,1.6044,1.5935,1.5806,1.5649,1.882,1.882,1.882,1.882,1.882,1.882,1.882,1.882,1.882,1.882,1.882,1.8827,1.8854,1.8837,1.881,1.8875,1.8915,1.8871,1.8877,1.8864,1.8782,1.8647,1.8423,1.8274,1.8118,1.7996,1.7949,1.7915,1.7915,1.7915,1.7915,1.7915,1.7915,1.7915,1.7915,1.7915,1.7915,1.7915,1.7915,1.7915,1.7915,1.7915,1.7895,1.7711,1.7555,1.7433,1.7378,1.7358,1.7378,1.7453,1.7548,1.7582,1.7467,1.7196,1.6842,1.6558,1.6259,1.6133,1.6153,1.6144,1.6239,1.6313,1.6452,1.656,1.6608,1.6615,1.6588,1.6429,1.6246,1.6133,1.6133,1.6133,1.6133,1.6133,1.6133,1.6133,1.6133,1.6133,1.6133,1.6133,1.6133,1.6133,1.6133,1.6133,1.6133,1.6133,1.6133,1.6133,1.6133,1.6133,1.6133,1.6133,1.6133,1.6133,1.6133,1.6133,1.6133,1.6133,1.6133,1.6133,1.6133,1.6133,1.6133,1.6133,1.6133,1.6133,1.6133,1.6133,1.6133,1.6133,1.6105,1.6078,1.603,1.5942,1.5826,1.882,1.882,1.882,1.882,1.882,1.882,1.882,1.882,1.882,1.882,1.882,1.882,1.882,1.882,1.882,1.882,1.882,1.8827,1.8813,1.8694,1.8613,1.8457,1.8274,1.8152,1.803,1.7963,1.7929,1.7915,1.7915,1.7915,1.7915,1.7915,1.7915,1.7915,1.7915,1.7915,1.7915,1.7915,1.7915,1.7915,1.7915,1.7908,1.7812,1.769,1.7487,1.7405,1.7311,1.729,1.7331,1.7392,1.7507,1.7609,1.7629,1.7372,1.7087,1.6815,1.6388,1.6185,1.6164,1.6225,1.6327,1.6391,1.6574,1.6615,1.6666,1.6673,1.6585,1.6347,1.6178,1.6133,1.6133,1.6133,1.6133,1.6133,1.6133,1.6133,1.6133,1.6133,1.6133,1.6133,1.6133,1.6133,1.6133,1.6133,1.6133,1.6133,1.6133,1.6133,1.6133,1.6133,1.6133,1.6133,1.6133,1.6133,1.6133,1.6133,1.6133,1.6133,1.6133,1.6133,1.6133,1.6133,1.6133,1.6133,1.6133,1.6133,1.6133,1.6133,1.6133,1.6133,1.6133,1.6112,1.6071,1.603,1.5942,1.882,1.882,1.8813,1.882,1.8813,1.8807,1.882,1.882,1.882,1.882,1.882,1.882,1.882,1.882,1.882,1.882,1.882,1.8813,1.8694,1.8593,1.8525,1.8375,1.8158,1.8111,1.7996,1.7936,1.7915,1.7915,1.7915,1.7915,1.7915,1.7915,1.7915,1.7915,1.7915,1.7915,1.7915,1.7915,1.7915,1.7915,1.7915,1.7915,1.7846,1.7799,1.7684,1.7487,1.7405,1.7385,1.7345,1.7385,1.7514,1.7704,1.7745,1.7419,1.7229,1.6992,1.6659,1.6286,1.6293,1.632,1.6435,1.654,1.6682,1.6809,1.6781,1.6632,1.6483,1.6334,1.6171,1.609,1.6133,1.6133,1.6133,1.6133,1.6133,1.6133,1.6133,1.6133,1.6133,1.6133,1.6133,1.6133,1.6133,1.6133,1.6133,1.6133,1.6133,1.6133,1.6133,1.6133,1.6133,1.6133,1.6133,1.6133,1.6133,1.6133,1.6133,1.6133,1.6133,1.6133,1.6133,1.6133,1.6133,1.6133,1.6133,1.6133,1.6133,1.6133,1.6133,1.6133,1.6133,1.6133,1.6126,1.6078,1.6037,1.8633,1.8626,1.8545,1.8559,1.8626,1.8633,1.8681,1.8807,1.882,1.882,1.882,1.882,1.882,1.8697,1.882,1.882,1.882,1.8517,1.8674,1.8225,1.8145,1.8118,1.8118,1.8002,1.7907,1.7493,1.7915,1.7915,1.786,1.7694,1.7915,1.7915,1.7915,1.7915,1.7915,1.7915,1.7915,1.7915,1.7915,1.7915,1.7915,1.7915,1.7915,1.7908,1.7724,1.7568,1.75,1.7399,1.7426,1.7473,1.7575,1.7656,1.7772,1.7602,1.7392,1.7161,1.6897,1.6625,1.6463,1.6442,1.652,1.6662,1.677,1.6876,1.6763,1.6598,1.6395,1.632,1.6171,1.609,1.6133,1.6133,1.6133,1.6133,1.6133,1.6133,1.6133,1.6133,1.6133,1.6133,1.6133,1.6133,1.6133,1.6133,1.6133,1.6133,1.6133,1.6133,1.6133,1.6133,1.6133,1.6133,1.6133,1.6133,1.6133,1.6133,1.6133,1.6133,1.6133,1.6133,1.6133,1.6133,1.6133,1.6133,1.6133,1.6133,1.6133,1.6133,1.6133,1.6133,1.6133,1.6133,1.6133,1.6126,1.6058,1.8423,1.8416,1.8292,1.8382,1.8477,1.8477,1.8565,1.8694,1.8701,1.8728,1.8813,1.8755,1.8407,1.7697,1.7343,1.6795,1.6173,1.6475,1.6367,1.6185,1.6071,1.5614,1.5038,1.5275,1.5296,1.5733,1.4786,1.4897,1.5174,1.5512,1.5733,1.7749,1.7915,1.7915,1.7915,1.7915,1.7915,1.7915,1.7915,1.7915,1.7915,1.7915,1.7915,1.7888,1.7765,1.7629,1.7582,1.75,1.7507,1.7554,1.7588,1.7717,1.7806,1.7697,1.748,1.7338,1.7114,1.6951,1.6809,1.6748,1.6754,1.687,1.6937,1.6978,1.6815,1.6544,1.6361,1.6381,1.6185,1.6103,1.6133,1.6133,1.6133,1.6133,1.6133,1.6133,1.6133,1.6133,1.6133,1.6133,1.6133,1.6133,1.6133,1.6133,1.6133,1.6133,1.6133,1.6133,1.6133,1.6133,1.6133,1.6133,1.6133,1.6133,1.6133,1.6133,1.6133,1.6133,1.6133,1.6133,1.6133,1.6133,1.6133,1.6133,1.6133,1.6133,1.6133,1.6133,1.6133,1.6133,1.6133,1.6133,1.6133,1.6133,1.6078,1.8124,1.8131,1.826,1.8314,1.8278,1.8335,1.8359,1.8545,1.8552,1.8525,1.8284,1.8349,1.6465,1.4994,1.4211,1.3058,1.0433,1.0083,1.0746,1.0651,0.9899,1.0652,1.0815,1.0782,1.0325,1.0325,1.0881,1.0659,0.9991,1.1159,1.3555,1.6969,1.6237,1.7301,1.719,1.6292,1.6465,1.652,1.652,1.6797,1.6907,1.7024,1.7073,1.7245,1.7508,1.773,1.7499,1.6756,1.6458,1.6441,1.6289,1.6418,1.6163,1.6181,1.6021,1.6634,1.6547,1.6616,1.6976,1.706,1.7093,1.7222,1.7236,1.7087,1.6924,1.6666,1.6524,1.6449,1.6232,1.6103,1.6133,1.6133,1.6133,1.6133,1.6133,1.6133,1.6133,1.6133,1.6133,1.6133,1.6133,1.6133,1.6133,1.6133,1.6133,1.6133,1.6133,1.6133,1.6133,1.6133,1.6133,1.6133,1.6133,1.6133,1.6133,1.6133,1.6133,1.6133,1.6133,1.6133,1.6133,1.6133,1.6133,1.6133,1.6133,1.6133,1.6133,1.6133,1.6133,1.6133,1.6133,1.6133,1.6133,1.6133,1.6071,1.8036,1.7955,1.8016,1.8091,1.8179,1.8179,1.826,1.8346,1.844,1.739,1.5819,1.3941,1.2362,1.147,1.1184,1.0688,0.9433,0.9385,0.9134,0.925,0.9208,0.9058,0.8957,0.8599,0.8989,0.8655,0.8711,0.8878,0.9101,0.8321,0.9602,1.1886,1.233,1.2274,1.233,1.2945,1.2779,1.2668,1.2557,1.2441,1.2385,1.2385,1.2385,1.2385,1.2385,1.2316,1.2112,1.2218,1.2236,1.2432,1.2566,1.2801,1.2977,1.2801,1.3512,1.4611,1.4713,1.553,1.7095,1.7197,1.7188,1.7216,1.7209,1.7134,1.6985,1.67,1.6551,1.6429,1.6259,1.6139,1.6133,1.6133,1.6133,1.6133,1.6133,1.6133,1.6133,1.6133,1.6133,1.6133,1.6133,1.6133,1.6133,1.6133,1.6133,1.6133,1.6133,1.6133,1.6133,1.6133,1.6133,1.6133,1.6133,1.6133,1.6133,1.6133,1.6133,1.6133,1.6133,1.6133,1.6133,1.6133,1.6133,1.6133,1.6133,1.6133,1.6133,1.6133,1.6133,1.6133,1.6133,1.6133,1.6133,1.6133,1.6078,1.8017,1.7922,1.7915,1.7921,1.8016,1.8023,1.8111,1.8091,1.725,1.544,1.2595,1.0315,0.8779,0.8287,0.8022,0.7099,0.6326,0.6063,0.6249,0.6047,0.5858,0.6349,0.6272,0.5981,0.5424,0.0,0.0,0.5925,0.5646,0.6148,0.6092,0.6092,0.6425,0.6983,0.9268,0.8878,0.8878,0.8933,0.8933,0.8933,0.9101,0.9156,0.9268,0.9379,0.949,0.9546,0.9639,0.9783,0.958,0.9565,0.9403,0.9193,0.9031,0.9204,1.0001,1.1116,1.217,1.325,1.5457,1.7168,1.7244,1.7324,1.729,1.7175,1.6965,1.6707,1.6537,1.6497,1.6266,1.6133,1.6133,1.6133,1.6133,1.6133,1.6133,1.6133,1.6133,1.6133,1.6133,1.6133,1.6133,1.6133,1.6133,1.6133,1.6133,1.6133,1.6133,1.6133,1.6133,1.6133,1.6133,1.6133,1.6133,1.6133,1.6133,1.6133,1.6133,1.6133,1.6133,1.6133,1.6133,1.6133,1.6133,1.6133,1.6133,1.6133,1.6133,1.6133,1.6133,1.6133,1.6133,1.6133,1.6133,1.6133,1.6133,1.7929,1.7915,1.7915,1.7867,1.7604,1.7818,1.7788,1.7139,1.454,1.1882,0.952,0.8775,0.7114,0.5283,0.4803,0.3679,0.0,0.0,0.0,0.0,0.0,0.0,0.0,0.0,0.0,0.0,0.0,0.0,0.0,0.0,0.0,0.0,0.0,0.3471,0.8265,0.8711,0.8711,0.8711,0.8265,0.7931,0.7763,0.754,0.7485,0.7373,0.7317,0.715,0.707,0.7098,0.701,0.709,0.7225,0.7283,0.7385,0.7558,0.8085,0.8805,0.8962,1.0519,1.3369,1.6206,1.737,1.7419,1.7358,1.7249,1.6992,1.6727,1.6524,1.6503,1.6259,1.6153,1.6133,1.6083,1.6083,1.6133,1.6133,1.6133,1.6133,1.6133,1.6133,1.6133,1.6133,1.6133,1.6133,1.6133,1.6133,1.6133,1.6133,1.6133,1.6133,1.6133,1.6133,1.6133,1.6133,1.6133,1.6133,1.6133,1.6133,1.6133,1.6133,1.6133,1.6133,1.6133,1.6133,1.6133,1.6133,1.6133,1.6133,1.6133,1.6133,1.6133,1.6133,1.6133,1.6133,1.6133,1.6133,1.7955,1.7915,1.7915,1.6741,1.5063,1.4897,1.4925,1.4079,1.0012,0.7091,0.5942,0.4279,0.2834,0.1787,0.0,0.0,0.0,0.0,0.0,0.0,0.0,0.0,0.0,0.0,0.0,0.0,0.0,0.0,0.0,0.0,0.0,0.0,0.0,0.0,0.2464,0.3023,0.2912,0.2968,0.2912,0.2911,0.0,0.0,0.0,0.0,0.0,0.0,0.0,0.0,0.0,0.0,0.0,0.0,0.0,0.0,0.4249,0.5358,0.6071,0.8251,1.2286,1.5809,1.7514,1.727,1.7062,1.6943,1.6946,1.67,1.6564,1.6201,1.5579,1.5555,1.6133,1.5983,1.5983,1.6083,1.6133,1.6133,1.6133,1.6133,1.6133,1.6133,1.6133,1.6133,1.6133,1.6133,1.6133,1.6133,1.6133,1.6133,1.6133,1.6133,1.6133,1.6133,1.6133,1.6133,1.6133,1.6133,1.6133,1.6133,1.6133,1.6133,1.6133,1.6133,1.6133,1.6133,1.6133,1.6133,1.6133,1.6133,1.6133,1.6133,1.6133,1.6133,1.6133,1.6133,1.6133,1.8084,1.7837,1.6818,1.5298,1.3557,1.3409,1.2404,0.9981,0.6155,0.4042,0.2811,0.0,0.0,0.0,0.0,0.0,0.0,0.0,0.0,0.0,0.0,0.0,0.0,0.0,0.0,0.0,0.0,0.0,0.0,0.0,0.0,0.0,0.0,0.0,0.0,0.0,0.0,0.0,0.0,0.0,0.0,0.0,0.0,0.0,0.0,0.0,0.0,0.0,0.0,0.0,0.0,0.0,0.0,0.0,0.0,0.24,0.4402,0.6265,0.9536,1.2526,1.3565,1.3787,1.5152,1.5692,1.5135,1.3842,1.419,1.418,1.4072,1.3601,1.3461,1.3611,1.3711,1.3711,1.3611,1.3511,1.4564,1.4464,1.5018,1.5174,1.5578,1.5678,1.5728,1.6133,1.6133,1.6133,1.6133,1.5927,1.5827,1.6026,1.6083,1.6133,1.6133,1.6133,1.6133,1.6133,1.6133,1.6133,1.6133,1.6133,1.6133,1.6133,1.6133,1.6133,1.6133,1.6133,1.6133,1.6133,1.6133,1.6133,1.6133,1.6133,1.6133,1.6133,1.6133,1.8177,1.7537,1.4859,1.3389,1.2981,1.2107,0.9258,0.4584,0.4301,0.2675,0.0,0.0,0.0,0.0,0.0,0.0,0.0,0.0,0.0,0.0,0.0,0.0,0.0,0.0,0.0,0.0,0.0,0.0,0.0,0.0,0.0,0.0,0.0,0.0,0.0,0.0,0.0,0.0,0.0,0.0,0.0,0.0,0.0,0.0,0.0,0.0,0.0,0.0,0.0,0.0,0.0,0.0,0.0,0.0,0.0,0.0839,0.2965,0.4637,0.5858,0.8635,0.9165,0.9868,1.1129,1.1988,1.2086,1.0958,1.1125,1.1181,1.0868,0.9623,0.8739,0.899,0.9194,0.9144,0.9094,0.9995,1.1549,1.2353,1.3156,1.3711,1.4315,1.4464,1.4115,1.4414,1.401,1.3661,1.3406,1.3611,1.391,1.5877,1.5927,1.6133,1.6133,1.6133,1.6083,1.5877,1.6133,1.6133,1.6133,1.6133,1.6133,1.6083,1.6133,1.6133,1.6133,1.6133,1.6133,1.6133,1.6133,1.6083,1.6033,1.6133,1.6133,1.6133,1.6133,1.706,1.4869,1.3936,1.1112,0.701,0.4814,0.2764,0.1351,0.1294,0.0,0.0,0.0,0.0,0.0,0.0,0.0,0.0,0.0,0.0,0.0,0.0,0.0,0.0,0.0,0.0,0.0,0.0,0.0,0.0,0.0,0.0,0.0,0.0,0.0,0.0,0.0,0.0,0.0,0.0,0.0,0.0,0.0,0.0,0.0,0.0,0.0,0.0,0.0,0.0,0.0,0.0,0.0,0.0,0.0,0.0,0.0,0.2576,0.4642,0.4972,0.7054,0.7767,0.6003,0.6595,0.794,0.8563,0.8614,0.8177,0.831,0.7934,0.6846,0.6486,0.6587,0.6587,0.6537,0.6637,0.7437,0.8789,0.9444,1.0295,1.1099,1.1754,1.1804,1.1599,1.1199,1.0795,1.0495,1.0545,1.0949,1.1699,1.3561,1.4514,1.4564,1.4719,1.4315,1.5323,1.5423,1.5827,1.6133,1.5778,1.5728,1.6033,1.6033,1.6083,1.5522,1.462,1.5174,1.6133,1.5678,1.4364,1.5628,1.5778,1.5977,1.6083,1.5877,1.5977,1.5573,1.3444,1.1037,0.7207,0.2924,0.0,0.0,0.0,0.0,0.0,0.0,0.0,0.0,0.0,0.0,0.0,0.0,0.0,0.0,0.0,0.0,0.0,0.0,0.0,0.0,0.0,0.0,0.0,0.0,0.0,0.0,0.0,0.0,0.0,0.0,0.0,0.0,0.0,0.0,0.0,0.0,0.0,0.0,0.0,0.0,0.0,0.0,0.0,0.0,0.0,0.0,0.0,0.0,0.0,0.0,0.0,0.1233,0.2353,0.2685,0.3776,0.3909,0.0,0.0,0.3418,0.4214,0.4421,0.5254,0.5869,0.5165,0.4579,0.473,0.4781,0.468,0.463,0.4881,0.5181,0.5783,0.6336,0.7136,0.7988,0.8339,0.8439,0.8289,0.7888,0.8088,0.8689,0.899,0.909,0.9544,1.0545,1.1249,1.1399,1.1804,1.2053,1.3107,1.376,1.3661,1.3711,1.4059,1.4265,1.5224,1.4769,1.3711,1.3007,1.2403,1.2857,1.3156,1.2707,1.2053,1.3212,1.3561,1.2707,1.3306,1.5018,1.5273,1.3643,1.2382,0.6781,0.2946,0.0,0.0,0.0,0.0,0.0,0.0,0.0,0.0,0.0,0.0,0.0,0.0,0.0,0.0,0.0,0.0,0.0,0.0,0.0,0.0,0.0,0.0,0.0,0.0,0.0,0.0,0.0,0.0,0.0,0.0,0.0,0.0,0.0,0.0,0.0,0.0,0.0,0.0,0.0,0.0,0.0,0.0,0.0,0.0,0.0,0.0,0.0,0.0,0.0,0.0,0.0,0.0,0.0,0.0,0.0,0.0,0.0,0.0,0.0,0.0,0.0,0.0,0.0,0.0,0.2699,0.0,0.0,0.0,0.0,0.0,0.0,0.0,0.3325,0.3726,0.4177,0.4931,0.5231,0.5281,0.5334,0.4982,0.4781,0.6235,0.6486,0.6336,0.0,0.0,0.8238,0.8539,0.9494,0.9945,0.9845,1.0395,1.0445,1.0745,1.1499,1.2148,1.2652,1.1953,1.0895,1.0595,1.0295,0.9344,0.9144,0.9394,0.9744,0.9694,0.9694,0.8689,0.9845,1.2303,1.3057,1.1258,0.6551,0.273,0.0637,0.0,0.0,0.0,0.0,0.0,0.0,0.0,0.0,0.0,0.0,0.0,0.0,0.0,0.0,0.0,0.0,0.0,0.0,0.0,0.0,0.0,0.0,0.0,0.0,0.0,0.0,0.0,0.0,0.0,0.0,0.0,0.0,0.0,0.0,0.0,0.0,0.0,0.0,0.0,0.0,0.0,0.0,0.0,0.0,0.0,0.0,0.0,0.0,0.0,0.0,0.0,0.0,0.0,0.0,0.0,0.0,0.0,0.0,0.0,0.0,0.0,0.0,0.0,0.0,0.0,0.0,0.0,0.0,0.0,0.0,0.0,0.0,0.0,0.0,0.0,0.0,0.0,0.0,0.0,0.0,0.0,0.1866,0.1765,0.0,0.0,0.0,0.0,0.6185,0.769,0.8092,0.7437,0.7136,0.7336,0.8038,0.884,0.949,1.0045,0.929,0.8439,0.8539,0.8238,0.6988,0.6637,0.7888,0.7988,0.6985,0.6687,0.6135,0.6687,0.8743,0.9294,0.7897,0.4432,0.0,0.0,0.0,0.0,0.0,0.0,0.0,0.0,0.0,0.0,0.0,0.0,0.0,0.0,0.0,0.0,0.0,0.0,0.0,0.0,0.0,0.0,0.0,0.0,0.0,0.0,0.0,0.0,0.0,0.0,0.0,0.0,0.0,0.0,0.0,0.0,0.0,0.0,0.0,0.0,0.0,0.0,0.0,0.0,0.0,0.0,0.0,0.0,0.0,0.0,0.0,0.0,0.0,0.0,0.0,0.0,0.0,0.0,0.0,0.0,0.0,0.0,0.0,0.0,0.0,0.0,0.0,0.0,0.0,0.0,0.0,0.0,0.0,0.0,0.0,0.0,0.0,0.0,0.0,0.0,0.0,0.0,0.0,0.0,0.0,0.0,0.0,0.0,0.0,0.0,0.0,0.0,0.3575,0.3726,0.4328,0.5181,0.6185,0.6484,0.6734,0.6433,0.6135,0.0,0.0,0.4028,0.4129,0.0,0.0,0.3375,0.3575,0.3877,0.0,0.0,0.0,0.458,0.3697,0.1167,0.0,0.0,0.0,0.0,0.0,0.0,0.0,0.0,0.0,0.0,0.0,0.0,0.0,0.0,0.0,0.0,0.0,0.0,0.0,0.0,0.0,0.0,0.0,0.0,0.0,0.0,0.0,0.0,0.0,0.0,0.0,0.0,0.0,0.0,0.0,0.0,0.0,0.0,0.0,0.0,0.0,0.0,0.0,0.0,0.0,0.0,0.0,0.0,0.0,0.0,0.0,0.0,0.0,0.0,0.0,0.0,0.0,0.0,0.0,0.0,0.0,0.0,0.0,0.0,0.0,0.0,0.0,0.0,0.0,0.0,0.0,0.0,0.0,0.0,0.0,0.0,0.0,0.0,0.0,0.0,0.0,0.0,0.0,0.0,0.0,0.0,0.0,0.0,0.0,0.0,0.0,0.0,0.0,0.0,0.257,0.3474,0.3474,0.3474,0.3474,0.0,0.0,0.0,0.0,0.0,0.0,0.0,0.0,0.0,0.0,0.0,0.0,0.0,0.3174,0.0824,0.0,0.0,0.0,0.0,0.0,0.0,0.0,0.0,0.0,0.0,0.0,0.0,0.0,0.0,0.0,0.0,0.0,0.0,0.0,0.0,0.0,0.0,0.0,0.0,0.0,0.0,0.0,0.0,0.0,0.0,0.0,0.0,0.0,0.0,0.0,0.0,0.0,0.0,0.0,0.0,0.0,0.0,0.0,0.0,0.0,0.0,0.0,0.0,0.0,0.0,0.0,0.0,0.0,0.0,0.0,0.0,0.0,0.0,0.0,0.0,0.0,0.0,0.0,0.0,0.0,0.0,0.0,0.0,0.0,0.0,0.0,0.0,0.0,0.0,0.0,0.0,0.0,0.0,0.0,0.0,0.0,0.0,0.0,0.0,0.0,0.0,0.0,0.0,0.0,0.0,0.0,0.0,0.0,0.0,0.0,0.0,0.0,0.0,0.0,0.0,0.0,0.0,0.0,0.0,0.0,0.0,0.0,0.0,0.0,0.0,0.0,0.0,0.0]},{"header":{"parameterUnit":"m.s-1","parameterCategory":1,"la1":31.0,"la2":29.5877,"lo1":-88.7671,"lo2":-86.6584,"dx":0.0162,"dy":0.0185,"nx":115,"ny":88,"refTime":"2022-12-16T06:00:00:Z","depth":0,"parameterNumber":3,"parameterNumberName":"V-component_of_WINDS"},"data":[0.0,0.0,0.0,0.0,0.0,0.0,0.0,0.0,0.0,0.0,0.0,0.0,0.0,0.0,0.0,0.0,0.0,0.0,0.0,0.0,0.0,0.0,0.0,0.0,0.0,0.0,0.0,0.0,0.0,0.0,0.0,0.0,0.0,0.0,0.0,0.0,0.0,0.0,0.0,0.0,0.0,0.0,0.0,0.0,0.0,0.0,0.0,0.0,0.0,0.0,0.0,0.0,0.0,0.0,0.0,0.0,0.0,0.0,0.0,0.0,0.0,0.0,0.0,0.0,0.0,0.0,0.0,0.0,0.0,0.0,0.0,0.0,0.0,0.0,0.0,0.0,0.0,0.0,0.0,0.0,0.0,0.0,0.0,0.0,0.0,0.0,0.0,0.0,0.0,0.0,0.0,0.0,0.0,0.0,0.0,0.0,0.0,0.0,0.0,0.0,0.0,0.0,0.0,0.0,0.0,0.0,0.0,0.0,0.0,0.0,0.0,0.0,0.0,0.0,0.0,0.0,0.0,0.0,0.0,0.0,0.0,0.0,0.0,0.0,0.0,0.0,0.0,0.0,0.0,0.0,0.0,0.0,0.0,0.0,0.0,0.0,0.0,0.0,0.0,0.0,0.0,0.0,0.0,0.0,0.0,0.0,0.0,0.0,0.0,0.0,0.0,0.0,0.0,0.0,0.0,0.0,0.0,0.0,0.0,0.0,0.0,0.0,0.0,0.0,0.0,0.0,0.0,0.0,0.0,0.0,0.0,0.0,0.0,0.0,0.0,0.0,0.0,0.0,0.0,0.0,0.0,0.0,0.0,0.0,0.0,0.0,0.0,0.0,0.0,0.0,0.0,0.0,0.0,0.0,0.0,0.0,0.0,0.0,0.0,0.0,0.0,0.0,0.0,0.0,0.0,0.0,0.0,0.0,0.0,0.0,0.0,0.0,0.0,0.0,0.0,0.0,0.0,0.0,0.0,0.0,0.0,0.0,0.0,0.0,0.0,0.0,0.0,0.0,0.0,0.0,0.0,0.0,0.0,0.0,0.0,0.0,0.0,0.0,0.0,0.0,0.0,0.0,0.0,0.0,0.0,0.0,0.0,0.0,0.0,0.0,0.0,0.0,0.0,0.0,0.0,0.0,0.0,0.0,0.0,0.0,0.0,0.0,0.0,0.0,0.0,0.0,0.0,0.0,0.0,0.0,0.0,0.0,0.0,0.0,0.0,0.0,0.0,0.0,0.0,0.0,0.0,0.0,0.0,0.0,0.0,0.0,0.0,0.0,0.0,0.0,0.0,0.0,0.0,0.0,0.0,0.0,0.0,0.0,0.0,0.0,0.0,0.0,0.0,0.0,0.0,0.0,0.0,0.0,0.0,0.0,0.0,0.0,0.0,0.0,0.0,0.0,0.0,0.0,0.0,0.0,0.0,0.0,0.0,0.0,0.0,0.0,0.0,0.0,0.0,0.0,0.0,0.0,0.0,0.0,0.0,0.0,0.0,0.0,0.0,0.0,0.0,0.0,0.0,0.0,0.0,0.0,0.0,0.0,0.0,0.0,0.0,0.0,0.0,0.0,0.0,0.0,0.0,0.0,0.0,0.0,0.0,0.0,0.0,0.0,0.0,0.0,0.0,0.0,0.0,0.0,0.0,0.0,0.0,0.0,0.0,0.0,0.0,0.0,0.0,0.0,0.0,0.0,0.0,0.0,0.0,0.0,0.0,0.0,0.0,0.0,0.0,0.0,0.0,0.0,0.0,0.0,0.0,0.0,0.0,0.0,0.0,0.0,0.0,0.0,0.0,0.0,0.0,0.0,0.0,0.0,0.0,0.0,0.0,0.0,0.0,0.0,0.0,0.0,0.0,0.0,0.0,0.0,0.0,0.0,0.0,0.0,0.0,0.0,0.0,0.0,0.0,0.0,0.0,0.0,0.0,0.0,0.0,0.0,0.0,0.0,0.0,0.0,0.0,0.0,0.0,0.0,0.0,0.0,0.0,0.0,0.0,0.0,0.0,0.0,0.0,0.0,0.0,0.0,0.0,0.0,0.0,0.0,0.0,0.0,0.0,0.0,0.0,0.0,0.0,0.0,0.0,0.0,0.0,0.0,0.0,0.0,0.0,0.0,0.0,0.0,0.0,0.0,0.0,0.0,0.0,0.0,0.0,0.0,0.0,0.0,0.0,0.0,0.0,0.0,0.0,0.0,0.0,0.0,0.0,0.0,0.0,0.0,0.0,0.0,0.0,0.0,0.0,0.0,0.0,0.0,0.0,0.0,0.0,0.0,0.0,0.0,0.0,0.0,0.0,0.0,0.0,0.0,0.0,0.0,0.0,0.0,0.0,0.0,0.0,0.0,0.0,0.0,0.0,0.0,0.0,0.0,0.0,0.0,0.0,0.0,0.0,0.0,0.0,0.0,0.0,0.0,0.0,0.0,0.0,0.0,0.0,0.0,0.0,0.0,0.0,0.0,0.0,0.0,0.0,0.0,0.0,0.0,0.0,0.0,0.0,0.0,0.0,0.0,0.0,0.0,0.0,0.0,0.0,0.0,0.0,0.0,0.0,0.0,0.0,0.0,0.0,0.0,0.0,0.0,0.0,0.0,0.0,0.0,0.0,0.0,0.0,0.0,0.0,0.0,0.0,0.0,0.0,0.0,0.0,0.0,0.0,0.0,0.0,0.0,0.0,0.0,0.0,0.0,0.0,0.0,0.0,0.0,0.0,0.0,0.0,0.0,0.0,0.0,0.0,0.0,0.0,0.0,0.0,0.0,0.0,0.0,0.0,0.0,0.0,0.0,0.0,0.0,0.0,0.0,0.0,0.0,0.0,0.0,0.0,0.0,0.0,0.0,0.0,0.0,0.0,0.0,0.0,0.0,0.0,0.0,0.0,0.0,0.0,0.0,0.0,0.0,0.0,0.0,0.0,0.0,0.0,0.0,0.0,0.0,0.0,0.0,0.0,0.0,0.0,0.0,0.0,0.0,0.0,0.0,0.0,0.0,0.0,0.0,0.0,0.0,0.0,0.0,0.0,0.0,0.0,0.0,0.0,0.0,0.0,0.0,0.0,0.0,0.0,0.0,0.0,0.0,0.0,0.0,0.0,0.0,0.0,0.0,0.0,0.0,0.0,0.0,0.0,0.0,0.0,0.0,0.0,0.0,0.0,0.0,0.0,0.0,0.0,0.0,0.0,0.0,0.0,0.0,0.0,0.0,0.0,0.0,0.0,0.0,0.0,0.0,0.0,0.0,0.0,0.0,0.0,0.0,0.0,0.0,0.0,0.0,0.0,0.0,0.0,0.0,0.0,0.0,0.0,0.0,0.0,0.0,0.0,0.0,0.0,0.0,0.0,0.0,0.0,0.0,0.0,0.0,0.0,0.0,0.0,0.0,0.0,0.0,0.0,0.0,0.0,0.0,0.0,0.0,0.0,0.0,0.0,0.0,0.0,0.0,0.0,0.0,0.0,0.0,0.0,0.0,0.0,0.0,0.0,0.0,0.0,0.0,0.0,0.0,0.0,0.0,0.0,0.0,0.0,0.0,0.0,0.0,0.0,0.0,0.0,0.0,0.0,0.0,0.0,0.0,0.0,0.0,0.0,0.0,0.0,0.0,0.0,0.0,0.0,0.0,0.0,0.0,0.0,0.0,0.0,0.0,0.0,0.0,0.0,0.0,0.0,0.0,0.0,0.0,0.0,0.0,0.0,0.0,0.0,0.0,0.0,0.0,0.0,0.0,0.0,0.0,0.0,0.0,0.0,0.0,0.0,0.0,0.0,0.0,0.0,0.0,0.0,0.0,0.0,0.0,0.0,0.0,0.0,0.0,0.0,0.0,0.0,0.0,0.0,0.0,0.0,0.0,0.0,0.0,0.0,0.0,0.0,0.0,0.0,0.0,0.0,0.0,0.0,0.0,0.0,0.0,0.0,0.0,0.0,0.0,0.0,0.0,0.0,0.0,0.0,0.0,0.0,0.0,0.0,0.0,0.0,0.0,0.0,0.0,0.0,0.0,0.0,0.0,0.0,0.0,0.0,0.0,0.0,0.0,0.0,0.0,0.0,0.0,0.0,0.0,0.0,0.0,0.0,0.0,0.0,0.0,0.0,0.0,0.0,0.0,0.0,0.0,0.0,0.0,0.0,0.0,0.0,0.0,0.0,0.0,0.0,0.0,0.0,0.0,0.0,0.0,0.0,0.0,0.0,0.0,0.0,0.0,0.0,0.0,0.0,0.0,0.0,0.0,0.0,0.0,0.0,0.0,0.0,0.0,2.2313,0.0,0.0,0.0,2.2313,0.0,0.0,0.0,0.0,0.0,0.0,0.0,0.0,0.0,0.0,0.0,0.0,0.0,0.0,0.0,0.0,0.0,0.0,0.0,0.0,0.0,0.0,0.0,0.0,0.0,0.0,0.0,0.0,0.0,0.0,0.0,0.0,0.0,0.0,0.0,0.0,0.0,0.0,0.0,0.0,0.0,0.0,0.0,0.0,0.0,0.0,0.0,0.0,0.0,0.0,0.0,0.0,0.0,0.0,0.0,0.0,0.0,0.0,0.0,0.0,0.0,0.0,0.0,0.0,0.0,0.0,0.0,0.0,0.0,0.0,0.0,0.0,0.0,0.0,0.0,0.0,0.0,0.0,0.0,0.0,0.0,0.0,0.0,0.0,0.0,0.0,0.0,0.0,0.0,0.0,0.0,0.0,0.0,0.0,0.0,0.0,0.0,0.0,0.0,0.0,0.0,0.0,0.0,0.0,0.0,0.0,0.0,0.0,0.0,0.0,2.2313,2.2313,2.2313,2.2313,2.2313,0.0,0.0,0.0,0.0,0.0,0.0,0.0,0.0,0.0,0.0,0.0,0.0,0.0,0.0,0.0,0.0,0.0,0.0,0.0,0.0,0.0,0.0,0.0,0.0,0.0,0.0,0.0,0.0,0.0,0.0,0.0,0.0,0.0,0.0,0.0,0.0,0.0,0.0,0.0,0.0,0.0,0.0,0.0,0.0,0.0,0.0,0.0,0.0,0.0,0.0,0.0,0.0,0.0,0.0,0.0,0.0,0.0,0.0,0.0,0.0,0.0,0.0,0.0,0.0,0.0,0.0,0.0,0.0,0.0,0.0,0.0,0.0,0.0,0.0,0.0,0.0,0.0,0.0,0.0,0.0,0.0,0.0,0.0,0.0,0.0,0.0,0.0,0.0,0.0,0.0,0.0,0.0,0.0,0.0,0.0,0.0,0.0,0.0,0.0,0.0,0.0,0.0,0.0,0.0,0.0,0.0,0.0,0.0,0.0,0.0,0.0,0.0,2.2313,2.2313,2.2313,0.0,0.0,0.0,0.0,0.0,0.0,0.0,0.0,0.0,0.0,0.0,0.0,0.0,0.0,0.0,0.0,0.0,0.0,0.0,0.0,0.0,0.0,0.0,0.0,0.0,0.0,0.0,0.0,0.0,0.0,0.0,0.0,0.0,0.0,0.0,0.0,0.0,0.0,0.0,0.0,0.0,0.0,0.0,0.0,0.0,0.0,0.0,0.0,0.0,0.0,0.0,0.0,0.0,0.0,0.0,0.0,0.0,0.0,0.0,0.0,0.0,0.0,0.0,0.0,0.0,0.0,0.0,0.0,0.0,0.0,0.0,0.0,0.0,0.0,0.0,0.0,0.0,0.0,0.0,0.0,0.0,0.0,0.0,0.0,0.0,0.0,0.0,0.0,0.0,0.0,0.0,0.0,0.0,0.0,0.0,0.0,0.0,0.0,0.0,0.0,0.0,0.0,0.0,0.0,0.0,0.0,0.0,0.0,0.0,0.0,2.2313,2.2313,2.2313,0.0,2.2313,0.0,0.0,0.0,0.0,0.0,0.0,0.0,0.0,0.0,0.0,0.0,0.0,0.0,0.0,0.0,0.0,0.0,0.0,0.0,0.0,0.0,0.0,0.0,0.0,0.0,0.0,0.0,0.0,0.0,0.0,0.0,0.0,0.0,0.0,0.0,0.0,0.0,0.0,0.0,0.0,0.0,0.0,0.0,0.0,0.0,0.0,0.0,0.0,0.0,0.0,0.0,0.0,0.0,0.0,0.0,0.0,0.0,0.0,0.0,0.0,0.0,0.0,0.0,0.0,0.0,0.0,0.0,0.0,0.0,0.0,0.0,0.0,0.0,0.0,0.0,0.0,0.0,0.0,0.0,0.0,0.0,0.0,0.0,0.0,0.0,0.0,0.0,0.0,0.0,0.0,0.0,0.0,0.0,0.0,0.0,0.0,0.0,0.0,0.0,0.0,0.0,0.0,0.0,0.0,0.0,0.0,0.0,0.0,0.0,0.0,2.2313,2.2313,2.2313,2.2313,0.0,0.0,0.0,0.0,0.0,0.0,0.0,0.0,0.0,0.0,0.0,0.0,0.0,0.0,0.0,0.0,0.0,0.0,0.0,0.0,0.0,0.0,0.0,0.0,0.0,0.0,0.0,0.0,0.0,0.0,0.0,0.0,0.0,0.0,0.0,0.0,0.0,0.0,0.0,0.0,0.0,0.0,0.0,0.0,0.0,0.0,0.0,0.0,0.0,0.0,0.0,0.0,0.0,0.0,0.0,0.0,0.0,0.0,0.0,0.0,0.0,0.0,0.0,0.0,0.0,0.0,0.0,0.0,0.0,0.0,0.0,0.0,0.0,0.0,0.0,0.0,0.0,0.0,0.0,0.0,0.0,0.0,0.0,0.0,0.0,0.0,0.0,0.0,0.0,0.0,0.0,0.0,0.0,0.0,0.0,0.0,0.0,0.0,0.0,0.0,0.0,0.0,0.0,0.0,0.0,0.0,0.0,0.0,0.0,0.0,2.2801,2.2902,2.2902,2.2692,2.2584,2.2591,0.0,0.0,0.0,0.0,0.0,0.0,0.0,0.0,0.0,0.0,0.0,0.0,0.0,0.0,0.0,0.0,0.0,0.0,0.0,0.0,0.0,0.0,0.0,0.0,0.0,0.0,0.0,0.0,0.0,0.0,0.0,0.0,0.0,0.0,0.0,0.0,0.0,0.0,0.0,0.0,0.0,0.0,0.0,0.0,0.0,0.0,0.0,0.0,0.0,0.0,0.0,0.0,0.0,0.0,0.0,0.0,0.0,0.0,0.0,0.0,0.0,0.0,0.0,0.0,0.0,0.0,0.0,0.0,0.0,0.0,0.0,0.0,0.0,0.0,0.0,0.0,0.0,0.0,0.0,0.0,0.0,0.0,0.0,0.0,0.0,0.0,0.0,0.0,0.0,0.0,0.0,0.0,0.0,0.0,0.0,0.0,0.0,0.0,0.0,0.0,0.0,0.0,0.0,0.0,0.0,0.0,0.0,0.0,2.3383,2.4034,2.4406,2.4372,2.3722,2.3349,0.0,0.0,0.0,0.0,0.0,0.0,0.0,0.0,0.0,0.0,0.0,0.0,0.0,0.0,0.0,0.0,0.0,0.0,0.0,0.0,0.0,0.0,0.0,0.0,0.0,0.0,0.0,0.0,0.0,0.0,0.0,0.0,0.0,0.0,0.0,0.0,0.0,0.0,0.0,0.0,0.0,0.0,0.0,0.0,0.0,0.0,0.0,0.0,0.0,0.0,0.0,0.0,0.0,0.0,0.0,0.0,0.0,0.0,0.0,0.0,0.0,0.0,0.0,0.0,0.0,0.0,0.0,0.0,0.0,0.0,0.0,0.0,0.0,0.0,0.0,0.0,0.0,0.0,0.0,0.0,0.0,0.0,0.0,0.0,0.0,0.0,0.0,0.0,0.0,0.0,0.0,0.0,0.0,0.0,0.0,0.0,0.0,0.0,0.0,0.0,0.0,0.0,0.0,0.0,0.0,0.0,0.0,0.0,0.0,2.4101,2.4365,2.4515,2.4474,2.4237,2.4101,0.0,0.0,0.0,0.0,0.0,0.0,0.0,0.0,0.0,0.0,0.0,0.0,0.0,0.0,0.0,0.0,0.0,0.0,0.0,0.0,0.0,0.0,0.0,0.0,0.0,0.0,0.0,0.0,0.0,0.0,0.0,0.0,0.0,0.0,0.0,0.0,0.0,0.0,0.0,0.0,0.0,0.0,0.0,0.0,0.0,0.0,0.0,0.0,0.0,0.0,0.0,0.0,0.0,0.0,0.0,0.0,0.0,0.0,0.0,0.0,0.0,0.0,0.0,0.0,0.0,0.0,0.0,0.0,0.0,0.0,0.0,0.0,0.0,0.0,0.0,0.0,0.0,0.0,0.0,0.0,0.0,0.0,0.0,0.0,0.0,0.0,0.0,0.0,0.0,0.0,0.0,0.0,0.0,0.0,0.0,0.0,0.0,0.0,0.0,0.0,0.0,0.0,0.0,0.0,0.0,0.0,0.0,0.0,0.0,2.5904,2.5971,2.5971,2.5929,2.5455,2.5218,0.0,0.0,0.0,0.0,0.0,0.0,0.0,0.0,0.0,0.0,0.0,0.0,0.0,0.0,0.0,0.0,0.0,0.0,0.0,0.0,0.0,0.0,0.0,0.0,0.0,0.0,0.0,0.0,0.0,0.0,0.0,0.0,0.0,0.0,0.0,0.0,0.0,0.0,0.0,0.0,0.0,0.0,0.0,0.0,0.0,0.0,0.0,0.0,0.0,0.0,0.0,0.0,0.0,0.0,0.0,0.0,0.0,0.0,0.0,0.0,0.0,0.0,0.0,0.0,0.0,0.0,0.0,0.0,0.0,0.0,0.0,0.0,0.0,0.0,0.0,0.0,0.0,0.0,0.0,0.0,0.0,0.0,0.0,0.0,0.0,0.0,0.0,0.0,0.0,0.0,0.0,0.0,0.0,0.0,0.0,0.0,0.0,0.0,0.0,0.0,0.0,0.0,0.0,0.0,0.0,0.0,0.0,0.0,2.7478,2.8899,2.8942,2.8874,2.8951,2.7512,2.6733,0.0,0.0,0.0,0.0,0.0,0.0,0.0,0.0,0.0,0.0,0.0,0.0,0.0,0.0,0.0,0.0,0.0,0.0,0.0,0.0,0.0,0.0,0.0,0.0,0.0,0.0,0.0,0.0,0.0,0.0,0.0,0.0,0.0,0.0,0.0,0.0,0.0,0.0,0.0,0.0,0.0,0.0,0.0,0.0,0.0,0.0,0.0,0.0,0.0,0.0,0.0,0.0,0.0,0.0,0.0,0.0,0.0,0.0,0.0,0.0,0.0,0.0,0.0,0.0,0.0,0.0,0.0,0.0,0.0,0.0,0.0,0.0,0.0,0.0,0.0,0.0,0.0,0.0,0.0,0.0,0.0,0.0,0.0,0.0,0.0,0.0,0.0,0.0,0.0,0.0,0.0,0.0,0.0,0.0,0.0,0.0,0.0,0.0,0.0,0.0,0.0,0.0,0.0,0.0,0.0,0.0,0.0,0.0,0.0,2.9736,2.977,2.976,2.9736,2.9287,2.8543,0.0,0.0,0.0,0.0,0.0,0.0,0.0,0.0,0.0,0.0,0.0,0.0,0.0,0.0,0.0,0.0,0.0,0.0,0.0,0.0,0.0,0.0,0.0,0.0,0.0,0.0,0.0,0.0,0.0,0.0,0.0,0.0,0.0,0.0,0.0,0.0,0.0,0.0,0.0,0.0,0.0,0.0,0.0,0.0,0.0,0.0,0.0,0.0,0.0,0.0,0.0,0.0,0.0,0.0,0.0,0.0,0.0,0.0,0.0,0.0,0.0,0.0,0.0,0.0,0.0,0.0,0.0,0.0,0.0,0.0,0.0,0.0,0.0,0.0,0.0,0.0,0.0,0.0,0.0,0.0,0.0,0.0,0.0,0.0,0.0,0.0,0.0,0.0,0.0,0.0,0.0,0.0,0.0,0.0,0.0,0.0,0.0,0.0,0.0,0.0,0.0,0.0,0.0,0.0,0.0,0.0,0.0,0.0,0.0,3.3389,3.2882,3.2577,3.2611,3.2036,3.091,2.9151,0.0,0.0,0.0,0.0,0.0,0.0,0.0,0.0,0.0,0.0,0.0,0.0,0.0,0.0,0.0,0.0,0.0,0.0,0.0,0.0,0.0,0.0,0.0,0.0,0.0,0.0,0.0,0.0,0.0,0.0,0.0,0.0,0.0,0.0,0.0,0.0,0.0,0.0,0.0,0.0,0.0,0.0,0.0,0.0,0.0,0.0,0.0,0.0,0.0,0.0,0.0,0.0,0.0,0.0,0.0,0.0,0.0,0.0,0.0,0.0,0.0,0.0,0.0,0.0,0.0,0.0,0.0,0.0,0.0,0.0,0.0,0.0,0.0,0.0,0.0,0.0,0.0,0.0,0.0,0.0,0.0,0.0,0.0,0.0,0.0,0.0,0.0,0.0,0.0,0.0,0.0,0.0,0.0,0.0,0.0,0.0,0.0,0.0,0.0,0.0,0.0,0.0,0.0,0.0,0.0,0.0,0.0,0.0,3.9337,3.8127,3.7427,3.7235,3.5633,3.3738,0.0,0.0,0.0,0.0,0.0,0.0,0.0,0.0,0.0,0.0,0.0,0.0,0.0,0.0,0.0,0.0,0.0,0.0,0.0,0.0,0.0,0.0,0.0,0.0,0.0,0.0,0.0,0.0,0.0,0.0,0.0,0.0,0.0,0.0,0.0,0.0,0.0,0.0,0.0,0.0,0.0,0.0,0.0,0.0,0.0,0.0,0.0,0.0,0.0,0.0,0.0,0.0,0.0,0.0,0.0,0.0,0.0,0.0,0.0,0.0,0.0,0.0,0.0,0.0,0.0,0.0,0.0,0.0,0.0,0.0,0.0,0.0,0.0,0.0,0.0,0.0,0.0,0.0,0.0,0.0,0.0,0.0,0.0,0.0,0.0,0.0,0.0,0.0,0.0,0.0,0.0,0.0,0.0,0.0,0.0,0.0,0.0,0.0,0.0,0.0,0.0,0.0,0.0,0.0,0.0,0.0,0.0,0.0,0.0,4.3615,4.5089,4.477,4.257,3.9491,3.7066,0.0,0.0,0.0,0.0,0.0,0.0,0.0,0.0,0.0,0.0,0.0,0.0,0.0,0.0,0.0,0.0,0.0,0.0,0.0,0.0,0.0,0.0,0.0,0.0,0.0,0.0,0.0,0.0,0.0,0.0,0.0,0.0,0.0,0.0,0.0,0.0,0.0,0.0,0.0,0.0,0.0,0.0,0.0,0.0,0.0,0.0,0.0,0.0,0.0,0.0,0.0,0.0,0.0,0.0,0.0,0.0,0.0,0.0,0.0,0.0,0.0,0.0,0.0,0.0,0.0,0.0,0.0,0.0,0.0,0.0,0.0,0.0,0.0,0.0,0.0,0.0,0.0,0.0,0.0,0.0,0.0,0.0,0.0,0.0,0.0,0.0,0.0,0.0,0.0,0.0,0.0,0.0,0.0,0.0,0.0,0.0,0.0,0.0,0.0,0.0,0.0,0.0,0.0,0.0,0.0,0.0,0.0,0.0,4.4047,4.6305,5.024,5.1454,4.9778,4.4232,4.0272,0.0,0.0,0.0,0.0,0.0,0.0,0.0,0.0,0.0,0.0,0.0,0.0,0.0,0.0,0.0,0.0,0.0,0.0,0.0,0.0,0.0,0.0,0.0,0.0,0.0,0.0,0.0,0.0,0.0,0.0,0.0,0.0,0.0,0.0,0.0,0.0,0.0,0.0,0.0,0.0,0.0,0.0,0.0,0.0,0.0,0.0,0.0,0.0,0.0,0.0,0.0,0.0,0.0,0.0,0.0,0.0,0.0,0.0,0.0,0.0,0.0,0.0,0.0,0.0,0.0,0.0,0.0,0.0,0.0,0.0,0.0,0.0,0.0,0.0,0.0,0.0,0.0,0.0,0.0,0.0,0.0,0.0,0.0,0.0,0.0,0.0,0.0,0.0,0.0,0.0,0.0,0.0,0.0,0.0,0.0,0.0,0.0,0.0,0.0,0.0,0.0,0.0,0.0,0.0,0.0,0.0,0.0,0.0,4.7485,4.8231,5.3885,5.6867,5.658,4.8827,4.3353,0.0,0.0,0.0,0.0,0.0,0.0,0.0,0.0,0.0,0.0,0.0,0.0,0.0,0.0,0.0,0.0,0.0,0.0,0.0,0.0,0.0,0.0,0.0,0.0,0.0,0.0,0.0,0.0,0.0,0.0,0.0,0.0,0.0,0.0,0.0,0.0,0.0,0.0,0.0,0.0,0.0,0.0,0.0,0.0,0.0,0.0,0.0,0.0,0.0,0.0,0.0,0.0,0.0,0.0,0.0,0.0,0.0,0.0,0.0,0.0,0.0,0.0,0.0,0.0,0.0,0.0,0.0,0.0,0.0,0.0,0.0,0.0,0.0,0.0,0.0,0.0,0.0,0.0,0.0,0.0,0.0,0.0,0.0,0.0,0.0,0.0,0.0,0.0,0.0,0.0,0.0,0.0,0.0,0.0,0.0,0.0,0.0,0.0,0.0,0.0,0.0,0.0,0.0,0.0,0.0,0.0,0.0,0.0,5.0155,5.2,5.569,5.7392,5.6799,4.9971,4.5711,0.0,0.0,0.0,0.0,0.0,0.0,0.0,0.0,0.0,0.0,0.0,0.0,0.0,0.0,0.0,0.0,0.0,0.0,0.0,0.0,0.0,0.0,0.0,0.0,0.0,0.0,0.0,0.0,0.0,0.0,0.0,0.0,0.0,0.0,0.0,0.0,0.0,0.0,0.0,0.0,0.0,0.0,0.0,0.0,0.0,0.0,0.0,0.0,2.4098,0.0,0.0,0.0,0.0,0.0,0.0,0.0,0.0,0.0,0.0,0.0,0.0,0.0,0.0,0.0,0.0,0.0,0.0,0.0,0.0,0.0,0.0,0.0,0.0,0.0,0.0,0.0,0.0,0.0,0.0,0.0,0.0,0.0,0.0,0.0,0.0,0.0,0.0,0.0,0.0,0.0,0.0,0.0,0.0,0.0,0.0,0.0,0.0,0.0,0.0,0.0,0.0,0.0,0.0,0.0,0.0,0.0,0.0,0.0,5.1382,5.4227,5.768,5.9133,5.822,5.3551,4.9476,0.0,0.0,0.0,0.0,0.0,0.0,0.0,0.0,0.0,0.0,0.0,0.0,0.0,0.0,0.0,0.0,0.0,0.0,0.0,0.0,0.0,0.0,0.0,0.0,0.0,0.0,0.0,0.0,0.0,0.0,0.0,0.0,0.0,0.0,0.0,0.0,0.0,0.0,0.0,0.0,0.0,0.0,0.0,0.0,0.0,0.0,0.0,0.0,0.0,0.0,0.0,0.0,0.0,0.0,0.0,0.0,0.0,0.0,0.0,0.0,0.0,0.0,0.0,0.0,0.0,0.0,0.0,0.0,0.0,0.0,0.0,0.0,0.0,0.0,0.0,0.0,0.0,0.0,0.0,0.0,0.0,0.0,0.0,0.0,0.0,0.0,0.0,0.0,0.0,0.0,0.0,0.0,0.0,0.0,0.0,0.0,0.0,0.0,0.0,0.0,0.0,0.0,0.0,0.0,0.0,0.0,0.0,4.8783,5.255,5.6568,5.9945,6.1264,6.0419,5.7356,5.2993,4.7342,0.0,0.0,0.0,0.0,0.0,0.0,0.0,0.0,0.0,0.0,0.0,0.0,0.0,0.0,0.0,0.0,0.0,0.0,0.0,0.0,0.0,0.0,0.0,0.0,0.0,0.0,0.0,0.0,0.0,0.0,0.0,0.0,0.0,0.0,0.0,0.0,0.0,0.0,2.1827,2.2659,0.0,0.0,0.0,0.0,0.0,0.0,0.0,0.0,2.6184,0.0,0.0,0.0,0.0,0.0,0.0,0.0,0.0,0.0,0.0,0.0,0.0,0.0,0.0,0.0,0.0,0.0,0.0,0.0,0.0,0.0,0.0,0.0,0.0,0.0,0.0,0.0,0.0,0.0,0.0,0.0,0.0,0.0,0.0,0.0,0.0,0.0,0.0,0.0,0.0,0.0,0.0,0.0,0.0,0.0,0.0,0.0,0.0,0.0,0.0,0.0,0.0,0.0,0.0,0.0,0.0,4.9857,5.176,5.5809,6.2157,6.2832,6.2787,6.1941,5.7897,5.3467,4.8781,0.0,0.0,0.0,0.0,0.0,0.0,0.0,0.0,0.0,0.0,0.0,0.0,0.0,0.0,0.0,0.0,0.0,0.0,0.0,0.0,0.0,0.0,0.0,0.0,0.0,0.0,0.0,0.0,0.0,0.0,0.0,0.0,0.0,0.0,0.0,0.0,0.0,0.0,0.0,2.6931,2.7614,0.0,0.0,0.0,0.0,0.0,0.0,0.0,0.0,2.8328,0.0,0.0,0.0,0.0,0.0,0.0,0.0,0.0,0.0,0.0,0.0,0.0,0.0,0.0,0.0,0.0,0.0,0.0,0.0,0.0,0.0,0.0,0.0,0.0,0.0,0.0,0.0,0.0,0.0,0.0,0.0,0.0,0.0,0.0,0.0,0.0,0.0,0.0,0.0,0.0,0.0,0.0,0.0,0.0,0.0,0.0,0.0,0.0,0.0,0.0,0.0,0.0,0.0,0.0,0.0,5.1105,5.5092,5.9673,6.4865,6.5766,6.5582,6.4263,5.9938,5.5244,0.0,0.0,0.0,0.0,0.0,0.0,0.0,0.0,0.0,0.0,0.0,0.0,0.0,0.0,0.0,0.0,0.0,0.0,0.0,0.0,0.0,0.0,0.0,0.0,0.0,0.0,0.0,0.0,0.0,0.0,0.0,0.0,0.0,0.0,0.0,0.0,0.0,0.0,0.0,0.0,2.965,3.0773,3.3982,0.0,0.0,0.0,0.0,0.0,0.0,3.2797,3.1208,0.0,0.0,0.0,0.0,0.0,0.0,0.0,0.0,0.0,0.0,0.0,0.0,0.0,0.0,0.0,0.0,0.0,0.0,0.0,0.0,0.0,0.0,0.0,0.0,0.0,0.0,0.0,0.0,0.0,0.0,0.0,0.0,0.0,0.0,0.0,0.0,0.0,0.0,0.0,0.0,0.0,0.0,0.0,0.0,0.0,0.0,0.0,0.0,0.0,0.0,0.0,0.0,0.0,0.0,0.0,5.218,5.8252,6.3385,6.7299,6.8487,6.8466,6.7254,6.1762,5.6613,0.0,0.0,0.0,0.0,0.0,0.0,0.0,0.0,0.0,0.0,0.0,0.0,0.0,0.0,0.0,0.0,0.0,0.0,0.0,0.0,0.0,0.0,0.0,0.0,0.0,0.0,0.0,0.0,0.0,0.0,0.0,0.0,0.0,0.0,0.0,0.0,0.0,0.0,0.0,0.0,0.0,3.3929,3.7189,3.635,0.0,0.0,0.0,0.0,3.6943,3.5833,0.0,0.0,0.0,0.0,0.0,0.0,0.0,0.0,0.0,0.0,0.0,0.0,0.0,0.0,0.0,0.0,0.0,0.0,0.0,0.0,0.0,0.0,0.0,0.0,0.0,0.0,0.0,0.0,0.0,0.0,0.0,0.0,0.0,0.0,0.0,0.0,0.0,0.0,0.0,0.0,0.0,0.0,0.0,0.0,0.0,0.0,0.0,0.0,0.0,0.0,0.0,0.0,0.0,0.0,0.0,0.0,5.4683,6.0695,6.6312,7.1162,7.0774,7.0686,7.1227,6.2003,5.6171,0.0,0.0,0.0,0.0,0.0,0.0,0.0,0.0,0.0,0.0,0.0,0.0,0.0,0.0,0.0,0.0,0.0,0.0,0.0,0.0,0.0,0.0,0.0,0.0,0.0,0.0,0.0,0.0,0.0,0.0,0.0,0.0,0.0,0.0,0.0,0.0,0.0,0.0,0.0,0.0,0.0,3.7111,3.9567,3.8531,3.7823,0.0,0.0,4.0692,4.1511,4.2052,0.0,0.0,0.0,0.0,0.0,0.0,0.0,0.0,0.0,0.0,0.0,0.0,0.0,0.0,0.0,0.0,0.0,0.0,0.0,0.0,0.0,0.0,0.0,0.0,0.0,0.0,0.0,0.0,0.0,0.0,0.0,0.0,0.0,0.0,0.0,0.0,0.0,0.0,0.0,0.0,0.0,0.0,0.0,0.0,0.0,0.0,0.0,0.0,0.0,0.0,0.0,0.0,0.0,0.0,0.0,5.3024,5.5991,6.4426,7.0463,7.3572,7.3297,7.2984,7.2932,6.3433,5.7258,0.0,0.0,0.0,0.0,0.0,0.0,0.0,0.0,0.0,0.0,0.0,0.0,0.0,0.0,0.0,0.0,0.0,0.0,0.0,0.0,0.0,0.0,0.0,0.0,0.0,0.0,0.0,0.0,0.0,0.0,0.0,0.0,0.0,0.0,0.0,0.0,0.0,0.0,0.0,0.0,0.0,0.0,4.1122,4.1206,0.0,0.0,0.0,4.2291,4.1803,0.0,0.0,0.0,0.0,0.0,0.0,0.0,0.0,0.0,0.0,0.0,0.0,0.0,0.0,0.0,0.0,0.0,0.0,0.0,0.0,0.0,0.0,0.0,0.0,0.0,0.0,0.0,0.0,0.0,0.0,0.0,0.0,0.0,0.0,0.0,0.0,0.0,0.0,0.0,0.0,0.0,0.0,0.0,0.0,0.0,0.0,0.0,0.0,0.0,0.0,0.0,0.0,0.0,0.0,0.0,0.0,0.0,5.647,6.7387,7.3692,7.4867,7.5074,7.4957,7.4389,6.6286,0.0,0.0,0.0,0.0,0.0,0.0,0.0,0.0,0.0,0.0,0.0,0.0,0.0,0.0,0.0,0.0,0.0,0.0,0.0,0.0,0.0,0.0,0.0,0.0,0.0,0.0,0.0,2.4661,0.0,0.0,0.0,0.0,0.0,0.0,0.0,0.0,0.0,0.0,0.0,0.0,0.0,0.0,4.1025,4.2639,4.364,4.4608,0.0,0.0,4.3939,4.3028,4.5704,4.6109,0.0,0.0,0.0,0.0,0.0,0.0,0.0,0.0,0.0,0.0,0.0,0.0,0.0,0.0,0.0,0.0,0.0,0.0,0.0,0.0,0.0,0.0,0.0,0.0,0.0,0.0,0.0,0.0,0.0,0.0,0.0,0.0,0.0,0.0,0.0,0.0,0.0,0.0,0.0,0.0,0.0,0.0,0.0,0.0,0.0,0.0,0.0,0.0,0.0,0.0,0.0,0.0,0.0,0.0,5.6228,5.6711,6.848,7.4757,7.4925,7.5455,7.6168,7.6909,7.1148,6.5283,0.0,0.0,0.0,0.0,0.0,0.0,0.0,0.0,0.0,0.0,0.0,0.0,0.0,0.0,0.0,0.0,0.0,0.0,0.0,0.0,0.0,0.0,0.0,0.0,0.0,0.0,0.0,0.0,0.0,0.0,0.0,0.0,0.0,0.0,0.0,0.0,0.0,0.0,0.0,0.0,0.0,4.3504,4.4347,4.5619,4.725,0.0,4.789,4.6703,4.7349,4.9344,4.9154,4.393,0.0,0.0,0.0,0.0,0.0,0.0,0.0,0.0,0.0,0.0,0.0,0.0,0.0,0.0,0.0,0.0,0.0,0.0,0.0,0.0,0.0,0.0,0.0,0.0,0.0,0.0,0.0,0.0,0.0,0.0,0.0,0.0,0.0,0.0,0.0,0.0,0.0,0.0,0.0,0.0,0.0,0.0,0.0,0.0,0.0,0.0,0.0,0.0,0.0,0.0,0.0,0.0,0.0,5.6764,5.7837,6.8575,7.4625,7.5601,7.5844,7.6173,7.6555,7.1516,6.6147,0.0,0.0,0.0,0.0,0.0,0.0,0.0,0.0,0.0,0.0,0.0,0.0,0.0,0.0,0.0,0.0,0.0,0.0,0.0,0.0,0.0,0.0,0.0,0.0,0.0,0.0,0.0,0.0,3.4032,3.419,3.233,0.0,0.0,0.0,0.0,0.0,0.0,0.0,0.0,0.0,0.0,4.4689,4.757,4.8448,0.0,0.0,5.0326,4.9277,4.8674,5.0423,4.995,4.4302,4.3152,0.0,0.0,0.0,0.0,0.0,0.0,0.0,0.0,0.0,0.0,0.0,0.0,0.0,0.0,0.0,0.0,0.0,0.0,0.0,0.0,0.0,0.0,0.0,0.0,0.0,0.0,0.0,0.0,0.0,0.0,0.0,0.0,0.0,0.0,0.0,0.0,0.0,0.0,0.0,0.0,0.0,0.0,0.0,0.0,0.0,0.0,0.0,0.0,0.0,0.0,0.0,0.0,5.7394,5.8952,6.8684,7.4493,7.6093,7.5873,7.5873,7.5983,7.2569,6.8151,6.2731,0.0,0.0,0.0,0.0,0.0,0.0,0.0,0.0,0.0,0.0,0.0,0.0,0.0,0.0,0.0,0.0,0.0,0.0,0.0,0.0,0.0,0.0,0.0,0.0,0.0,0.0,0.0,3.6693,3.6389,3.4292,0.0,0.0,0.0,0.0,0.0,0.0,0.0,0.0,0.0,0.0,4.695,4.9726,5.0476,5.1062,5.1862,5.1346,5.0509,4.9481,5.0642,5.0051,4.5486,0.0,0.0,0.0,0.0,0.0,0.0,0.0,0.0,0.0,0.0,0.0,0.0,0.0,0.0,0.0,0.0,0.0,0.0,0.0,0.0,0.0,0.0,0.0,0.0,0.0,0.0,0.0,3.7922,0.0,0.0,3.7843,0.0,0.0,0.0,0.0,0.0,0.0,0.0,0.0,0.0,0.0,0.0,0.0,0.0,0.0,0.0,0.0,0.0,0.0,0.0,0.0,0.0,0.0,5.8138,5.9781,6.8947,7.4478,7.6019,7.5344,7.5344,7.6019,7.5197,7.2175,6.6635,0.0,0.0,0.0,0.0,0.0,0.0,0.0,0.0,0.0,0.0,0.0,0.0,0.0,0.0,0.0,0.0,0.0,0.0,0.0,0.0,0.0,0.0,0.0,0.0,0.0,0.0,3.1911,3.3987,3.5701,0.0,0.0,0.0,0.0,0.0,0.0,0.0,0.0,0.0,4.3204,4.7788,5.0776,5.026,5.1354,5.2047,5.1472,5.0712,5.0186,5.0184,5.0184,4.9593,0.0,0.0,0.0,0.0,0.0,0.0,0.0,0.0,0.0,0.0,0.0,0.0,0.0,0.0,0.0,0.0,0.0,0.0,0.0,0.0,0.0,0.0,0.0,0.0,0.0,0.0,0.0,4.6733,4.6309,0.0,0.0,0.0,0.0,0.0,0.0,0.0,0.0,0.0,0.0,0.0,5.6608,5.7316,0.0,0.0,0.0,0.0,0.0,0.0,0.0,0.0,0.0,0.0,0.0,0.0,5.9445,6.0846,6.9733,7.5028,7.6056,7.5836,7.5836,7.6093,7.5307,7.2306,6.6852,0.0,0.0,0.0,0.0,0.0,0.0,0.0,0.0,0.0,0.0,0.0,0.0,0.0,0.0,0.0,0.0,0.0,0.0,0.0,0.0,0.0,0.0,0.0,0.0,0.0,3.7381,0.0,0.0,0.0,0.0,0.0,0.0,0.0,0.0,0.0,0.0,4.2031,4.475,4.8127,4.9254,5.0553,5.279,5.3518,5.4279,0.0,0.0,0.0,0.0,0.0,0.0,0.0,0.0,0.0,0.0,0.0,0.0,0.0,4.4823,4.3064,3.958,3.9986,4.0844,4.0844,0.0,0.0,0.0,0.0,0.0,0.0,0.0,0.0,0.0,0.0,0.0,0.0,0.0,0.0,5.316,5.1806,5.287,0.0,0.0,0.0,0.0,0.0,0.0,0.0,0.0,5.9683,6.2086,6.34,6.4374,6.447,6.3747,6.2685,5.8161,0.0,0.0,0.0,0.0,0.0,0.0,0.0,0.0,6.1268,6.316,7.1112,7.5873,7.69,7.6387,7.613,7.6093,7.5065,7.2922,6.9632,6.4715,6.0268,0.0,0.0,0.0,0.0,0.0,0.0,0.0,0.0,0.0,0.0,0.0,0.0,0.0,0.0,0.0,0.0,0.0,0.0,0.0,0.0,0.0,0.0,0.0,4.0865,0.0,0.0,0.0,0.0,0.0,0.0,0.0,0.0,0.0,4.3267,4.5771,4.8646,5.1235,5.1894,5.2638,5.4025,0.0,0.0,0.0,0.0,0.0,0.0,0.0,5.1438,4.9763,4.9526,4.9627,4.9864,5.0033,5.0168,5.0168,0.0,0.0,4.486,4.5327,4.654,4.654,4.6395,4.6746,4.8211,4.7891,4.7922,0.0,0.0,0.0,0.0,5.3041,0.0,0.0,0.0,5.9065,5.7413,0.0,5.7785,0.0,0.0,0.0,0.0,5.5571,5.9916,0.0,0.0,7.148,7.4037,7.072,7.2041,7.2371,7.149,6.8541,6.6267,6.4626,6.1134,5.6772,0.0,0.0,0.0,0.0,0.0,6.366,6.6822,7.3081,7.7047,7.8552,7.7121,7.6276,7.613,7.4661,7.4184,7.4632,6.9683,6.6482,6.5531,5.6943,0.0,0.0,0.0,0.0,0.0,0.0,0.0,0.0,0.0,0.0,0.0,0.0,0.0,0.0,0.0,0.0,0.0,0.0,0.0,0.0,4.2117,0.0,0.0,0.0,0.0,0.0,0.0,0.0,0.0,0.0,4.7346,4.5297,4.9796,5.3213,5.2469,0.0,0.0,0.0,0.0,5.548,5.208,5.2046,5.2334,5.1742,5.2723,5.3856,5.4482,0.0,0.0,5.5834,5.4008,5.2721,5.2636,5.4611,5.4683,5.0361,5.0213,5.0662,5.069,5.1374,5.1813,5.1912,5.2606,5.3047,6.4675,0.0,0.0,0.0,0.0,5.8737,6.1601,6.6132,6.6132,6.5605,6.4802,6.5721,0.0,0.0,0.0,0.0,0.0,0.0,6.7886,7.1238,7.4037,7.6497,7.8736,7.9213,7.9286,7.9029,7.7561,7.664,7.6157,7.4549,6.7649,5.5829,0.0,0.0,0.0,0.0,6.6876,7.0247,7.635,7.9837,8.0314,7.9874,7.872,7.6995,7.6518,7.5821,7.4903,7.2827,7.031,6.7332,6.3112,0.0,0.0,0.0,0.0,0.0,0.0,0.0,0.0,0.0,0.0,0.0,0.0,0.0,0.0,0.0,0.0,0.0,0.0,0.0,4.4234,4.7477,4.8425,0.0,0.0,0.0,0.0,0.0,0.0,0.0,0.0,0.0,5.186,5.2198,5.2976,0.0,0.0,5.3822,5.3551,5.4972,5.6021,5.5987,5.6174,0.0,5.7442,5.6596,5.5919,5.6122,5.6968,5.7527,5.7306,5.8149,5.8858,5.884,5.9958,6.0364,5.9206,5.8149,5.7638,5.7662,5.8259,5.8957,5.9515,5.9748,5.9993,7.382,6.8553,6.537,6.4782,6.5956,6.625,6.905,7.3395,7.3671,7.3103,7.2024,7.3571,7.1005,6.5504,6.5555,0.0,0.0,0.0,7.3949,7.828,7.8904,8.0938,8.4022,8.4756,8.4903,8.4572,8.4409,8.3838,8.2884,8.1122,7.5421,6.5916,0.0,6.1042,6.1552,6.6753,7.0904,7.3889,7.8855,8.1636,8.195,8.1342,8.0298,7.883,7.7803,7.6848,7.5894,7.5065,7.3266,7.031,6.7666,6.3521,0.0,0.0,0.0,0.0,0.0,0.0,0.0,0.0,0.0,0.0,0.0,4.1637,3.8458,0.0,0.0,0.0,4.6893,4.7872,4.9496,5.1042,0.0,0.0,0.0,0.0,0.0,0.0,0.0,4.9838,5.3497,5.6071,5.5886,5.5615,5.5716,5.6664,5.6258,5.5953,5.6089,0.0,5.8457,5.8727,5.8761,5.9066,5.9945,5.9505,5.9201,5.981,6.0576,6.1074,6.116,6.2419,6.3327,6.3429,6.385,6.424,6.424,6.3741,6.3041,6.2188,6.257,6.328,6.3766,6.3818,6.404,8.215,8.0837,7.351,7.2008,7.4498,7.519,7.7231,8.0094,8.0865,7.9543,7.7121,8.0718,7.9066,7.3472,7.3523,0.0,7.7986,7.8096,8.0225,8.3931,8.5527,8.6664,8.7435,8.8959,8.9253,8.85,8.9179,8.8316,8.6004,8.3067,8.0645,7.883,7.5919,7.2491,6.8971,7.2309,7.5357,7.7787,8.0975,8.2957,8.3638,8.2113,8.1232,8.1048,7.883,7.7546,7.7362,7.6628,7.5506,7.3986,7.1091,6.8044,6.4796,0.0,0.0,0.0,0.0,0.0,0.0,0.0,0.0,0.0,0.0,0.0,0.0,0.0,0.0,5.272,5.4452,0.0,5.6236,5.3812,0.0,0.0,0.0,5.3325,5.7064,5.6226,5.5585,5.6321,0.0,0.0,5.8391,5.9716,6.0646,6.074,6.1017,6.096,6.0283,6.1298,6.1873,6.0588,6.0547,6.0604,6.0989,6.1915,6.3096,6.4135,6.5493,6.5843,6.5847,6.6163,6.6358,6.6301,6.657,6.6689,6.6689,6.7227,6.7218,6.4931,6.5031,6.5459,6.5469,6.5495,6.5705,8.5747,8.5382,8.3524,8.1736,8.0231,8.0397,8.1269,8.2553,8.2757,8.272,8.2663,8.3618,8.3177,8.1746,8.237,8.3067,8.3838,8.5049,8.6464,8.8042,8.9638,9.0482,9.0702,9.173,9.1803,9.1014,9.0555,8.9693,8.8519,8.7178,8.4756,8.1452,8.0573,7.8441,7.5257,7.6648,7.8945,8.1913,8.4519,8.595,8.6097,8.4572,8.3177,8.1929,8.0755,7.9543,7.8332,7.7472,7.6812,7.6408,7.3992,7.115,6.795,6.2317,0.0,0.0,0.0,0.0,0.0,0.0,0.0,0.0,0.0,4.8072,4.4663,0.0,5.293,0.0,5.8722,6.1549,6.127,6.1098,0.0,0.0,5.8228,5.7956,5.8972,6.0662,6.1443,6.0543,6.2565,6.3879,6.3526,6.43,6.525,6.6075,6.2889,6.052,6.096,6.1791,6.2482,6.2812,6.3863,6.4565,6.4725,6.5489,6.614,6.5714,6.6471,6.7077,6.7077,6.77,6.8159,6.8206,6.8783,6.9177,6.9133,6.9389,6.932,6.8705,6.7849,6.715,6.71,6.7113,6.7187,8.9711,8.9748,9.0115,8.9197,8.7435,8.5673,8.5343,8.6097,8.6427,8.6867,8.7288,8.7655,8.7802,8.7912,8.8683,8.905,8.9124,9.0335,9.1326,9.217,9.3418,9.4153,9.452,9.5364,9.5547,9.507,9.463,9.3583,9.2152,9.1675,8.9748,8.6518,8.6481,8.5563,8.3711,7.9984,7.9103,8.1269,8.4352,8.6611,8.7968,8.65,8.4756,8.2774,8.0901,7.8993,7.6995,7.5784,7.5014,7.461,7.3325,7.1505,6.8958,6.4307,6.0201,0.0,0.0,0.0,0.0,0.0,0.0,0.0,0.0,0.0,0.0,0.0,5.7505,5.7889,6.2863,6.5508,6.4193,6.4102,6.4094,6.4202,6.3253,6.328,6.5112,6.6074,6.6448,6.6093,6.7418,6.8217,6.7861,6.8464,6.9301,7.0319,6.7872,6.5784,6.5413,6.5899,6.6508,6.6935,6.8177,6.9242,6.9699,6.9917,6.9867,6.938,6.9406,6.9578,6.9559,6.9755,6.9929,6.9922,7.0024,7.011,7.011,7.011,7.011,6.9963,6.9376,6.8839,6.8765,6.8752,6.8765,9.3272,9.3308,9.4116,9.4446,9.4189,9.0849,8.9674,9.006,9.0758,9.1143,9.1289,9.206,9.2427,9.2556,9.3272,9.3565,9.3602,9.441,9.5126,9.586,9.6722,9.7493,9.808,9.8888,9.9198,9.9088,9.9088,9.7877,9.5712,9.5639,9.4226,9.1583,9.151,9.1326,9.061,8.2463,7.8867,8.0167,8.3104,8.6004,8.8812,8.6978,8.4922,8.2794,7.9947,7.7414,7.5307,7.378,7.2606,7.1821,7.1564,7.0903,6.9655,6.5802,6.2821,0.0,5.7295,0.0,0.0,0.0,0.0,0.0,0.0,0.0,0.0,6.1652,6.2851,6.3193,6.7048,6.8764,6.6939,6.6062,6.6967,7.0034,6.86,6.873,7.2094,7.124,7.0682,7.156,7.1565,7.1515,7.1478,7.2157,7.2887,7.3366,7.3383,7.2567,7.1383,7.1113,7.1203,7.1552,7.2444,7.3018,7.3984,7.401,7.3654,7.3404,7.3016,7.2738,7.2589,7.2155,7.1792,7.1719,7.1329,7.0844,7.0587,7.0624,7.0587,7.055,7.0477,7.0293,7.0036,6.9963,7.011,9.4079,9.4153,9.496,9.529,9.5308,9.5841,9.5034,9.3382,9.3529,9.3969,9.4611,9.5437,9.5768,9.5804,9.5951,9.6025,9.6061,9.6869,9.7292,9.7512,9.8961,9.9365,9.8961,9.9695,9.9732,9.9125,9.9088,9.819,9.6502,9.6465,9.4226,8.995,8.984,8.8556,8.604,0.0,0.0,0.0,8.5857,8.5196,8.6261,8.2333,7.9984,7.9507,7.8243,0.0,7.6848,7.5909,7.5065,7.4243,7.2958,0.0,0.0,0.0,0.0,0.0,0.0,0.0,0.0,0.0,0.0,0.0,6.574,6.5327,6.2781,6.561,6.8114,6.9534,7.1573,7.3149,7.3999,7.3948,7.3626,7.3054,7.2555,7.2657,7.3384,7.3184,7.3292,7.4077,7.419,7.417,7.4233,7.4843,7.5322,7.5467,7.5851,7.5995,7.5427,7.3963,7.2983,7.2935,7.386,7.4707,7.5525,7.6158,7.6003,7.4964,7.5051,7.5034,7.4479,7.4262,7.4169,7.4096,7.4096,7.3707,7.3083,7.301,7.2716,7.2165,7.2055,7.1651,7.0367,7.011,7.011,9.5474,9.5511,9.5914,9.6318,0.0,9.7566,9.7419,9.6685,9.6649,9.6906,9.729,9.7713,9.7897,9.7897,9.83,9.8484,9.8521,9.9292,9.9678,9.9752,10.0503,10.065,10.0283,10.0686,10.0686,10.0283,10.0283,9.9475,9.797,9.7897,9.6245,9.3033,9.2996,9.2207,9.0629,9.0188,8.9987,8.9987,8.8005,8.7766,8.9197,8.6224,8.3765,8.2186,8.0571,0.0,0.0,0.0,0.0,0.0,0.0,0.0,0.0,7.1857,7.0468,7.1237,6.9435,6.8851,6.9894,6.9727,7.02,7.1733,7.2591,7.172,6.8572,7.1618,7.4051,7.4895,7.6035,7.7063,7.7781,7.7598,7.7011,7.6203,7.5726,7.5652,7.6019,7.613,7.6423,7.7157,7.7341,7.7304,7.7341,7.7268,7.7662,7.8211,7.7966,7.7855,7.7916,7.6296,7.5047,7.5565,7.6428,7.7349,7.8168,7.8361,7.8312,7.7413,7.6601,7.5989,7.5564,7.516,7.4903,7.4903,7.4903,7.472,7.4441,7.4294,7.4184,7.3817,7.3692,7.3472,7.2569,7.1872,7.1284,9.6722,9.6722,9.6869,9.7199,9.7713,9.8136,9.8888,9.9732,9.9419,0.0,0.0,9.9475,9.9512,9.9585,10.0209,10.0503,10.054,10.122,10.1514,10.1514,10.1514,10.1514,10.1514,10.1514,10.1514,10.1514,10.1514,10.0686,9.9125,9.9088,9.83,9.6832,9.6722,9.6722,9.6649,9.6061,9.406,9.0831,8.984,9.0317,9.2097,9.0317,8.7986,8.525,8.3104,8.1048,7.9103,7.8222,7.7656,7.7509,7.6261,7.5674,7.5894,7.3949,7.2995,7.3362,7.2812,7.3523,7.5968,7.5087,7.5491,7.8023,7.817,7.7231,7.497,7.7378,7.9029,7.9029,7.9779,8.022,8.022,7.9507,7.9029,7.9029,7.8243,7.8038,7.8662,7.8809,7.8919,7.9669,7.9633,7.9779,7.9633,7.9119,7.9323,8.0408,7.9611,7.9029,7.9348,7.7877,7.6858,7.7787,7.8391,7.9449,8.0528,8.0372,8.0,7.9512,7.8023,7.6754,7.6313,7.5747,7.538,7.5454,7.5344,7.5307,7.516,7.5087,7.505,7.494,7.4903,7.4903,7.4793,7.3839,7.2936,9.6722,9.6759,9.7419,9.7383,9.7052,9.9071,10.0833,10.2045,10.0723,10.0136,10.0172,10.087,10.1184,10.1184,10.1294,10.133,10.1367,10.142,10.1514,10.1514,10.1514,10.1514,10.1514,10.1514,10.1514,10.1514,10.1514,10.065,9.9255,9.9088,9.83,9.6869,9.6722,9.6722,9.6685,9.6575,9.6245,9.5584,9.1528,8.9216,8.883,8.595,8.3895,8.2737,8.1819,8.1048,8.0681,7.991,7.9155,7.8442,7.8185,7.8699,8.0021,7.9176,7.9507,8.1473,8.1583,8.1452,8.1195,8.1599,8.1729,8.1525,8.1525,8.0771,7.9155,7.9984,8.0681,8.0681,8.1342,8.1872,8.1819,8.1085,8.0608,8.0608,7.991,7.9522,7.9669,7.9669,7.9743,7.989,7.9816,7.9853,7.9926,7.9743,7.9963,8.0645,8.0241,7.9669,7.9475,7.8327,7.7671,7.8295,7.862,7.9343,8.0649,8.0922,8.0534,7.989,7.9522,7.8552,7.7399,7.7105,7.6995,7.6959,7.6922,7.6665,7.6166,7.5946,7.5726,7.5234,7.5087,7.505,7.5087,7.4735,7.4294,9.6942,9.7383,9.775,9.819,9.8778,10.0319,10.1604,10.2632,10.1934,10.1861,10.2265,10.2652,10.2836,10.2836,10.2779,10.2836,10.2779,10.2815,10.2779,10.2779,10.2836,10.2779,10.2836,10.2799,10.2779,10.2799,10.2338,10.131,9.9842,9.9328,9.8264,9.6795,9.6722,9.6722,9.6685,9.6282,9.6061,9.6025,9.4281,9.2758,9.151,8.9638,8.8042,8.6811,8.5987,8.5546,8.5546,8.5196,8.4866,8.4499,8.4022,8.4168,8.4829,8.4168,8.4022,8.4646,8.4719,8.4352,8.3544,8.3418,8.3067,8.226,8.2186,8.1893,8.1175,8.1415,8.1636,8.1636,8.2003,8.2186,8.2186,8.1856,8.1672,8.1636,8.1269,8.1101,8.1101,8.1101,8.1101,8.1101,8.1085,8.1101,8.1101,8.0718,8.0755,8.1415,8.0975,8.0314,7.989,7.9213,7.8809,7.9213,7.9617,8.0388,8.1379,8.1232,8.1048,8.1064,8.0367,7.9596,7.8736,7.8626,7.8626,7.8626,7.8332,7.7928,7.7451,7.7047,7.6628,7.6371,7.6188,7.6188,7.6188,7.5894,7.5285,9.7603,9.8154,9.8154,9.8998,10.0319,10.0963,10.1898,10.2925,10.2962,10.3549,10.4357,10.4063,10.388,10.388,10.388,10.388,10.388,10.388,10.388,10.388,10.388,10.388,10.388,10.388,10.388,10.3806,10.3109,10.1971,10.0576,9.9585,9.8264,9.6832,9.6502,9.6428,9.6428,9.5658,9.5254,9.529,9.5841,9.5474,9.4079,9.3418,9.2354,9.0959,9.006,8.9657,8.9657,8.951,8.94,8.9363,8.8812,8.8463,8.8463,8.7895,8.7178,8.6444,8.6334,8.6077,8.5453,8.5013,8.4298,8.3361,8.3287,8.3141,8.2774,8.2737,8.2553,8.226,8.2186,8.226,8.2443,8.226,8.226,8.2406,8.248,8.2443,8.2443,8.248,8.248,8.248,8.2296,8.215,8.2076,8.1636,8.1525,8.1893,8.1636,8.1012,8.0477,8.033,8.033,8.0404,8.0608,8.0901,8.1709,8.1636,8.1489,8.1929,8.1122,8.033,7.9926,7.9743,7.9779,7.9633,7.925,7.8883,7.8772,7.8369,7.7876,7.7619,7.7472,7.7472,7.7179,7.6775,7.6019,9.8907,9.8998,9.9039,9.9475,10.0362,10.0452,10.1815,10.3668,10.379,10.4687,10.5972,10.4598,10.3994,10.388,10.3953,10.399,10.3953,10.3917,10.3953,10.3953,10.3917,10.388,10.399,10.3953,10.388,10.3843,10.3109,10.2265,10.1294,9.9805,9.83,9.6795,9.5969,9.5639,9.5565,9.4813,9.441,9.441,9.4483,9.4079,9.3272,9.3161,9.2648,9.173,9.0922,9.0501,9.0482,8.9803,8.94,8.94,8.9363,8.929,8.9307,8.9216,8.8812,8.8057,8.7967,8.7949,8.7893,8.8482,8.8021,8.6757,8.6419,8.5812,8.4546,8.4365,8.3744,8.2708,8.2272,8.259,8.3124,8.27,8.2627,8.3214,8.3271,8.3271,8.3271,8.3271,8.3271,8.3271,8.2774,8.2186,8.237,8.2223,8.2113,8.2296,8.2113,8.1893,8.1746,8.1725,8.1709,8.1599,8.0938,8.0461,8.1158,8.1746,8.1929,8.1525,8.1709,8.1358,8.0624,8.011,7.9853,8.0257,7.9853,7.9706,7.9669,7.9559,7.9213,7.8589,7.8369,7.8222,7.7546,7.7215,7.6592,10.036,10.1217,10.1234,10.1702,10.2449,10.2487,10.357,10.5325,10.54,10.6316,10.7753,10.7659,10.6807,10.5427,10.5348,10.5369,10.5406,10.5385,10.5348,10.5348,10.5385,10.5369,10.5385,10.5385,10.5128,10.4577,10.3806,10.2742,10.142,9.9879,9.8778,9.8024,9.6869,9.6189,9.6098,9.4483,9.3602,9.3565,9.3088,9.2648,9.2464,9.2831,9.2684,9.1877,9.1473,9.1326,9.1289,9.0996,9.0849,9.0812,9.0812,9.1043,9.1485,9.1078,9.0454,8.9601,8.8259,8.7897,8.8778,8.8741,8.8557,8.8264,8.7823,8.7038,8.5969,8.582,8.5521,8.4913,8.4114,8.3765,8.4038,8.3801,8.3765,8.4058,8.4115,8.4112,8.4132,8.4132,8.4132,8.4095,8.3838,8.3581,8.3544,8.3214,8.2957,8.2847,8.2553,8.226,8.2223,8.2186,8.2186,8.2113,8.1615,8.1636,8.2223,8.2647,8.2884,8.303,8.2957,8.248,8.2039,8.1452,8.1248,8.1175,8.0791,8.0534,8.0498,8.0073,7.9633,7.9265,7.8825,7.8479,7.8133,7.7656,7.6995,10.1989,10.2992,10.3059,10.3437,10.3988,10.4025,10.478,10.6025,10.6289,10.7346,10.8931,10.9814,10.9318,10.7933,10.7758,10.7795,10.7795,10.7758,10.7627,10.7479,10.7442,10.7209,10.6763,10.6464,10.5932,10.5039,10.4027,10.2705,10.12,10.0062,9.9328,9.8924,9.7493,9.6782,9.6732,9.4613,9.3502,9.3652,9.2875,9.2431,9.2522,9.3043,9.2892,9.1913,9.1803,9.1893,9.2124,9.2124,9.221,9.2431,9.2431,9.2678,9.3218,9.2744,9.1952,9.0796,8.9023,8.8355,8.9503,8.9256,8.9151,8.9409,8.8883,8.8204,8.7537,8.7349,8.7349,8.7284,8.663,8.6106,8.5228,8.5191,8.5191,8.5191,8.5339,8.5487,8.5534,8.5403,8.5263,8.523,8.4792,8.4609,8.4499,8.4095,8.3711,8.3654,8.3251,8.2847,8.281,8.2737,8.2627,8.2774,8.27,8.2737,8.3271,8.3308,8.3748,8.3911,8.3601,8.3234,8.3161,8.248,8.2203,8.1672,8.1489,8.1379,8.1342,8.0807,8.0341,8.0084,7.9658,7.9289,7.9305,7.8759,7.8541,10.3882,10.3927,10.3965,10.4041,10.4056,10.4139,10.4546,10.565,10.6231,10.7408,10.9057,10.9926,11.0585,11.1032,11.0995,11.1129,11.108,11.0922,11.0512,10.9893,10.9942,10.9104,10.7535,10.6791,10.5966,10.5163,10.3781,10.2229,10.0625,10.0382,9.9842,9.913,9.7703,9.7119,9.7346,9.5417,9.4513,9.5011,9.4377,9.3973,9.3973,9.4048,9.3361,9.2071,9.1839,9.2264,9.2826,9.2939,9.3249,9.3963,9.3907,9.3977,9.4009,9.393,9.3049,9.1593,9.0572,9.0107,9.0311,9.0726,9.0906,9.0406,9.0183,8.9815,8.9062,8.8948,8.8948,8.8985,8.9438,8.8956,8.7184,8.6826,8.6713,8.6689,8.7295,8.7594,8.7658,8.7073,8.6818,8.6608,8.5773,8.5193,8.4833,8.4609,8.4636,8.4636,8.4496,8.4352,8.4168,8.3728,8.3708,8.4015,8.3851,8.3434,8.3504,8.3801,8.3711,8.3821,8.3985,8.3324,8.2663,8.2223,8.2203,8.2203,8.2039,8.1966,8.2076,8.1941,8.1633,8.1323,8.0976,8.073,8.0703,8.1155,8.0819,10.5065,10.5517,10.5529,10.5529,10.5606,10.6141,10.6829,10.7632,10.8486,10.948,11.0576,11.1417,11.1965,11.2271,11.2819,11.2437,11.1474,11.141,11.1221,11.0979,11.0979,11.0347,10.9274,10.8397,10.7231,10.5911,10.4832,10.3765,10.2755,10.2643,10.2232,10.126,9.978,9.891,9.8266,9.6689,9.5888,9.6092,9.5818,9.5464,9.4963,9.4884,9.4362,9.3356,9.3273,9.3395,9.3692,9.3692,9.3836,9.4102,9.4102,9.4041,9.3908,9.2943,9.1912,9.0835,8.9976,8.9944,9.082,9.0754,9.0978,9.1608,9.118,9.0729,9.0503,9.0426,9.0426,9.0492,9.0656,9.0332,8.9842,8.9275,8.8859,8.838,8.8468,8.8695,8.8643,8.8445,8.8296,8.8217,8.7768,8.7528,8.71,8.6676,8.6109,8.5994,8.5247,8.4799,8.4589,8.4315,8.4506,8.5028,8.5132,8.548,8.7079,8.5747,8.4956,8.4792,8.4646,8.4362,8.3827,8.2817,8.2591,8.2644,8.2513,8.2418,8.2507,8.2689,8.2466,8.249,8.2169,8.2158,8.2159,8.2411,8.1993,10.6702,10.7182,10.7213,10.7203,10.728,10.7829,10.8406,10.8983,10.9829,11.0675,11.1549,11.2368,11.2819,11.3176,11.3753,11.3426,11.2324,11.2228,11.2062,11.1834,11.1834,11.1247,11.0174,10.9333,10.8062,10.6471,10.5293,10.4501,10.4063,10.4025,10.352,10.2622,10.1309,10.0397,9.9597,9.8151,9.7423,9.7617,9.7452,9.6983,9.6476,9.6438,9.6046,9.5311,9.5197,9.4933,9.4476,9.445,9.4579,9.478,9.4817,9.463,9.4162,9.2915,9.18,9.1026,9.0257,9.019,9.1083,9.0773,9.0924,9.1935,9.1547,9.1201,9.1201,9.1479,9.1479,9.1364,9.1787,9.1902,9.1324,9.1079,9.0736,8.9991,8.9789,8.9789,8.9778,8.9585,8.9314,8.9097,8.8968,8.8994,8.8994,8.8203,8.7703,8.7608,8.6661,8.6109,8.6041,8.5813,8.5936,8.6553,8.6594,8.7204,8.8282,8.7792,8.7503,8.7398,8.627,8.5788,8.5091,8.3954,8.3229,8.3163,8.3045,8.2912,8.298,8.326,8.3419,8.3505,8.3628,8.3608,8.357,8.3487,8.3215,10.8818,10.8752,10.8867,10.8713,10.8675,10.8867,10.8906,10.9136,10.9906,11.0791,11.1549,11.2291,11.2945,11.3676,11.3676,11.3786,11.3531,11.3447,11.3178,11.2728,11.2724,11.1868,11.0445,10.9631,10.8306,10.6526,10.4924,10.4207,10.4235,10.4166,10.3645,10.2771,10.1943,10.1359,10.1266,9.9701,9.9292,9.9637,9.917,9.8807,9.8779,9.8634,9.8182,9.7491,9.7366,9.6685,9.5326,9.5227,9.5501,9.6049,9.6155,9.5837,9.4838,9.3887,9.3174,9.2255,9.1562,9.1204,9.1166,9.1157,9.1091,9.1317,9.1201,9.1201,9.1287,9.1902,9.2095,9.171,9.2441,9.2941,9.171,9.1774,9.1873,9.1328,9.0962,9.0952,9.0895,9.0498,8.9878,8.9426,8.9352,8.9149,8.9136,8.906,8.8946,8.8882,8.87,8.849,8.8323,8.7872,8.8163,8.8618,8.8571,8.8886,8.9409,8.9789,9.013,9.0155,8.8587,8.7534,8.6807,8.5842,8.501,8.4761,8.4196,8.4022,8.3937,8.4139,8.413,8.4263,8.4561,8.4871,8.4782,8.471,8.4927,10.8906,10.8906,10.8906,10.8906,10.8983,10.9521,10.979,10.9867,11.0714,11.1242,11.1511,11.1742,11.2011,11.2252,11.2291,11.228,11.2291,11.2329,11.2714,11.3407,11.356,11.2972,11.188,11.1051,10.9539,10.7574,10.6811,10.6198,10.5551,10.5027,10.4323,10.352,10.2655,10.1914,10.1328,10.0806,10.0727,10.0836,10.0673,10.0289,9.976,9.9683,9.9259,9.8519,9.8365,9.7856,9.6825,9.6239,9.6088,9.6279,9.6288,9.5634,9.4287,9.3326,9.2479,9.171,9.1364,9.1201,9.1201,9.1201,9.1201,9.1201,9.1201,9.1201,9.1278,9.2018,9.2364,9.2095,9.2595,9.2556,9.221,9.1748,9.1518,9.1201,9.1201,9.1201,9.1154,9.0989,9.0781,9.0596,9.0546,9.0546,9.0416,9.0187,8.9798,8.9751,8.9438,8.9212,8.9098,8.9011,8.8998,8.9555,8.9866,9.0268,9.0639,9.1084,9.1549,9.1324,9.0093,8.9216,8.8513,8.7582,8.684,8.6198,8.5595,8.5292,8.5165,8.5017,8.5044,8.5061,8.5292,8.5561,8.5737,8.5766,8.5753,10.9867,10.9867,10.9867,10.9867,10.9906,11.0483,11.0675,11.0752,11.1252,11.1511,11.1511,11.1511,11.1511,11.1511,11.1511,11.1511,11.1511,11.1511,11.206,11.2945,11.306,11.2753,11.2175,11.1406,11.0098,10.8406,10.7818,10.7059,10.5905,10.5328,10.452,10.3482,10.2866,10.2154,10.1394,10.1279,10.1279,10.1279,10.1279,10.1058,10.0673,10.0519,10.0135,9.9413,9.9288,9.8827,9.8019,9.7211,9.6596,9.6288,9.6019,9.5134,9.3796,9.2941,9.2133,9.1393,9.1201,9.1201,9.1201,9.1201,9.1201,9.1201,9.1201,9.1201,9.1393,9.221,9.2749,9.2133,9.2633,9.271,9.2056,9.1595,9.1201,9.1201,9.1201,9.1201,9.1201,9.1201,9.1154,9.1109,9.1127,9.1201,9.1044,9.0886,9.0508,9.0436,9.0127,8.9882,8.9882,8.9916,9.0138,9.043,9.0693,9.1187,9.1777,9.2334,9.289,9.2253,9.1271,9.0795,9.0279,8.9096,8.8159,8.7683,8.71,8.7055,8.6933,8.6362,8.6155,8.6179,8.6032,8.5902,8.5962,8.5988,8.5978,11.1472,11.1511,11.1472,11.1357,11.1357,11.1434,11.1395,11.1472,11.1511,11.1511,11.1511,11.1511,11.1511,11.1511,11.1511,11.1511,11.1511,11.1511,11.1549,11.1703,11.1742,11.1703,11.1549,11.0906,10.9944,10.8829,10.8059,10.679,10.529,10.4828,10.4184,10.2828,10.252,10.2135,10.1433,10.1279,10.1279,10.1279,10.1279,10.1279,10.1202,10.1241,10.0904,10.0183,10.0029,9.9644,9.8865,9.8057,9.7173,9.6365,9.5557,9.472,9.3758,9.2941,9.2095,9.1278,9.1201,9.1201,9.1201,9.1201,9.1201,9.1201,9.1201,9.124,9.1556,9.2633,9.3095,9.2018,9.2864,9.3018,9.1825,9.1287,9.1201,9.1201,9.1201,9.1201,9.1201,9.1201,9.1201,9.1201,9.1201,9.1201,9.1201,9.1127,9.1109,9.11,9.1008,9.0943,9.0934,9.0829,9.1082,9.1209,9.1299,9.1442,9.1808,9.229,9.2708,9.2056,9.1471,9.1366,9.1251,9.0235,8.9573,8.912,8.8601,8.8644,8.8439,8.7772,8.7187,8.6953,8.6688,8.6316,8.6094,8.6094,8.6094,11.1511,11.1511,11.1511,11.1511,11.1511,11.1511,11.1472,11.1511,11.1511,11.1511,11.1511,11.1511,11.1511,11.1511,11.1511,11.1511,11.1511,11.1511,11.1511,11.1511,11.1511,11.1511,11.1511,11.1252,11.0329,10.8944,10.7982,10.679,10.5107,10.3905,10.3097,10.2635,10.1981,10.1558,10.1317,10.1279,10.1279,10.1279,10.1279,10.1279,10.1279,10.1279,10.1212,10.0981,10.0452,10.0029,9.9683,9.8904,9.775,9.6365,9.548,9.4604,9.3681,9.2903,9.2056,9.1355,9.1201,9.1201,9.1201,9.1201,9.1201,9.1201,9.1201,9.1479,9.2133,9.3095,9.3403,9.3095,9.3518,9.3249,9.2249,9.1556,9.1248,9.1201,9.1201,9.1201,9.1201,9.1201,9.1201,9.1201,9.1201,9.1201,9.1201,9.1201,9.1201,9.1201,9.1201,9.1201,9.1201,9.1201,9.1201,9.1441,9.1562,9.155,9.171,9.2172,9.2192,9.1598,9.1263,9.1275,9.1218,9.0881,9.0678,9.0559,8.9737,8.9551,8.9299,8.8859,8.8355,8.7825,8.7248,8.6824,8.6324,8.6132,8.6094,11.0944,11.0906,11.056,11.0598,11.0944,11.0944,11.0752,11.0637,11.1203,11.1252,11.1098,11.1357,11.1511,11.1511,11.1511,11.1511,11.1511,11.1511,11.1511,11.1434,11.1098,11.1137,11.1329,11.1175,11.006,10.8444,10.7559,10.5982,10.4212,10.302,10.2481,10.202,10.1548,10.1317,10.1317,10.1279,10.1279,10.1279,10.1279,10.1279,10.1279,10.1279,10.1279,10.1241,10.0789,10.0519,10.0067,9.9259,9.8019,9.6519,9.5441,9.4489,9.3249,9.2402,9.1748,9.1201,9.1201,9.1201,9.1201,9.1201,9.1201,9.1201,9.1201,9.1672,9.2326,9.2979,9.321,9.3133,9.321,9.2787,9.2095,9.1479,9.124,9.1201,9.1201,9.1201,9.1201,9.1201,9.1201,9.1201,9.1201,9.1201,9.1201,9.1201,9.1201,9.1201,9.1201,9.1201,9.1201,9.1201,9.1201,9.1402,9.1518,9.1441,9.1402,9.1748,9.1902,9.1317,9.1201,9.1201,9.1201,9.1201,9.1163,9.1018,9.0624,9.0355,9.0086,8.9787,8.9286,8.8671,8.7979,8.7325,8.6824,8.6324,8.6247,11.006,10.9983,10.9213,10.9329,11.0021,11.006,10.9675,10.9329,11.0444,11.0675,11.0329,11.0868,11.1098,11.1357,11.1021,11.1214,11.1318,11.1252,11.1291,11.106,11.0714,11.056,11.0791,11.0098,10.8983,10.7559,10.6636,10.4905,10.3251,10.2558,10.2058,10.1548,10.1356,10.1317,10.1279,10.1279,10.1279,10.1279,10.1279,10.1279,10.1279,10.1279,10.1279,10.1241,10.1019,10.0635,10.0067,9.9336,9.8288,9.6673,9.5672,9.4527,9.3018,9.2018,9.1364,9.1201,9.1201,9.1201,9.1201,9.1201,9.1201,9.1201,9.1325,9.171,9.2556,9.3018,9.3095,9.2941,9.2672,9.2326,9.1518,9.1201,9.1201,9.1201,9.1201,9.1201,9.1201,9.1201,9.1201,9.1201,9.1201,9.1201,9.1201,9.1201,9.1201,9.1201,9.1201,9.1201,9.1201,9.1201,9.1201,9.124,9.124,9.124,9.1201,9.124,9.1317,9.1201,9.1201,9.1201,9.1201,9.1201,9.1201,9.1047,9.0855,9.0855,9.0902,9.0517,9.0056,8.9509,8.8778,8.8055,8.7363,8.6824,8.6594,10.9175,10.9136,10.8983,10.9021,10.9175,10.9175,10.906,10.8906,10.929,10.9444,10.9252,10.9406,10.9906,11.0444,10.9906,10.9829,11.0406,11.0483,11.0483,11.0444,11.0329,10.9829,10.9444,10.8559,10.7675,10.6521,10.5136,10.3789,10.2674,10.1933,10.151,10.1356,10.1279,10.1279,10.1279,10.1279,10.1279,10.1279,10.1279,10.1279,10.1279,10.1279,10.1279,10.1202,10.0673,10.0298,10.0144,9.9913,9.9288,9.8173,9.6903,9.5672,9.4335,9.2903,9.1941,9.1402,9.1201,9.1201,9.1201,9.1201,9.1201,9.124,9.1787,9.2556,9.3364,9.3989,9.3941,9.3633,9.3403,9.2633,9.1432,9.1201,9.1201,9.1201,9.1201,9.1201,9.1201,9.1201,9.1201,9.1201,9.1201,9.1201,9.1201,9.1201,9.1201,9.1201,9.1201,9.1201,9.1201,9.1201,9.1201,9.1201,9.1201,9.1201,9.1201,9.1201,9.1201,9.1201,9.1201,9.1201,9.1201,9.1201,9.1201,9.1201,9.1163,9.121,9.121,9.1133,9.0633,9.0086,8.9547,8.8825,8.8094,8.7478,8.6901,10.8329,10.829,10.7905,10.7944,10.829,10.8329,10.8136,10.7944,10.8636,10.8675,10.8482,10.8675,10.9175,10.956,10.9136,10.9213,10.9483,10.9598,10.956,10.9483,10.9213,10.8521,10.7559,10.6597,10.5751,10.5443,10.4097,10.2866,10.2058,10.1587,10.1317,10.1279,10.1279,10.1279,10.1279,10.1279,10.1279,10.1279,10.1279,10.1279,10.1279,10.1279,10.1019,10.0673,9.9952,9.949,9.9452,9.949,9.9452,9.9183,9.8519,9.7057,9.5104,9.345,9.2364,9.1902,9.1364,9.124,9.1201,9.1201,9.1201,9.1201,9.2018,9.2826,9.348,9.4181,9.4172,9.3749,9.3249,9.2556,9.1393,9.1201,9.1201,9.1201,9.1201,9.1201,9.1201,9.1201,9.1201,9.1201,9.1201,9.1201,9.1201,9.1201,9.1201,9.1201,9.1201,9.1201,9.1201,9.1201,9.1201,9.1201,9.1201,9.1201,9.1201,9.1201,9.1201,9.1201,9.1201,9.1201,9.1201,9.1201,9.1201,9.1201,9.1201,9.1201,9.1163,9.1171,9.1133,9.0701,9.0124,8.9479,8.8786,8.8094,8.7478,10.7521,10.7444,10.6713,10.6828,10.7444,10.7482,10.7136,10.6751,10.7867,10.7982,10.7713,10.8252,10.8406,10.8636,10.8482,10.8521,10.8713,10.8713,10.8713,10.8636,10.8213,10.7367,10.6251,10.5059,10.4328,10.452,10.3135,10.202,10.1548,10.1279,10.1279,10.1279,10.1279,10.1279,10.1279,10.1279,10.1279,10.1279,10.1279,10.1279,10.1279,10.1279,10.0981,10.0481,9.9442,9.9135,9.9144,9.9106,9.9211,10.0029,10.0106,9.8528,9.6259,9.3903,9.2633,9.2556,9.1672,9.1248,9.1201,9.1201,9.1248,9.1364,9.221,9.3056,9.3749,9.4027,9.398,9.348,9.2941,9.2018,9.1278,9.1201,9.1201,9.1201,9.1201,9.1201,9.1201,9.1201,9.1201,9.1201,9.1201,9.1201,9.1201,9.1201,9.1201,9.1201,9.1201,9.1201,9.1201,9.1201,9.1201,9.1201,9.1201,9.1201,9.1201,9.1201,9.1201,9.1201,9.1201,9.1201,9.1201,9.1201,9.1201,9.1201,9.1201,9.1201,9.1201,9.1163,9.1124,9.1047,9.074,9.0133,8.9402,8.8632,8.8094,10.6597,10.6597,10.6472,10.651,10.6587,10.6626,10.6549,10.6433,10.678,10.6741,10.6703,10.678,10.7367,10.7598,10.7098,10.7251,10.779,10.7867,10.7905,10.7867,10.7521,10.6751,10.529,10.4251,10.3597,10.2866,10.2058,10.151,10.1356,10.1279,10.1279,10.1279,10.1279,10.1279,10.1279,10.1279,10.1279,10.1279,10.1279,10.1279,10.1279,10.1279,10.1164,10.0712,9.9519,9.9135,9.9413,9.9144,9.9211,9.999,10.0106,9.9721,9.849,9.6105,9.4143,9.2787,9.1748,9.1201,9.1201,9.1248,9.1595,9.2249,9.3056,9.3796,9.445,9.4681,9.4258,9.3364,9.2364,9.1355,9.124,9.1201,9.1201,9.1201,9.1201,9.1201,9.1201,9.1201,9.1201,9.1201,9.1201,9.1201,9.1201,9.1201,9.1201,9.1201,9.1201,9.1201,9.1201,9.1201,9.1201,9.1201,9.1201,9.1201,9.1201,9.1201,9.1201,9.1201,9.1201,9.1201,9.1201,9.1201,9.1201,9.1201,9.1201,9.1201,9.1201,9.1201,9.1163,9.1124,9.0932,9.0701,9.0086,8.9355,8.8748,10.6395,10.6395,10.6395,10.6395,10.6395,10.6395,10.6395,10.6395,10.6395,10.6395,10.6395,10.6433,10.6587,10.6828,10.6674,10.6703,10.6933,10.7021,10.7059,10.6982,10.6521,10.5751,10.4482,10.3635,10.2751,10.2058,10.1471,10.1279,10.1279,10.1279,10.1279,10.1279,10.1279,10.1279,10.1279,10.1279,10.1279,10.1279,10.1279,10.1279,10.1279,10.1279,10.1164,10.0442,9.9558,9.8865,9.8557,9.8442,9.8557,9.9298,9.9837,10.0029,9.9375,9.7836,9.5518,9.3903,9.221,9.1201,9.1317,9.1556,9.2095,9.2518,9.3604,9.422,9.4489,9.4527,9.4373,9.3172,9.2133,9.1201,9.1201,9.1201,9.1201,9.1201,9.1201,9.1201,9.1201,9.1201,9.1201,9.1201,9.1201,9.1201,9.1201,9.1201,9.1201,9.1201,9.1201,9.1201,9.1201,9.1201,9.1201,9.1201,9.1201,9.1201,9.1201,9.1201,9.1201,9.1201,9.1201,9.1201,9.1201,9.1201,9.1201,9.1201,9.1201,9.1201,9.1201,9.1201,9.1201,9.1201,9.1047,9.0893,9.0624,9.0124,8.947,10.6395,10.6395,10.6395,10.6395,10.6395,10.6395,10.6395,10.6395,10.6395,10.6395,10.6395,10.6395,10.6395,10.6395,10.6395,10.6395,10.6395,10.6433,10.6356,10.602,10.5559,10.4674,10.3635,10.2943,10.2251,10.1548,10.1356,10.1279,10.1279,10.1279,10.1279,10.1279,10.1279,10.1279,10.1279,10.1279,10.1279,10.1279,10.1279,10.1279,10.1279,10.1241,10.1019,10.0327,9.949,9.8711,9.8173,9.8057,9.8288,9.8952,9.9606,10.0183,9.9981,9.8519,9.6903,9.5365,9.2941,9.1787,9.1672,9.2018,9.2595,9.3258,9.4296,9.4527,9.4518,9.4557,9.4057,9.271,9.1748,9.1201,9.1201,9.1201,9.1201,9.1201,9.1201,9.1201,9.1201,9.1201,9.1201,9.1201,9.1201,9.1201,9.1201,9.1201,9.1201,9.1201,9.1201,9.1201,9.1201,9.1201,9.1201,9.1201,9.1201,9.1201,9.1201,9.1201,9.1201,9.1201,9.1201,9.1201,9.1201,9.1201,9.1201,9.1201,9.1201,9.1201,9.1201,9.1201,9.1201,9.1201,9.1201,9.1086,9.0855,9.0624,9.0124,10.6395,10.6395,10.6356,10.6395,10.6356,10.6318,10.6395,10.6395,10.6395,10.6395,10.6395,10.6395,10.6395,10.6395,10.6395,10.6395,10.6395,10.6356,10.602,10.5443,10.5059,10.4212,10.2981,10.2712,10.2058,10.1394,10.1279,10.1279,10.1279,10.1279,10.1279,10.1279,10.1279,10.1279,10.1279,10.1279,10.1279,10.1279,10.1279,10.1279,10.1279,10.1279,10.1212,10.0943,10.0289,9.949,9.8711,9.8596,9.8682,9.8913,9.9644,10.0404,10.0635,9.8788,9.7711,9.6365,9.448,9.2364,9.2402,9.2556,9.321,9.4104,9.4912,9.5326,9.5172,9.4326,9.348,9.2633,9.171,9.1248,9.1201,9.1201,9.1201,9.1201,9.1201,9.1201,9.1201,9.1201,9.1201,9.1201,9.1201,9.1201,9.1201,9.1201,9.1201,9.1201,9.1201,9.1201,9.1201,9.1201,9.1201,9.1201,9.1201,9.1201,9.1201,9.1201,9.1201,9.1201,9.1201,9.1201,9.1201,9.1201,9.1201,9.1201,9.1201,9.1201,9.1201,9.1201,9.1201,9.1201,9.1201,9.1201,9.1163,9.0893,9.0663,10.5674,10.5636,10.5174,10.5251,10.5636,10.5674,10.5944,10.6318,10.6395,10.6395,10.6395,10.6395,10.6395,10.6377,10.6395,10.6395,10.6395,10.6369,10.5905,10.5032,10.457,10.3742,10.2751,10.2097,10.1558,10.1472,10.1279,10.1279,10.1289,10.1318,10.1279,10.1279,10.1279,10.1279,10.1279,10.1279,10.1279,10.1279,10.1279,10.1279,10.1279,10.1279,10.1279,10.1241,10.0519,9.9952,9.9567,9.899,9.9144,9.9413,9.999,10.0452,10.0789,9.9827,9.8634,9.7326,9.5826,9.4287,9.3364,9.3249,9.3989,9.4797,9.5412,9.5711,9.5374,9.4134,9.2979,9.2556,9.171,9.1248,9.1201,9.1201,9.1201,9.1201,9.1201,9.1201,9.1201,9.1201,9.1201,9.1201,9.1201,9.1201,9.1201,9.1201,9.1201,9.1201,9.1201,9.1201,9.1201,9.1201,9.1201,9.1201,9.1201,9.1201,9.1201,9.1201,9.1201,9.1201,9.1201,9.1201,9.1201,9.1201,9.1201,9.1201,9.1201,9.1201,9.1201,9.1201,9.1201,9.1201,9.1201,9.1201,9.1201,9.1163,9.0778,10.4482,10.4443,10.4069,10.4251,10.4789,10.4789,10.529,10.602,10.6059,10.6213,10.6356,10.6367,10.6427,10.6469,10.6487,10.6417,10.6237,10.6269,10.5574,10.4773,10.4039,10.3319,10.2536,10.1829,10.1589,10.1483,10.1586,10.1569,10.1528,10.1517,10.1483,10.1308,10.1279,10.1279,10.1279,10.1279,10.1279,10.1279,10.1279,10.1279,10.1279,10.1279,10.1279,10.1125,10.075,10.0298,10.0029,9.9567,9.9606,9.9875,10.0067,10.0481,10.0981,10.0366,9.9452,9.8327,9.7057,9.6134,9.5326,9.498,9.5018,9.5672,9.6057,9.6288,9.5365,9.3826,9.2787,9.2903,9.1787,9.1325,9.1201,9.1201,9.1201,9.1201,9.1201,9.1201,9.1201,9.1201,9.1201,9.1201,9.1201,9.1201,9.1201,9.1201,9.1201,9.1201,9.1201,9.1201,9.1201,9.1201,9.1201,9.1201,9.1201,9.1201,9.1201,9.1201,9.1201,9.1201,9.1201,9.1201,9.1201,9.1201,9.1201,9.1201,9.1201,9.1201,9.1201,9.1201,9.1201,9.1201,9.1201,9.1201,9.1201,9.1201,9.0893,10.2789,10.2828,10.3558,10.3866,10.3992,10.3982,10.4453,10.5174,10.5213,10.5733,10.6409,10.6438,10.6587,10.6686,10.6596,10.635,10.5933,10.5927,10.4998,10.4066,10.3394,10.2966,10.236,10.2049,10.1978,10.1978,10.1921,10.1944,10.2012,10.1891,10.1678,10.1402,10.1443,10.1346,10.1365,10.1434,10.1446,10.1437,10.1437,10.1391,10.1373,10.1393,10.1345,10.1356,10.1231,10.0875,10.0202,10.0131,10.0022,10.0262,10.0366,10.0464,10.098,10.074,10.0093,9.9399,9.8225,9.7659,9.7518,9.6749,9.6942,9.7673,9.775,9.6903,9.598,9.4518,9.371,9.3287,9.2056,9.1325,9.1201,9.1201,9.1201,9.1201,9.1201,9.1201,9.1201,9.1201,9.1201,9.1201,9.1201,9.1201,9.1201,9.1201,9.1201,9.1201,9.1201,9.1201,9.1201,9.1201,9.1201,9.1201,9.1201,9.1201,9.1201,9.1201,9.1201,9.1201,9.1201,9.1201,9.1201,9.1201,9.1201,9.1201,9.1201,9.1201,9.1201,9.1201,9.1201,9.1201,9.1201,9.1201,9.1201,9.1201,9.0855,10.2289,10.1827,10.2174,10.2597,10.3097,10.3097,10.3558,10.4376,10.4915,10.5688,10.6645,10.6789,10.6944,10.6886,10.6406,10.6143,10.583,10.5285,10.4406,10.3768,10.3301,10.2883,10.2382,10.2138,10.2105,10.2134,10.2129,10.2115,10.2095,10.2161,10.2049,10.1848,10.1795,10.1802,10.1795,10.1758,10.1779,10.1793,10.1806,10.1781,10.1788,10.1788,10.1788,10.1788,10.1788,10.1678,10.1388,10.1336,10.1019,10.0798,10.0979,10.1067,10.1124,10.1067,10.0935,10.0387,9.9188,9.9103,9.9162,9.8153,9.748,9.7634,9.7596,9.7173,9.6326,9.4711,9.3864,9.3172,9.221,9.124,9.1201,9.1201,9.1201,9.1201,9.1201,9.1201,9.1201,9.1201,9.1201,9.1201,9.1201,9.1201,9.1201,9.1201,9.1201,9.1201,9.1201,9.1201,9.1201,9.1201,9.1201,9.1201,9.1201,9.1201,9.1201,9.1201,9.1201,9.1201,9.1201,9.1201,9.1201,9.1201,9.1201,9.1201,9.1201,9.1201,9.1201,9.1201,9.1201,9.1201,9.1201,9.1201,9.1201,9.1201,9.0893,10.1856,10.1317,10.1279,10.1635,10.2174,10.2212,10.2712,10.3588,10.4484,10.5675,10.6917,10.7121,10.7062,10.6788,10.6377,10.566,10.5318,10.4746,10.4031,10.3495,10.3154,10.289,10.2543,10.2364,10.2434,10.2344,10.2344,10.2368,10.2383,10.2354,10.2358,10.2358,10.2298,10.2262,10.208,10.2115,10.2115,10.211,10.211,10.211,10.2095,10.209,10.208,10.207,10.2059,10.2054,10.1849,10.16,10.1227,10.1072,10.1126,10.1263,10.1317,10.138,10.154,10.0991,10.0476,10.0221,10.0063,9.9585,9.8422,9.825,9.8057,9.7403,9.6211,9.4749,9.3787,9.3557,9.2249,9.1201,9.1201,9.1201,9.1201,9.1201,9.1201,9.1201,9.1201,9.1201,9.1201,9.1201,9.1201,9.1201,9.1201,9.1201,9.1201,9.1201,9.1201,9.1201,9.1201,9.1201,9.1201,9.1201,9.1201,9.1201,9.1201,9.1201,9.1201,9.1201,9.1201,9.1201,9.1201,9.1201,9.1201,9.1201,9.1201,9.1201,9.1201,9.1201,9.1201,9.1201,9.1201,9.1201,9.1201,9.1201,9.1201,10.1356,10.1279,10.1279,10.1327,10.1453,10.1375,10.1857,10.276,10.387,10.5308,10.6803,10.7023,10.6755,10.6353,10.6024,10.5365,10.457,10.4219,10.3711,10.3125,10.3008,10.289,10.2851,10.2773,10.2734,10.2851,10.2812,10.2734,10.2812,10.2734,10.2773,10.2773,10.2695,10.2597,10.2166,10.2129,10.2129,10.2129,10.2166,10.2193,10.2205,10.2222,10.2226,10.2234,10.2238,10.225,10.1903,10.151,10.1046,10.061,10.0952,10.0987,10.0863,10.1711,10.2024,10.1925,10.1794,10.1684,10.1545,10.125,10.0106,9.8788,9.8442,9.7827,9.6365,9.4864,9.371,9.3595,9.221,9.1317,9.1201,9.121,9.121,9.1201,9.1201,9.1201,9.1201,9.1201,9.1201,9.1201,9.1201,9.1201,9.1201,9.1201,9.1201,9.1201,9.1201,9.1201,9.1201,9.1201,9.1201,9.1201,9.1201,9.1201,9.1201,9.1201,9.1201,9.1201,9.1201,9.1201,9.1201,9.1201,9.1201,9.1201,9.1201,9.1201,9.1201,9.1201,9.1201,9.1201,9.1201,9.1201,9.1201,9.1201,9.1201,10.1827,10.1279,10.1279,10.14,10.1545,10.1569,10.1763,10.2199,10.3383,10.4682,10.5653,10.5968,10.6017,10.5688,10.5195,10.4648,10.4219,10.3437,10.3008,10.2969,10.289,10.289,10.289,10.289,10.289,10.289,10.289,10.289,10.289,10.289,10.289,10.289,10.289,10.2812,10.2666,10.2611,10.2654,10.2652,10.2654,10.2615,10.2617,10.2617,10.2617,10.2617,10.2578,10.2344,10.1836,10.1328,10.0742,10.0078,10.039,10.0898,10.0859,10.164,10.2451,10.2242,10.2007,10.1305,10.0974,10.0522,9.9962,9.9211,9.8652,9.7959,9.6412,9.4711,9.3941,9.337,9.2169,9.142,9.1201,9.1227,9.1227,9.121,9.1201,9.1201,9.1201,9.1201,9.1201,9.1201,9.1201,9.1201,9.1201,9.1201,9.1201,9.1201,9.1201,9.1201,9.1201,9.1201,9.1201,9.1201,9.1201,9.1201,9.1201,9.1201,9.1201,9.1201,9.1201,9.1201,9.1201,9.1201,9.1201,9.1201,9.1201,9.1201,9.1201,9.1201,9.1201,9.1201,9.1201,9.1201,9.1201,9.1201,9.1201,10.2558,10.1808,10.1863,10.1984,10.2112,10.1855,10.1943,10.2484,10.341,10.4336,10.5158,10.5469,10.5312,10.4961,10.4492,10.3906,10.3711,10.3203,10.289,10.289,10.289,10.289,10.289,10.289,10.289,10.289,10.289,10.289,10.289,10.289,10.289,10.289,10.289,10.289,10.2851,10.2851,10.2851,10.2851,10.2812,10.2851,10.2851,10.2851,10.289,10.289,10.2773,10.25,10.1797,10.1133,10.0508,9.9804,9.9844,10.0625,10.0781,10.1445,10.2422,10.2315,10.2092,10.1525,10.1349,10.1102,10.0495,9.9281,9.8806,9.7693,9.6239,9.4736,9.3895,9.3145,9.2095,9.1692,9.1436,9.1414,9.1399,9.1399,9.1414,9.1429,9.1307,9.1322,9.1273,9.1286,9.1258,9.1241,9.1232,9.1201,9.1201,9.1201,9.1201,9.1198,9.1215,9.118,9.121,9.1201,9.1201,9.1201,9.1201,9.1201,9.1201,9.1201,9.1201,9.1201,9.1201,9.1201,9.1201,9.1201,9.1201,9.1201,9.1201,9.1201,9.1201,9.1201,9.1201,9.1201,9.1201,9.1201,9.1201,10.3415,10.2732,10.2878,10.3,10.2934,10.2294,10.2591,10.3688,10.37,10.434,10.5312,10.5195,10.4804,10.4219,10.4101,10.3672,10.3164,10.2969,10.2929,10.289,10.289,10.289,10.289,10.289,10.289,10.289,10.289,10.289,10.289,10.289,10.289,10.289,10.289,10.289,10.289,10.289,10.289,10.289,10.289,10.289,10.289,10.289,10.289,10.289,10.2851,10.2304,10.1562,10.0781,9.9844,9.9179,9.8945,9.9531,10.0195,10.1054,10.1914,10.2535,10.2535,10.2356,10.2176,10.19,10.0952,9.963,9.8632,9.7193,9.5842,9.4798,9.3992,9.3159,9.2252,9.2037,9.1811,9.1787,9.1806,9.1811,9.1816,9.1722,9.1579,9.1514,9.1441,9.1399,9.1346,9.1322,9.1377,9.133,9.1354,9.1406,9.1405,9.1414,9.1369,9.1206,9.1198,9.1201,9.1201,9.1201,9.121,9.1206,9.1201,9.1201,9.1201,9.1201,9.1201,9.121,9.1201,9.1201,9.1201,9.1201,9.1201,9.1201,9.1201,9.121,9.1219,9.1201,9.1201,9.1201,9.1201,10.4396,10.3744,10.3243,10.3546,10.4335,10.3755,10.34,10.3194,10.3156,10.3398,10.3633,10.3633,10.3633,10.3281,10.3281,10.3125,10.3008,10.289,10.289,10.289,10.289,10.289,10.289,10.289,10.289,10.289,10.289,10.289,10.289,10.289,10.289,10.289,10.289,10.289,10.289,10.289,10.289,10.289,10.289,10.289,10.289,10.289,10.289,10.289,10.289,10.2187,10.1015,10.0469,9.9375,9.7695,9.789,9.8476,9.9336,10.0234,10.1172,10.2656,10.2663,10.2473,10.234,10.1669,10.0795,9.9937,9.896,9.7489,9.6064,9.4883,9.4059,9.3224,9.2433,9.2129,9.2037,9.203,9.203,9.2034,9.2026,9.1926,9.1807,9.1781,9.1689,9.1635,9.1592,9.1586,9.1573,9.1623,9.1632,9.1667,9.1661,9.1653,9.156,9.1421,9.1314,9.1307,9.1321,9.1346,9.1261,9.1245,9.1215,9.1201,9.1224,9.1232,9.1219,9.1219,9.121,9.1228,9.1337,9.1286,9.1201,9.1241,9.1338,9.1249,9.1224,9.1189,9.121,9.1206,9.1189,10.5379,10.4766,10.4457,10.4713,10.5076,10.4492,10.3867,10.3398,10.3047,10.289,10.289,10.2969,10.289,10.2969,10.2969,10.2929,10.2929,10.289,10.289,10.289,10.289,10.289,10.289,10.289,10.289,10.289,10.289,10.289,10.289,10.289,10.289,10.289,10.289,10.289,10.289,10.289,10.289,10.289,10.289,10.289,10.289,10.289,10.289,10.289,10.289,10.1914,10.0508,10.0117,9.8594,9.6758,9.6953,9.7539,9.8906,10.039,10.1523,10.2812,10.2766,10.2707,10.2543,10.1766,10.0901,10.0078,9.9258,9.787,9.6509,9.5288,9.4346,9.3448,9.2747,9.2191,9.2183,9.2181,9.2186,9.2188,9.2175,9.212,9.2084,9.2048,9.195,9.188,9.1849,9.1839,9.1853,9.1888,9.1871,9.1816,9.1787,9.1777,9.177,9.1661,9.1616,9.1598,9.1586,9.1554,9.1448,9.1392,9.1406,9.1399,9.1346,9.1354,9.1278,9.1313,9.1399,9.1462,9.1507,9.1484,9.1441,9.1504,9.1554,9.1472,9.1421,9.1504,9.1419,9.1273,9.127,10.6315,10.5604,10.6111,10.5896,10.539,10.4687,10.4336,10.4179,10.332,10.289,10.289,10.289,10.289,10.289,10.289,10.289,10.289,10.289,10.289,10.289,10.289,10.289,10.289,10.289,10.289,10.289,10.289,10.289,10.289,10.289,10.289,10.289,10.289,10.289,10.289,10.289,10.289,10.289,10.289,10.289,10.289,10.289,10.289,10.289,10.2695,10.2109,10.0586,9.9336,9.8203,9.6758,9.6015,9.6445,9.8672,10.125,10.2422,10.2812,10.2851,10.2851,10.2617,10.1953,10.1133,10.0312,9.9492,9.8242,9.6953,9.5898,9.5,9.4062,9.3359,9.3203,9.3203,9.2969,9.2851,9.2851,9.2851,9.2617,9.2323,9.2268,9.221,9.2173,9.2117,9.2114,9.215,9.217,9.2181,9.2054,9.2037,9.2048,9.1992,9.1953,9.1858,9.183,9.1776,9.1728,9.1739,9.1678,9.1672,9.1638,9.1585,9.1502,9.1473,9.1567,9.162,9.1655,9.1689,9.1791,9.1811,9.1786,9.1749,9.1755,9.1755,9.1816,9.1739,9.152,9.1455,10.6555,10.6165,10.6488,10.6209,10.5547,10.5273,10.5156,10.5039,10.3554,10.2929,10.289,10.2929,10.289,10.289,10.289,10.289,10.289,10.289,10.289,10.289,10.289,10.289,10.289,10.289,10.289,10.289,10.289,10.289,10.289,10.289,10.289,10.289,10.289,10.289,10.289,10.289,10.289,10.289,10.289,10.289,10.289,10.289,10.289,10.289,10.2734,10.1953,10.0625,9.9375,9.7695,9.5898,9.4765,9.5703,9.789,10.1133,10.2656,10.289,10.289,10.289,10.2617,10.2031,10.1094,10.0312,9.9453,9.8515,9.7578,9.6679,9.5781,9.4883,9.4297,9.4258,9.414,9.3828,9.3594,9.3594,9.3476,9.3047,9.2578,9.25,9.2461,9.2422,9.2383,9.2383,9.2383,9.2422,9.2422,9.2442,9.2444,9.2461,9.2383,9.2344,9.2109,9.2058,9.1944,9.191,9.1926,9.195,9.1934,9.1875,9.1802,9.1737,9.1717,9.1757,9.1839,9.183,9.1858,9.2,9.2026,9.1888,9.188,9.1961,9.2023,9.2061,9.2023,9.185,9.1796,10.7053,10.6861,10.6758,10.6679,10.6406,10.5429,10.5312,10.5586,10.3828,10.3125,10.3359,10.3125,10.289,10.289,10.289,10.289,10.289,10.289,10.289,10.289,10.289,10.289,10.289,10.289,10.289,10.289,10.289,10.289,10.289,10.289,10.289,10.289,10.289,10.289,10.289,10.289,10.289,10.289,10.289,10.289,10.289,10.289,10.289,10.289,10.2656,10.1836,10.0469,9.914,9.7304,9.6172,9.5547,9.6133,9.832,10.1015,10.2617,10.289,10.289,10.289,10.2578,10.1836,10.0898,10.0117,9.9023,9.7929,9.7812,9.7031,9.6679,9.5781,9.4961,9.4765,9.4765,9.4531,9.4492,9.4453,9.3945,9.3359,9.289,9.2539,9.2539,9.2539,9.25,9.25,9.25,9.25,9.2539,9.2539,9.2578,9.2578,9.2578,9.2578,9.2422,9.2265,9.2148,9.2187,9.2274,9.2268,9.2203,9.212,9.2058,9.1998,9.198,9.2002,9.2061,9.2109,9.2187,9.2256,9.2251,9.2148,9.2187,9.2321,9.2274,9.2262,9.2187,9.2148,9.2148,10.7598,10.7553,10.6986,10.7109,10.7461,10.5547,10.5273,10.5976,10.4101,10.3515,10.3906,10.3242,10.2969,10.289,10.289,10.289,10.289,10.289,10.289,10.289,10.289,10.289,10.289,10.289,10.289,10.289,10.289,10.289,10.289,10.289,10.289,10.289,10.289,10.289,10.289,10.289,10.289,10.289,10.289,10.289,10.289,10.289,10.289,10.289,10.2656,10.1875,10.0273,9.8515,9.6836,9.6484,9.6484,9.7383,9.8711,10.1054,10.2265,10.289,10.289,10.2812,10.2383,10.125,10.0547,9.9765,9.8437,9.7812,9.7695,9.75,9.7148,9.6679,9.582,9.5469,9.5469,9.539,9.5351,9.5117,9.4453,9.375,9.3242,9.2695,9.2617,9.2617,9.2578,9.2578,9.2578,9.2578,9.2578,9.2578,9.2578,9.2578,9.2578,9.2578,9.25,9.2461,9.2422,9.2461,9.2539,9.25,9.2383,9.2386,9.2278,9.2278,9.2278,9.2278,9.2344,9.2461,9.25,9.2461,9.25,9.2461,9.2539,9.2539,9.25,9.2422,9.2422,9.2422,9.25,10.7726,10.7848,10.7031,10.6836,10.6875,10.6367,10.6054,10.5547,10.4531,10.4062,10.3984,10.3359,10.289,10.289,10.289,10.289,10.289,10.289,10.289,10.289,10.289,10.289,10.289,10.289,10.289,10.289,10.289,10.289,10.289,10.289,10.289,10.289,10.289,10.289,10.289,10.289,10.289,10.289,10.289,10.289,10.289,10.289,10.289,10.2656,10.2187,10.1328,9.9961,9.7929,9.6445,9.6054,9.6797,9.7929,9.9414,10.1172,10.25,10.289,10.289,10.2656,10.2031,10.1015,10.0312,9.957,9.8437,9.7734,9.7695,9.7695,9.7422,9.7383,9.6797,9.6679,9.6601,9.6367,9.6211,9.5703,9.5117,9.4336,9.3672,9.3086,9.2734,9.2656,9.2578,9.2578,9.2578,9.2578,9.2578,9.2578,9.2578,9.2578,9.2578,9.2578,9.2578,9.2578,9.2578,9.2578,9.2578,9.2578,9.25,9.25,9.25,9.2461,9.2461,9.2539,9.2578,9.2578,9.2578,9.2539,9.2578,9.2578,9.2578,9.2578,9.2578,9.2578,9.2578,9.2578,9.2578]}]]